[[{"header":{"parameterUnit":"m.s-1","parameterCategory":1,"la1":31.0,"la2":29.5877,"lo1":-88.7671,"lo2":-86.6584,"dy":0.0162,"dx":0.0185,"nx":115,"ny":88,"refTime":"2024-06-25T06:00:00:Z","depth":0,"parameterNumber":2,"parameterNumberName":"U-component_of_WINDS"},"data":[0.0,0.0,0.0,0.0,0.0,0.0,0.0,0.0,0.0,0.0,0.0,0.0,0.0,0.0,0.0,0.0,0.0,0.0,0.0,0.0,0.0,0.0,0.0,0.0,0.0,0.0,0.0,0.0,0.0,0.0,0.0,0.0,0.0,0.0,0.0,0.0,0.0,0.0,0.0,0.0,0.0,0.0,0.0,0.0,0.0,0.0,0.0,0.0,0.0,0.0,0.0,0.0,0.0,0.0,0.0,0.0,0.0,0.0,0.0,0.0,0.0,0.0,0.0,0.0,0.0,0.0,0.0,0.0,0.0,0.0,0.0,0.0,0.0,0.0,0.0,0.0,0.0,0.0,0.0,0.0,0.0,0.0,0.0,0.0,0.0,0.0,0.0,0.0,0.0,0.0,0.0,0.0,0.0,0.0,0.0,0.0,0.0,0.0,0.0,0.0,0.0,0.0,0.0,0.0,0.0,0.0,0.0,0.0,0.0,0.0,0.0,0.0,0.0,0.0,0.0,0.0,0.0,0.0,0.0,0.0,0.0,0.0,0.0,0.0,0.0,0.0,0.0,0.0,0.0,0.0,0.0,0.0,0.0,0.0,0.0,0.0,0.0,0.0,0.0,0.0,0.0,0.0,0.0,0.0,0.0,0.0,0.0,0.0,0.0,0.0,0.0,0.0,0.0,0.0,0.0,0.0,0.0,0.0,0.0,0.0,0.0,0.0,0.0,0.0,0.0,0.0,0.0,0.0,0.0,0.0,0.0,0.0,0.0,0.0,0.0,0.0,0.0,0.0,0.0,0.0,0.0,0.0,0.0,0.0,0.0,0.0,0.0,0.0,0.0,0.0,0.0,0.0,0.0,0.0,0.0,0.0,0.0,0.0,0.0,0.0,0.0,0.0,0.0,0.0,0.0,0.0,0.0,0.0,0.0,0.0,0.0,0.0,0.0,0.0,0.0,0.0,0.0,0.0,0.0,0.0,0.0,0.0,0.0,0.0,0.0,0.0,0.0,0.0,0.0,0.0,0.0,0.0,0.0,0.0,0.0,0.0,0.0,0.0,0.0,0.0,0.0,0.0,0.0,0.0,0.0,0.0,0.0,0.0,0.0,0.0,0.0,0.0,0.0,0.0,0.0,0.0,0.0,0.0,0.0,0.0,0.0,0.0,0.0,0.0,0.0,0.0,0.0,0.0,0.0,0.0,0.0,0.0,0.0,0.0,0.0,0.0,0.0,0.0,0.0,0.0,0.0,0.0,0.0,0.0,0.0,0.0,0.0,0.0,0.0,0.0,0.0,0.0,0.0,0.0,0.0,0.0,0.0,0.0,0.0,0.0,0.0,0.0,0.0,0.0,0.0,0.0,0.0,0.0,0.0,0.0,0.0,0.0,0.0,0.0,0.0,0.0,0.0,0.0,0.0,0.0,0.0,0.0,0.0,0.0,0.0,0.0,0.0,0.0,0.0,0.0,0.0,0.0,0.0,0.0,0.0,0.0,0.0,0.0,0.0,0.0,0.0,0.0,0.0,0.0,0.0,0.0,0.0,0.0,0.0,0.0,0.0,0.0,0.0,0.0,0.0,0.0,0.0,0.0,0.0,0.0,0.0,0.0,0.0,0.0,0.0,0.0,0.0,0.0,0.0,0.0,0.0,0.0,0.0,0.0,0.0,0.0,0.0,0.0,0.0,0.0,0.0,0.0,0.0,0.0,0.0,0.0,0.0,0.0,0.0,0.0,0.0,0.0,0.0,0.0,0.0,0.0,0.0,0.0,0.0,0.0,0.0,0.0,0.0,0.0,0.0,0.0,0.0,0.0,0.0,0.0,0.0,0.0,0.0,0.0,0.0,0.0,0.0,0.0,0.0,0.0,0.0,0.0,0.0,0.0,0.0,0.0,0.0,0.0,0.0,0.0,0.0,0.0,0.0,0.0,0.0,0.0,0.0,0.0,0.0,0.0,0.0,0.0,0.0,0.0,0.0,0.0,0.0,0.0,0.0,0.0,0.0,0.0,0.0,0.0,0.0,0.0,0.0,0.0,0.0,0.0,0.0,0.0,0.0,0.0,0.0,0.0,0.0,0.0,0.0,0.0,0.0,0.0,0.0,0.0,0.0,0.0,0.0,0.0,0.0,0.0,0.0,0.0,0.0,0.0,0.0,0.0,0.0,0.0,0.0,0.0,0.0,0.0,0.0,0.0,0.0,0.0,0.0,0.0,0.0,0.0,0.0,0.0,0.0,0.0,0.0,0.0,0.0,0.0,0.0,0.0,0.0,0.0,0.0,0.0,0.0,0.0,0.0,0.0,0.0,0.0,0.0,0.0,0.0,0.0,0.0,0.0,0.0,0.0,0.0,0.0,0.0,0.0,0.0,0.0,0.0,0.0,0.0,0.0,0.0,0.0,0.0,0.0,0.0,0.0,0.0,0.0,0.0,0.0,0.0,0.0,0.0,0.0,0.0,0.0,0.0,0.0,0.0,0.0,0.0,0.0,0.0,0.0,0.0,0.0,0.0,0.0,0.0,0.0,0.0,0.0,0.0,0.0,0.0,0.0,0.0,0.0,0.0,0.0,0.0,0.0,0.0,0.0,0.0,0.0,0.0,0.0,0.0,0.0,0.0,0.0,0.0,0.0,0.0,0.0,0.0,0.0,0.0,0.0,0.0,0.0,0.0,0.0,0.0,0.0,0.0,0.0,0.0,0.0,0.0,0.0,0.0,0.0,0.0,0.0,0.0,0.0,0.0,0.0,0.0,0.0,0.0,0.0,0.0,0.0,0.0,0.0,0.0,0.0,0.0,0.0,0.0,0.0,0.0,0.0,0.0,0.0,0.0,0.0,0.0,0.0,0.0,0.0,0.0,0.0,0.0,0.0,0.0,0.0,0.0,0.0,0.0,0.0,0.0,0.0,0.0,0.0,0.0,0.0,0.0,0.0,0.0,0.0,0.0,0.0,0.0,0.0,0.0,0.0,0.0,0.0,0.0,0.0,0.0,0.0,0.0,0.0,0.0,0.0,0.0,0.0,0.0,0.0,0.0,0.0,0.0,0.0,0.0,0.0,0.0,0.0,0.0,0.0,0.0,0.0,0.0,0.0,0.0,0.0,0.0,0.0,0.0,0.0,0.0,0.0,0.0,0.0,0.0,0.0,0.0,0.0,0.0,0.0,0.0,0.0,0.0,0.0,0.0,0.0,0.0,0.0,0.0,0.0,0.0,0.0,0.0,0.0,0.0,0.0,0.0,0.0,0.0,0.0,0.0,0.0,0.0,0.0,0.0,0.0,0.0,0.0,0.0,0.0,0.0,0.0,0.0,0.0,0.0,0.0,0.0,0.0,0.0,0.0,0.0,0.0,0.0,0.0,0.0,0.0,0.0,0.0,0.0,0.0,0.0,0.0,0.0,0.0,0.0,0.0,0.0,0.0,0.0,0.0,0.0,0.0,0.0,0.0,0.0,0.0,0.0,0.0,0.0,0.0,0.0,0.0,0.0,0.0,0.0,0.0,0.0,0.0,0.0,0.0,0.0,0.0,0.0,0.0,0.0,0.0,0.0,0.0,0.0,0.0,0.0,0.0,0.0,0.0,0.0,0.0,0.0,0.0,0.0,0.0,0.0,0.0,0.0,0.0,0.0,0.0,0.0,0.0,0.0,0.0,0.0,0.0,0.0,0.0,0.0,0.0,0.0,0.0,0.0,0.0,0.0,0.0,0.0,0.0,0.0,0.0,0.0,0.0,0.0,0.0,0.0,0.0,0.0,0.0,0.0,0.0,0.0,0.0,0.0,0.0,0.0,0.0,0.0,0.0,0.0,0.0,0.0,0.0,0.0,0.0,0.0,0.0,0.0,0.0,0.0,0.0,0.0,0.0,0.0,0.0,0.0,0.0,0.0,0.0,0.0,0.0,0.0,0.0,0.0,0.0,0.0,0.0,0.0,0.0,0.0,0.0,0.0,0.0,0.0,0.0,0.0,0.0,0.0,0.0,0.0,0.0,0.0,0.0,0.0,0.0,0.0,0.0,0.0,0.0,0.0,0.0,0.0,0.0,0.0,0.0,0.0,0.0,0.0,0.0,0.0,0.0,0.0,0.0,0.0,0.0,0.0,0.0,0.0,0.0,0.0,0.0,0.0,0.0,0.0,0.0,0.0,0.0,0.0,0.0,0.0,0.0,0.0,0.0,0.0,0.0,0.0,0.0,0.0,0.0,0.0,0.0,0.0,0.0,0.0,0.0,0.0,0.0,0.0,0.0,0.0,0.0,0.0,0.0,0.0,0.0,0.0,0.0,0.0,0.0,-0.6079,0.0,0.0,0.0,0.0,0.0,0.0,0.0,0.0,0.0,0.0,0.0,0.0,0.0,0.0,0.0,0.0,0.0,0.0,0.0,0.0,0.0,0.0,0.0,0.0,0.0,0.0,0.0,0.0,0.0,0.0,0.0,0.0,0.0,0.0,0.0,0.0,0.0,0.0,0.0,0.0,0.0,0.0,0.0,0.0,0.0,0.0,0.0,0.0,0.0,0.0,0.0,0.0,0.0,0.0,0.0,0.0,0.0,0.0,0.0,0.0,0.0,0.0,0.0,0.0,0.0,0.0,0.0,0.0,0.0,0.0,0.0,0.0,0.0,0.0,0.0,0.0,0.0,0.0,0.0,0.0,0.0,0.0,0.0,0.0,0.0,0.0,0.0,0.0,0.0,0.0,0.0,0.0,0.0,0.0,0.0,0.0,0.0,0.0,0.0,0.0,0.0,0.0,0.0,0.0,0.0,0.0,0.0,0.0,0.0,0.0,-0.5407,-0.5626,-0.5757,-0.5873,-0.5926,0.0,0.0,0.0,0.0,0.0,0.0,0.0,0.0,0.0,0.0,0.0,0.0,0.0,0.0,0.0,0.0,0.0,0.0,0.0,0.0,0.0,0.0,0.0,0.0,0.0,0.0,0.0,0.0,0.0,0.0,0.0,0.0,0.0,0.0,0.0,0.0,0.0,0.0,0.0,0.0,0.0,0.0,0.0,0.0,0.0,0.0,0.0,0.0,0.0,0.0,0.0,0.0,0.0,0.0,0.0,0.0,0.0,0.0,0.0,0.0,0.0,0.0,0.0,0.0,0.0,0.0,0.0,0.0,0.0,0.0,0.0,0.0,0.0,0.0,0.0,0.0,0.0,0.0,0.0,0.0,0.0,0.0,0.0,0.0,0.0,0.0,0.0,0.0,0.0,0.0,0.0,0.0,0.0,0.0,0.0,0.0,0.0,0.0,0.0,0.0,0.0,0.0,0.0,0.0,0.0,0.0,0.0,0.0,0.0,0.0,0.0,0.0,-0.5517,-0.5626,-0.5626,0.0,0.0,0.0,0.0,0.0,0.0,0.0,0.0,0.0,0.0,0.0,0.0,0.0,0.0,0.0,0.0,0.0,0.0,0.0,0.0,0.0,0.0,0.0,0.0,0.0,0.0,0.0,0.0,0.0,0.0,0.0,0.0,0.0,0.0,0.0,0.0,0.0,0.0,0.0,0.0,0.0,0.0,0.0,0.0,0.0,0.0,0.0,0.0,0.0,0.0,0.0,0.0,0.0,0.0,0.0,0.0,0.0,0.0,0.0,0.0,0.0,0.0,0.0,0.0,0.0,0.0,0.0,0.0,0.0,0.0,0.0,0.0,0.0,0.0,0.0,0.0,0.0,0.0,0.0,0.0,0.0,0.0,0.0,0.0,0.0,0.0,0.0,0.0,0.0,0.0,0.0,0.0,0.0,0.0,0.0,0.0,0.0,0.0,0.0,0.0,0.0,0.0,0.0,0.0,0.0,0.0,0.0,0.0,0.0,0.0,-0.4684,-0.4901,-0.5069,0.0,-0.5183,0.0,0.0,0.0,0.0,0.0,0.0,0.0,0.0,0.0,0.0,0.0,0.0,0.0,0.0,0.0,0.0,0.0,0.0,0.0,0.0,0.0,0.0,0.0,0.0,0.0,0.0,0.0,0.0,0.0,0.0,0.0,0.0,0.0,0.0,0.0,0.0,0.0,0.0,0.0,0.0,0.0,0.0,0.0,0.0,0.0,0.0,0.0,0.0,0.0,0.0,0.0,0.0,0.0,0.0,0.0,0.0,0.0,0.0,0.0,0.0,0.0,0.0,0.0,0.0,0.0,0.0,0.0,0.0,0.0,0.0,0.0,0.0,0.0,0.0,0.0,0.0,0.0,0.0,0.0,0.0,0.0,0.0,0.0,0.0,0.0,0.0,0.0,0.0,0.0,0.0,0.0,0.0,0.0,0.0,0.0,0.0,0.0,0.0,0.0,0.0,0.0,0.0,0.0,0.0,0.0,0.0,0.0,0.0,0.0,0.0,0.0,-0.4794,-0.5014,-0.5069,0.0,0.0,0.0,0.0,0.0,0.0,0.0,0.0,0.0,0.0,0.0,0.0,0.0,0.0,0.0,0.0,0.0,0.0,0.0,0.0,0.0,0.0,0.0,0.0,0.0,0.0,0.0,0.0,0.0,0.0,0.0,0.0,0.0,0.0,0.0,0.0,0.0,0.0,0.0,0.0,0.0,0.0,0.0,0.0,0.0,0.0,0.0,0.0,0.0,0.0,0.0,0.0,0.0,0.0,0.0,0.0,0.0,0.0,0.0,0.0,0.0,0.0,0.0,0.0,0.0,0.0,0.0,0.0,0.0,0.0,0.0,0.0,0.0,0.0,0.0,0.0,0.0,0.0,0.0,0.0,0.0,0.0,0.0,0.0,0.0,0.0,0.0,0.0,0.0,0.0,0.0,0.0,0.0,0.0,0.0,0.0,0.0,0.0,0.0,0.0,0.0,0.0,0.0,0.0,0.0,0.0,0.0,0.0,0.0,0.0,-0.3968,0.0,-0.4525,-0.4798,-0.4849,-0.4736,0.0,0.0,0.0,0.0,0.0,0.0,0.0,0.0,0.0,0.0,0.0,0.0,0.0,0.0,0.0,0.0,0.0,0.0,0.0,0.0,0.0,0.0,0.0,0.0,0.0,0.0,0.0,0.0,0.0,0.0,0.0,0.0,0.0,0.0,0.0,0.0,0.0,0.0,0.0,0.0,0.0,0.0,0.0,0.0,0.0,0.0,0.0,0.0,0.0,0.0,0.0,0.0,0.0,0.0,0.0,0.0,0.0,0.0,0.0,0.0,0.0,0.0,0.0,0.0,0.0,0.0,0.0,0.0,0.0,0.0,0.0,0.0,0.0,0.0,0.0,0.0,0.0,0.0,0.0,0.0,0.0,0.0,0.0,0.0,0.0,0.0,0.0,0.0,0.0,0.0,0.0,0.0,0.0,0.0,0.0,0.0,0.0,0.0,0.0,0.0,0.0,0.0,0.0,0.0,0.0,0.0,0.0,0.0,0.0,-0.3802,-0.4079,-0.4249,-0.4411,-0.4467,0.0,0.0,0.0,0.0,0.0,0.0,0.0,0.0,0.0,0.0,0.0,0.0,0.0,0.0,0.0,0.0,0.0,0.0,0.0,0.0,0.0,0.0,0.0,0.0,0.0,0.0,0.0,0.0,0.0,0.0,0.0,0.0,0.0,0.0,0.0,0.0,0.0,0.0,0.0,0.0,0.0,0.0,0.0,0.0,0.0,0.0,0.0,0.0,0.0,0.0,0.0,0.0,0.0,0.0,0.0,0.0,0.0,0.0,0.0,0.0,0.0,0.0,0.0,0.0,0.0,0.0,0.0,0.0,0.0,0.0,0.0,0.0,0.0,0.0,0.0,0.0,0.0,0.0,0.0,0.0,0.0,0.0,0.0,0.0,0.0,0.0,0.0,0.0,0.0,0.0,0.0,0.0,0.0,0.0,0.0,0.0,0.0,0.0,0.0,0.0,0.0,0.0,0.0,0.0,0.0,0.0,0.0,0.0,0.0,-0.3244,-0.3633,-0.3907,-0.3965,-0.4304,-0.4359,0.0,0.0,0.0,0.0,0.0,0.0,0.0,0.0,0.0,0.0,0.0,0.0,0.0,0.0,0.0,0.0,0.0,0.0,0.0,0.0,0.0,0.0,0.0,0.0,0.0,0.0,0.0,0.0,0.0,0.0,0.0,0.0,0.0,0.0,0.0,0.0,0.0,0.0,0.0,0.0,0.0,0.0,0.0,0.0,0.0,0.0,0.0,0.0,0.0,0.0,0.0,0.0,0.0,0.0,0.0,0.0,0.0,0.0,0.0,0.0,0.0,0.0,0.0,0.0,0.0,0.0,0.0,0.0,0.0,0.0,0.0,0.0,0.0,0.0,0.0,0.0,0.0,0.0,0.0,0.0,0.0,0.0,0.0,0.0,0.0,0.0,0.0,0.0,0.0,0.0,0.0,0.0,0.0,0.0,0.0,0.0,0.0,0.0,0.0,0.0,0.0,0.0,0.0,0.0,0.0,0.0,0.0,0.0,0.0,-0.3239,0.0,-0.3863,0.0,-0.4169,-0.4263,0.0,0.0,0.0,0.0,0.0,0.0,0.0,0.0,0.0,0.0,0.0,0.0,0.0,0.0,0.0,0.0,0.0,0.0,0.0,0.0,0.0,0.0,0.0,0.0,0.0,0.0,0.0,0.0,0.0,0.0,0.0,0.0,0.0,0.0,0.0,0.0,0.0,0.0,0.0,0.0,0.0,0.0,0.0,0.0,0.0,0.0,0.0,0.0,0.0,0.0,0.0,0.0,0.0,0.0,0.0,0.0,0.0,0.0,0.0,0.0,0.0,0.0,0.0,0.0,0.0,0.0,0.0,0.0,0.0,0.0,0.0,0.0,0.0,0.0,0.0,0.0,0.0,0.0,0.0,0.0,0.0,0.0,0.0,0.0,0.0,0.0,0.0,0.0,0.0,0.0,0.0,0.0,0.0,0.0,0.0,0.0,0.0,0.0,0.0,0.0,0.0,0.0,0.0,0.0,0.0,0.0,0.0,0.0,-0.2626,-0.347,-0.3751,-0.392,-0.418,-0.4056,-0.3993,0.0,0.0,0.0,0.0,0.0,0.0,0.0,0.0,0.0,0.0,0.0,0.0,0.0,0.0,0.0,0.0,0.0,0.0,0.0,0.0,0.0,0.0,0.0,0.0,0.0,0.0,0.0,0.0,0.0,0.0,0.0,0.0,0.0,0.0,0.0,0.0,0.0,0.0,0.0,0.0,0.0,0.0,0.0,0.0,0.0,0.0,0.0,0.0,0.0,0.0,0.0,0.0,0.0,0.0,0.0,0.0,0.0,0.0,0.0,0.0,0.0,0.0,0.0,0.0,0.0,0.0,0.0,0.0,0.0,0.0,0.0,0.0,0.0,0.0,0.0,0.0,0.0,0.0,0.0,0.0,0.0,0.0,0.0,0.0,0.0,0.0,0.0,0.0,0.0,0.0,0.0,0.0,0.0,0.0,0.0,0.0,0.0,0.0,0.0,0.0,0.0,0.0,0.0,0.0,0.0,0.0,0.0,0.0,0.0,-0.329,-0.3247,-0.3385,-0.3633,-0.3845,-0.3846,0.0,0.0,0.0,0.0,0.0,0.0,0.0,0.0,0.0,0.0,0.0,0.0,0.0,0.0,0.0,0.0,0.0,0.0,0.0,0.0,0.0,0.0,0.0,0.0,0.0,0.0,0.0,0.0,0.0,0.0,0.0,0.0,0.0,0.0,0.0,0.0,0.0,0.0,0.0,0.0,0.0,0.0,0.0,0.0,0.0,0.0,0.0,0.0,0.0,0.0,0.0,0.0,0.0,0.0,0.0,0.0,0.0,0.0,0.0,0.0,0.0,0.0,0.0,0.0,0.0,0.0,0.0,0.0,0.0,0.0,0.0,0.0,0.0,0.0,0.0,0.0,0.0,0.0,0.0,0.0,0.0,0.0,0.0,0.0,0.0,0.0,0.0,0.0,0.0,0.0,0.0,0.0,0.0,0.0,0.0,0.0,0.0,0.0,0.0,0.0,0.0,0.0,0.0,0.0,0.0,0.0,0.0,0.0,0.0,-0.2704,-0.2829,-0.3023,-0.3353,-0.3808,-0.3796,-0.3345,0.0,0.0,0.0,0.0,0.0,0.0,0.0,0.0,0.0,0.0,0.0,0.0,0.0,0.0,0.0,0.0,0.0,0.0,0.0,0.0,0.0,0.0,0.0,0.0,0.0,0.0,0.0,0.0,0.0,0.0,0.0,0.0,0.0,0.0,0.0,0.0,0.0,0.0,0.0,0.0,0.0,0.0,0.0,0.0,0.0,0.0,0.0,0.0,0.0,0.0,0.0,0.0,0.0,0.0,0.0,0.0,0.0,0.0,0.0,0.0,0.0,0.0,0.0,0.0,0.0,0.0,0.0,0.0,0.0,0.0,0.0,0.0,0.0,0.0,0.0,0.0,0.0,0.0,0.0,0.0,0.0,0.0,0.0,0.0,0.0,0.0,0.0,0.0,0.0,0.0,0.0,0.0,0.0,0.0,0.0,0.0,0.0,0.0,0.0,0.0,0.0,0.0,0.0,0.0,0.0,0.0,0.0,0.0,-0.1895,-0.2484,-0.2916,-0.3407,-0.3887,-0.3852,0.0,0.0,0.0,0.0,0.0,0.0,0.0,0.0,0.0,0.0,0.0,0.0,0.0,0.0,0.0,0.0,0.0,0.0,0.0,0.0,0.0,0.0,0.0,0.0,0.0,0.0,0.0,0.0,0.0,0.0,0.0,0.0,0.0,0.0,0.0,0.0,0.0,0.0,0.0,0.0,0.0,0.0,0.0,0.0,0.0,0.0,0.0,0.0,0.0,0.0,0.0,0.0,0.0,0.0,0.0,0.0,0.0,0.0,0.0,0.0,0.0,0.0,0.0,0.0,0.0,0.0,0.0,0.0,0.0,0.0,0.0,0.0,0.0,0.0,0.0,0.0,0.0,0.0,0.0,0.0,0.0,0.0,0.0,0.0,0.0,0.0,0.0,0.0,0.0,0.0,0.0,0.0,0.0,0.0,0.0,0.0,0.0,0.0,0.0,0.0,0.0,0.0,0.0,0.0,0.0,0.0,0.0,0.0,0.0,-0.1875,-0.1909,-0.2347,-0.3136,-0.3162,-0.3153,0.0,0.0,0.0,0.0,0.0,0.0,0.0,0.0,0.0,0.0,0.0,0.0,0.0,0.0,0.0,0.0,0.0,0.0,0.0,0.0,0.0,0.0,0.0,0.0,0.0,0.0,0.0,0.0,0.0,0.0,0.0,0.0,0.0,0.0,0.0,0.0,0.0,0.0,0.0,0.0,0.0,0.0,0.0,0.0,0.0,0.0,0.0,0.0,0.0,0.0,0.0,0.0,0.0,0.0,0.0,0.0,0.0,0.0,0.0,0.0,0.0,0.0,0.0,0.0,0.0,0.0,0.0,0.0,0.0,0.0,0.0,0.0,0.0,0.0,0.0,0.0,0.0,0.0,0.0,0.0,0.0,0.0,0.0,0.0,0.0,0.0,0.0,0.0,0.0,0.0,0.0,0.0,0.0,0.0,0.0,0.0,0.0,0.0,0.0,0.0,0.0,0.0,0.0,0.0,0.0,0.0,0.0,0.0,-0.1555,-0.1664,-0.1686,-0.2066,-0.26,-0.2621,-0.2617,0.0,0.0,0.0,0.0,0.0,0.0,0.0,0.0,0.0,0.0,0.0,0.0,0.0,0.0,0.0,0.0,0.0,0.0,0.0,0.0,0.0,0.0,0.0,0.0,0.0,0.0,0.0,0.0,0.0,0.0,0.0,0.0,0.0,0.0,0.0,0.0,0.0,0.0,0.0,0.0,0.0,0.0,0.0,0.0,0.0,0.0,0.0,0.0,0.0,0.0,0.0,0.0,0.0,0.0,0.0,0.0,0.0,0.0,0.0,0.0,0.0,0.0,0.0,0.0,0.0,0.0,0.0,0.0,0.0,0.0,0.0,0.0,0.0,0.0,0.0,0.0,0.0,0.0,0.0,0.0,0.0,0.0,0.0,0.0,0.0,0.0,0.0,0.0,0.0,0.0,0.0,0.0,0.0,0.0,0.0,0.0,0.0,0.0,0.0,0.0,0.0,0.0,0.0,0.0,0.0,0.0,0.0,0.0,-0.1449,-0.1343,-0.1682,-0.1915,-0.1875,-0.2273,-0.2344,0.0,0.0,0.0,0.0,0.0,0.0,0.0,0.0,0.0,0.0,0.0,0.0,0.0,0.0,0.0,0.0,0.0,0.0,0.0,0.0,0.0,0.0,0.0,0.0,0.0,0.0,0.0,0.0,0.0,0.0,0.0,0.0,0.0,0.0,0.0,0.0,0.0,0.0,0.0,0.0,0.0,0.0,0.0,0.0,0.0,0.0,0.0,0.0,0.0,0.0,0.0,0.0,0.0,0.0,0.0,0.0,0.0,0.0,0.0,0.0,0.0,0.0,0.0,0.0,0.0,0.0,0.0,0.0,0.0,0.0,0.0,0.0,0.0,0.0,0.0,0.0,0.0,0.0,0.0,0.0,0.0,0.0,0.0,0.0,0.0,0.0,0.0,0.0,0.0,0.0,0.0,0.0,0.0,0.0,0.0,0.0,0.0,0.0,0.0,0.0,0.0,0.0,0.0,0.0,0.0,0.0,0.0,0.0,-0.1393,-0.1346,-0.1432,-0.1511,-0.1753,-0.1985,-0.2002,0.0,0.0,0.0,0.0,0.0,0.0,0.0,0.0,0.0,0.0,0.0,0.0,0.0,0.0,0.0,0.0,0.0,0.0,0.0,0.0,0.0,0.0,0.0,0.0,0.0,0.0,0.0,0.0,0.0,0.0,0.0,0.0,0.0,0.0,0.0,0.0,0.0,0.0,0.0,0.0,0.0,0.0,0.0,0.0,0.0,0.0,0.0,0.0,-0.5273,0.0,0.0,0.0,0.0,0.0,0.0,0.0,0.0,0.0,0.0,0.0,0.0,0.0,0.0,0.0,0.0,0.0,0.0,0.0,0.0,0.0,0.0,0.0,0.0,0.0,0.0,0.0,0.0,0.0,0.0,0.0,0.0,0.0,0.0,0.0,0.0,0.0,0.0,0.0,0.0,0.0,0.0,0.0,0.0,0.0,0.0,0.0,0.0,0.0,0.0,0.0,0.0,0.0,0.0,0.0,0.0,0.0,0.0,0.0,-0.1359,-0.1388,-0.1389,-0.1296,-0.1283,-0.1538,-0.174,0.0,0.0,0.0,0.0,0.0,0.0,0.0,0.0,0.0,0.0,0.0,0.0,0.0,0.0,0.0,0.0,0.0,0.0,0.0,0.0,0.0,0.0,0.0,0.0,0.0,0.0,0.0,0.0,0.0,0.0,0.0,0.0,0.0,0.0,0.0,0.0,0.0,0.0,0.0,0.0,0.0,0.0,0.0,0.0,0.0,0.0,0.0,0.0,0.0,0.0,0.0,0.0,0.0,0.0,0.0,0.0,0.0,0.0,0.0,0.0,0.0,0.0,0.0,0.0,0.0,0.0,0.0,0.0,0.0,0.0,0.0,0.0,0.0,0.0,0.0,0.0,0.0,0.0,0.0,0.0,0.0,0.0,0.0,0.0,0.0,0.0,0.0,0.0,0.0,0.0,0.0,0.0,0.0,0.0,0.0,0.0,0.0,0.0,0.0,0.0,0.0,0.0,0.0,0.0,0.0,0.0,0.0,-0.1192,-0.1143,-0.1165,-0.1346,-0.1157,-0.07,-0.1134,-0.144,-0.1434,0.0,0.0,0.0,0.0,0.0,0.0,0.0,0.0,0.0,0.0,0.0,0.0,0.0,0.0,0.0,0.0,0.0,0.0,0.0,0.0,0.0,0.0,0.0,0.0,0.0,0.0,0.0,0.0,0.0,0.0,0.0,0.0,0.0,0.0,0.0,0.0,0.0,0.0,-0.3312,-0.3304,0.0,0.0,0.0,0.0,0.0,0.0,0.0,0.0,-0.5109,0.0,0.0,0.0,0.0,0.0,0.0,0.0,0.0,0.0,0.0,0.0,0.0,0.0,0.0,0.0,0.0,0.0,0.0,0.0,0.0,0.0,0.0,0.0,0.0,0.0,0.0,0.0,0.0,0.0,0.0,0.0,0.0,0.0,0.0,0.0,0.0,0.0,0.0,0.0,0.0,0.0,0.0,0.0,0.0,0.0,0.0,0.0,0.0,0.0,0.0,0.0,0.0,0.0,0.0,0.0,0.0,-0.1057,-0.0851,-0.0527,-0.0269,-0.0987,-0.1164,-0.0714,-0.1142,-0.1202,-0.0916,0.0,0.0,0.0,0.0,0.0,0.0,0.0,0.0,0.0,0.0,0.0,0.0,0.0,0.0,0.0,0.0,0.0,0.0,0.0,0.0,0.0,0.0,0.0,0.0,0.0,0.0,0.0,0.0,0.0,0.0,0.0,0.0,0.0,0.0,0.0,0.0,0.0,0.0,0.0,-0.3053,-0.306,0.0,0.0,0.0,0.0,0.0,0.0,0.0,0.0,-0.4912,0.0,0.0,0.0,0.0,0.0,0.0,0.0,0.0,0.0,0.0,0.0,0.0,0.0,0.0,0.0,0.0,0.0,0.0,0.0,0.0,0.0,0.0,0.0,0.0,0.0,0.0,0.0,0.0,0.0,0.0,0.0,0.0,0.0,0.0,0.0,0.0,0.0,0.0,0.0,0.0,0.0,0.0,0.0,0.0,0.0,0.0,0.0,0.0,0.0,0.0,0.0,0.0,0.0,0.0,0.0,-0.0497,-0.0347,-0.0178,-0.0,-0.0449,-0.0539,-0.0359,-0.0528,-0.0431,0.0,0.0,0.0,0.0,0.0,0.0,0.0,0.0,0.0,0.0,0.0,0.0,0.0,0.0,0.0,0.0,0.0,0.0,0.0,0.0,0.0,0.0,0.0,0.0,0.0,0.0,0.0,0.0,0.0,0.0,0.0,0.0,0.0,0.0,0.0,0.0,0.0,0.0,0.0,0.0,-0.3292,-0.3307,-0.3418,0.0,0.0,0.0,0.0,0.0,0.0,-0.4833,-0.4855,0.0,0.0,0.0,0.0,0.0,0.0,0.0,0.0,0.0,0.0,0.0,0.0,0.0,0.0,0.0,0.0,0.0,0.0,0.0,0.0,0.0,0.0,0.0,0.0,0.0,0.0,0.0,0.0,0.0,0.0,0.0,0.0,0.0,0.0,0.0,0.0,0.0,0.0,0.0,0.0,0.0,0.0,0.0,0.0,0.0,0.0,0.0,0.0,0.0,0.0,0.0,0.0,0.0,0.0,0.0,-0.0,-0.0,-0.0,-0.0,-0.0,-0.0,-0.0,-0.0,0.0258,0.0,0.0,0.0,0.0,0.0,0.0,0.0,0.0,0.0,0.0,0.0,0.0,0.0,0.0,0.0,0.0,0.0,0.0,0.0,0.0,0.0,0.0,0.0,0.0,0.0,0.0,0.0,0.0,0.0,0.0,0.0,0.0,0.0,0.0,0.0,0.0,0.0,0.0,0.0,0.0,0.0,-0.3492,-0.365,-0.3663,0.0,0.0,0.0,0.0,-0.4762,-0.4745,0.0,0.0,0.0,0.0,0.0,0.0,0.0,0.0,0.0,0.0,0.0,0.0,0.0,0.0,0.0,0.0,0.0,0.0,0.0,0.0,0.0,0.0,0.0,0.0,0.0,0.0,0.0,0.0,0.0,0.0,0.0,0.0,0.0,0.0,0.0,0.0,0.0,0.0,0.0,0.0,0.0,0.0,0.0,0.0,0.0,0.0,0.0,0.0,0.0,0.0,0.0,0.0,0.0,0.0,0.0,0.0,-0.0,-0.0,-0.0,-0.0,-0.0,-0.0,-0.0,-0.0,0.0345,0.0,0.0,0.0,0.0,0.0,0.0,0.0,0.0,0.0,0.0,0.0,0.0,0.0,0.0,0.0,0.0,0.0,0.0,0.0,0.0,0.0,0.0,0.0,0.0,0.0,0.0,0.0,0.0,0.0,0.0,0.0,0.0,0.0,0.0,0.0,0.0,0.0,0.0,0.0,0.0,0.0,-0.3519,-0.3752,-0.3634,-0.3747,0.0,0.0,-0.4031,-0.4494,-0.4281,0.0,0.0,0.0,0.0,0.0,0.0,0.0,0.0,0.0,0.0,0.0,0.0,0.0,0.0,0.0,0.0,0.0,0.0,0.0,0.0,0.0,0.0,0.0,0.0,0.0,0.0,0.0,0.0,0.0,0.0,0.0,0.0,0.0,0.0,0.0,0.0,0.0,0.0,0.0,0.0,0.0,0.0,0.0,0.0,0.0,0.0,0.0,0.0,0.0,0.0,0.0,0.0,0.0,0.0,0.0,-0.0,-0.0,-0.0,-0.0,-0.0,0.0539,0.0808,0.0808,0.0528,0.06,0.0,0.0,0.0,0.0,0.0,0.0,0.0,0.0,0.0,0.0,0.0,0.0,0.0,0.0,0.0,0.0,0.0,0.0,0.0,0.0,0.0,0.0,0.0,0.0,0.0,0.0,0.0,0.0,0.0,0.0,0.0,0.0,0.0,0.0,0.0,0.0,0.0,0.0,0.0,0.0,0.0,0.0,-0.4093,-0.3812,0.0,0.0,0.0,-0.3814,-0.4092,0.0,0.0,0.0,0.0,0.0,0.0,0.0,0.0,0.0,0.0,0.0,0.0,0.0,0.0,0.0,0.0,0.0,0.0,0.0,0.0,0.0,0.0,0.0,0.0,0.0,0.0,0.0,0.0,0.0,0.0,0.0,0.0,0.0,0.0,0.0,0.0,0.0,0.0,0.0,0.0,0.0,0.0,0.0,0.0,0.0,0.0,0.0,0.0,0.0,0.0,0.0,0.0,0.0,0.0,0.0,0.0,0.0,-0.0,-0.0,0.009,0.0359,0.0987,0.1436,0.1435,0.1138,0.0,0.0,0.0,0.0,0.0,0.0,0.0,0.0,0.0,0.0,0.0,0.0,0.0,0.0,0.0,0.0,0.0,0.0,0.0,0.0,0.0,0.0,0.0,0.0,0.0,0.0,0.0,-0.0578,0.0,0.0,0.0,0.0,0.0,0.0,0.0,0.0,0.0,0.0,0.0,0.0,0.0,0.0,-0.4016,-0.4218,-0.388,-0.3729,0.0,0.0,-0.3644,-0.3813,-0.3826,-0.3666,0.0,0.0,0.0,0.0,0.0,0.0,0.0,0.0,0.0,0.0,0.0,0.0,0.0,0.0,0.0,0.0,0.0,0.0,0.0,0.0,0.0,0.0,0.0,0.0,0.0,0.0,0.0,0.0,0.0,0.0,0.0,0.0,0.0,0.0,0.0,0.0,0.0,0.0,0.0,0.0,0.0,0.0,0.0,0.0,0.0,0.0,0.0,0.0,0.0,0.0,0.0,0.0,0.0,0.0,0.0,-0.0,-0.0,0.0448,0.1256,0.1346,0.1436,0.1434,0.1726,0.1854,0.0,0.0,0.0,0.0,0.0,0.0,0.0,0.0,0.0,0.0,0.0,0.0,0.0,0.0,0.0,0.0,0.0,0.0,0.0,0.0,0.0,0.0,0.0,0.0,0.0,0.0,0.0,0.0,0.0,0.0,0.0,0.0,0.0,0.0,0.0,0.0,0.0,0.0,0.0,0.0,0.0,-0.3905,-0.3993,-0.3672,-0.3554,0.0,0.0,-0.3205,-0.3727,-0.3574,-0.3268,-0.3099,0.0,0.0,0.0,0.0,0.0,0.0,0.0,0.0,0.0,0.0,0.0,0.0,0.0,0.0,0.0,0.0,0.0,0.0,0.0,0.0,0.0,0.0,0.0,0.0,0.0,0.0,0.0,0.0,0.0,0.0,0.0,0.0,0.0,0.0,0.0,0.0,0.0,0.0,0.0,0.0,0.0,0.0,0.0,0.0,0.0,0.0,0.0,0.0,0.0,0.0,0.0,0.0,0.0,0.1078,0.086,0.0896,0.1097,0.1463,0.1463,0.1555,0.1738,0.1845,0.1865,0.0,0.0,0.0,0.0,0.0,0.0,0.0,0.0,0.0,0.0,0.0,0.0,0.0,0.0,0.0,0.0,0.0,0.0,0.0,0.0,0.0,0.0,0.0,0.0,0.0,0.0,0.0,0.0,-0.0489,-0.0669,-0.0576,0.0,0.0,0.0,0.0,0.0,0.0,0.0,0.0,0.0,0.0,-0.389,-0.4094,-0.3561,0.0,0.0,-0.3036,-0.276,-0.2855,-0.2776,-0.2714,-0.2453,-0.2449,0.0,0.0,0.0,0.0,0.0,0.0,0.0,0.0,0.0,0.0,0.0,0.0,0.0,0.0,0.0,0.0,0.0,0.0,0.0,0.0,0.0,0.0,0.0,0.0,0.0,0.0,0.0,0.0,0.0,0.0,0.0,0.0,0.0,0.0,0.0,0.0,0.0,0.0,0.0,0.0,0.0,0.0,0.0,0.0,0.0,0.0,0.0,0.0,0.0,0.0,0.0,0.0,0.1598,0.1669,0.1455,0.1578,0.1867,0.1774,0.1862,0.2035,0.2057,0.2063,0.0,0.0,0.0,0.0,0.0,0.0,0.0,0.0,0.0,0.0,0.0,0.0,0.0,0.0,0.0,0.0,0.0,0.0,0.0,0.0,0.0,0.0,0.0,0.0,0.0,0.0,0.0,0.0,-0.039,-0.0576,-0.0417,0.0,0.0,0.0,0.0,0.0,0.0,0.0,0.0,0.0,0.0,-0.3721,-0.3817,-0.3251,-0.2832,-0.2761,-0.2586,-0.2399,-0.2196,-0.233,-0.2286,-0.2103,0.0,0.0,0.0,0.0,0.0,0.0,0.0,0.0,0.0,0.0,0.0,0.0,0.0,0.0,0.0,0.0,0.0,0.0,0.0,0.0,0.0,0.0,0.0,0.0,0.0,0.0,0.0,0.0,0.0,0.0,0.2751,0.0,0.0,0.0,0.0,0.0,0.0,0.0,0.0,0.0,0.0,0.0,0.0,0.0,0.0,0.0,0.0,0.0,0.0,0.0,0.0,0.0,0.0,0.2063,0.2241,0.1742,0.1777,0.2573,0.248,0.2364,0.2225,0.236,0.2374,0.227,0.0,0.0,0.0,0.0,0.0,0.0,0.0,0.0,0.0,0.0,0.0,0.0,0.0,0.0,0.0,0.0,0.0,0.0,0.0,0.0,0.0,0.0,0.0,0.0,0.0,0.0,-0.0,-0.0,-0.0119,0.0,0.0,0.0,0.0,0.0,0.0,0.0,0.0,0.0,0.0,-0.3401,-0.3366,-0.3122,-0.2804,-0.2529,-0.2299,-0.2037,-0.1951,-0.2203,-0.2194,-0.2192,0.0,0.0,0.0,0.0,0.0,0.0,0.0,0.0,0.0,0.0,0.0,0.0,0.0,0.0,0.0,0.0,0.0,0.0,0.0,0.0,0.0,0.0,0.0,0.0,0.0,0.0,0.0,0.3438,0.3064,0.0,0.0,0.0,0.0,0.0,0.0,0.0,0.0,0.0,0.0,0.0,0.4036,0.4008,0.0,0.0,0.0,0.0,0.0,0.0,0.0,0.0,0.0,0.0,0.0,0.0,0.2586,0.2383,0.2272,0.2317,0.2624,0.2624,0.2519,0.2501,0.2519,0.2662,0.2886,0.0,0.0,0.0,0.0,0.0,0.0,0.0,0.0,0.0,0.0,0.0,0.0,0.0,0.0,0.0,0.0,0.0,0.0,0.0,0.0,0.0,0.0,0.0,0.0,0.0,-0.0,0.0,0.0,0.0,0.0,0.0,0.0,0.0,0.0,0.0,0.0,0.0,-0.252,-0.2681,-0.2846,-0.2922,-0.2807,-0.2444,-0.2166,0.0,0.0,0.0,0.0,0.0,0.0,0.0,0.0,0.0,0.0,0.0,0.0,0.0,0.0,-0.2491,-0.2679,-0.2751,-0.2919,-0.3092,0.0,0.0,0.0,0.0,0.0,0.0,0.0,0.0,0.0,0.0,0.0,0.0,0.0,0.0,0.4041,0.0,0.346,0.0,0.0,0.0,0.0,0.0,0.0,0.0,0.0,0.5059,0.4822,0.4669,0.4732,0.4543,0.0,0.4246,0.4171,0.0,0.0,0.0,0.0,0.0,0.0,0.0,0.0,0.3197,0.2833,0.2808,0.2854,0.2872,0.2872,0.2864,0.2942,0.2909,0.3025,0.3421,0.3443,0.3501,0.0,0.0,0.0,0.0,0.0,0.0,0.0,0.0,0.0,0.0,0.0,0.0,0.0,0.0,0.0,0.0,0.0,0.0,0.0,0.0,0.0,0.0,0.0,-0.0,0.0,0.0,0.0,0.0,0.0,0.0,0.0,0.0,0.0,-0.1655,-0.2007,-0.2281,-0.2405,-0.2463,-0.252,-0.2471,0.0,0.0,0.0,0.0,0.0,0.0,0.0,-0.1618,-0.1618,-0.1617,-0.1711,-0.179,-0.1887,-0.1985,-0.1986,0.0,0.0,-0.2316,-0.2476,-0.2657,-0.284,-0.2932,-0.3025,-0.3025,-0.3115,-0.3206,0.0,0.0,0.0,0.0,0.0,0.0,0.0,0.0,0.4578,0.4663,0.0,0.421,0.0,0.0,0.0,0.0,0.0,0.426,0.0,0.0,0.5873,0.5538,0.5448,0.5453,0.5158,0.4676,0.4862,0.5092,0.5351,0.4088,0.0,0.0,0.0,0.0,0.0,0.0,0.38,0.3521,0.324,0.3172,0.3228,0.323,0.3302,0.3531,0.3433,0.3559,0.3736,0.3511,0.3614,0.4073,0.4174,0.0,0.0,0.0,0.0,0.0,0.0,0.0,0.0,0.0,0.0,0.0,0.0,0.0,0.0,0.0,0.0,0.0,0.0,0.0,0.0,-0.0,0.0,0.0,0.0,0.0,0.0,0.0,0.0,0.0,0.0,0.0,-0.1802,-0.1835,-0.1883,-0.2245,0.0,0.0,0.0,0.0,-0.1972,-0.1766,-0.1686,-0.1703,-0.1703,-0.1703,-0.1702,-0.1702,0.0,0.0,-0.1704,-0.1703,-0.1701,-0.1703,-0.1698,-0.1772,-0.2137,-0.2207,-0.2207,-0.2206,-0.2305,-0.2203,-0.2201,-0.249,-0.2581,0.2775,0.0,0.0,0.0,0.0,0.4688,0.4686,0.478,0.5151,0.5148,0.4957,0.4957,0.0,0.0,0.0,0.0,0.0,0.0,0.6115,0.67,0.6526,0.622,0.5877,0.588,0.5777,0.5665,0.542,0.5431,0.5789,0.5268,0.4621,0.3784,0.0,0.0,0.0,0.0,0.4246,0.3823,0.3676,0.371,0.3731,0.363,0.3698,0.3824,0.3901,0.3961,0.4178,0.4295,0.4454,0.4557,0.4378,0.0,0.0,0.0,0.0,0.0,0.0,0.0,0.0,0.0,0.0,0.0,0.0,0.0,0.0,0.0,0.0,0.0,0.0,0.0,-0.0,-0.0,-0.0,0.0,0.0,0.0,0.0,0.0,0.0,0.0,0.0,0.0,-0.1663,-0.1671,-0.1683,0.0,0.0,-0.1876,-0.1783,-0.1791,-0.1797,-0.1692,-0.1699,0.0,-0.1704,-0.1704,-0.1704,-0.1704,-0.1704,-0.1711,-0.1733,-0.1718,-0.1704,-0.1705,-0.1704,-0.1692,-0.1872,-0.1964,-0.2169,-0.2378,-0.2378,-0.2367,-0.244,-0.2533,-0.2521,0.3219,0.279,0.3391,0.409,0.479,0.4783,0.4982,0.5282,0.5534,0.5515,0.551,0.5467,0.5413,0.5351,0.5979,0.0,0.0,0.0,0.6521,0.6802,0.688,0.6738,0.6376,0.6273,0.6378,0.6373,0.6132,0.607,0.6379,0.6242,0.5709,0.4997,0.0,0.0,0.5308,0.5273,0.4973,0.4409,0.4356,0.428,0.4077,0.4048,0.4097,0.4217,0.4359,0.444,0.463,0.4977,0.5072,0.491,0.4733,0.4655,0.0,0.0,0.0,0.0,0.0,0.0,0.0,0.0,0.0,0.0,0.0,0.0922,0.0,0.0,0.0,0.0,-0.0,-0.0,-0.0,-0.0,0.0,0.0,0.0,0.0,0.0,0.0,0.0,-0.1625,-0.1594,-0.1639,-0.165,-0.1662,-0.1665,-0.1653,-0.1682,-0.1704,-0.1704,0.0,-0.1722,-0.1722,-0.1733,-0.174,-0.174,-0.174,-0.174,-0.174,-0.174,-0.1746,-0.1763,-0.1752,-0.1741,-0.174,-0.174,-0.174,-0.174,-0.1849,-0.2055,-0.2137,-0.2131,-0.2228,-0.2205,-0.2306,-0.2299,0.374,0.3526,0.3312,0.3943,0.4786,0.4886,0.5309,0.6054,0.5848,0.5911,0.6218,0.5807,0.5861,0.6268,0.6376,0.0,0.6117,0.6325,0.659,0.6817,0.7034,0.704,0.6831,0.6834,0.6831,0.6937,0.682,0.6817,0.6923,0.6804,0.6695,0.6363,0.5765,0.5818,0.6423,0.6224,0.5713,0.5083,0.5085,0.4876,0.4352,0.4487,0.461,0.4722,0.4806,0.5006,0.5296,0.5543,0.5513,0.5216,0.5015,0.5004,0.4959,0.0,0.0,0.0,0.0,0.0,0.0,0.0,0.0,0.0,0.0,0.0,0.0,0.0,0.0,0.0,-0.0,0.0,-0.0,-0.0,0.0,0.0,0.0,-0.0174,-0.0648,-0.1329,-0.1657,-0.1618,0.0,0.0,-0.1708,-0.1738,-0.1747,-0.1722,-0.1714,-0.1712,-0.1712,-0.1739,-0.1757,-0.1759,-0.1783,-0.1802,-0.1802,-0.1802,-0.1802,-0.1803,-0.1802,-0.1803,-0.1804,-0.1804,-0.1802,-0.1802,-0.1802,-0.1802,-0.1802,-0.1802,-0.1785,-0.1734,-0.1718,-0.1712,-0.1708,-0.1922,-0.2026,0.454,0.4426,0.4311,0.4575,0.5216,0.5208,0.5847,0.692,0.6884,0.6655,0.6333,0.6414,0.6505,0.6717,0.6959,0.6865,0.6653,0.6679,0.6853,0.705,0.7161,0.7208,0.7067,0.7073,0.7073,0.7067,0.7094,0.7161,0.7158,0.7065,0.6912,0.669,0.6583,0.6546,0.6679,0.6602,0.6312,0.5812,0.528,0.5139,0.5283,0.5362,0.5406,0.5404,0.5429,0.5463,0.5696,0.5699,0.5631,0.5604,0.5459,0.5282,0.4996,0.4956,0.0,0.0,0.0,0.0,0.0,0.0,0.0,0.0,0.0,0.1517,0.1187,0.0,0.0231,0.0,-0.0,-0.0,-0.0,-0.0,0.0,0.0,-0.0,-0.0,-0.0197,-0.1107,-0.1748,-0.1682,-0.1712,-0.174,-0.177,-0.18,-0.1825,-0.1839,-0.1802,-0.1774,-0.1774,-0.18,-0.1819,-0.1821,-0.1842,-0.1864,-0.1862,-0.1864,-0.1862,-0.1864,-0.1863,-0.1864,-0.1864,-0.1864,-0.1864,-0.1864,-0.1864,-0.1864,-0.1862,-0.1864,-0.1859,-0.1842,-0.1806,-0.1766,-0.1744,-0.1848,-0.184,0.5266,0.5384,0.503,0.5431,0.6229,0.6243,0.6531,0.7189,0.7237,0.6992,0.6666,0.6666,0.6883,0.6998,0.7155,0.7069,0.6959,0.6959,0.7105,0.7172,0.7172,0.7205,0.7154,0.7154,0.7154,0.7152,0.7202,0.7172,0.7169,0.7214,0.7177,0.6959,0.6959,0.6959,0.6956,0.7017,0.6778,0.6238,0.5808,0.576,0.6292,0.5926,0.587,0.5812,0.571,0.5728,0.6071,0.6045,0.5922,0.5893,0.5725,0.5483,0.5349,0.5183,0.5146,0.0,0.0,0.0,0.0,0.0,0.0,0.0,0.0,0.0,0.0,0.0,0.0504,-0.0,-0.0,-0.0,-0.0,-0.0,-0.0,-0.0,-0.0,-0.0,-0.0,-0.0847,-0.1511,-0.1744,-0.1784,-0.1817,-0.1834,-0.185,-0.1866,-0.1884,-0.1857,-0.1835,-0.1837,-0.1851,-0.186,-0.1861,-0.1874,-0.1885,-0.1885,-0.1885,-0.1885,-0.1885,-0.1885,-0.1885,-0.1885,-0.1885,-0.1885,-0.1885,-0.1885,-0.1885,-0.1885,-0.1885,-0.1885,-0.1881,-0.1859,-0.1832,-0.1814,-0.18,-0.1784,0.5996,0.6235,0.5754,0.6102,0.7148,0.7182,0.7206,0.7182,0.7188,0.713,0.7008,0.6896,0.7008,0.7236,0.7221,0.7154,0.7154,0.7154,0.7154,0.7154,0.7154,0.7154,0.7154,0.7154,0.7154,0.7154,0.7171,0.7176,0.7179,0.7179,0.7176,0.7176,0.7163,0.7154,0.7152,0.7169,0.7008,0.6562,0.6349,0.6521,0.7166,0.6414,0.6034,0.6213,0.5908,0.5909,0.6295,0.6374,0.6316,0.6108,0.5899,0.5779,0.5773,0.5561,0.5436,0.0,0.5265,0.0,0.0,0.0,0.0,0.0,0.0,0.0,0.0,0.1252,0.0814,0.0272,0.0091,-0.0,-0.0,-0.0,-0.0,-0.0,-0.0,-0.0,-0.0,-0.0553,-0.1129,-0.1806,-0.1853,-0.1887,-0.189,-0.1892,-0.1892,-0.19,-0.19,-0.1897,-0.1897,-0.1894,-0.1892,-0.1892,-0.1896,-0.1904,-0.1903,-0.1901,-0.19,-0.1899,-0.1902,-0.1897,-0.19,-0.19,-0.1899,-0.19,-0.1902,-0.19,-0.1897,-0.1899,-0.1898,-0.1902,-0.1899,-0.2011,-0.188,-0.1977,-0.1847,0.6584,0.6467,0.6455,0.6453,0.6803,0.747,0.7514,0.7188,0.7164,0.7214,0.7124,0.7122,0.7122,0.7235,0.7254,0.7154,0.7154,0.7154,0.7154,0.7154,0.7154,0.7154,0.7154,0.7154,0.7154,0.716,0.7252,0.7301,0.7417,0.7301,0.7188,0.7185,0.7203,0.7154,0.7154,0.0,0.0,0.0,0.7008,0.707,0.718,0.6929,0.6714,0.6527,0.639,0.0,0.641,0.6418,0.6357,0.623,0.6097,0.0,0.0,0.0,0.0,0.0,0.0,0.0,0.0,0.0,0.0,0.0,0.3144,0.2671,0.1972,0.16,0.1424,0.135,0.0579,-0.0,-0.0,-0.0,-0.0,-0.0,-0.0,-0.0,-0.0,-0.0,-0.0584,-0.1868,-0.1879,-0.1896,-0.1918,-0.1922,-0.1932,-0.1952,-0.196,-0.1959,-0.1958,-0.1937,-0.1923,-0.1924,-0.194,-0.1957,-0.1959,-0.1957,-0.1954,-0.1959,-0.1959,-0.1958,-0.1956,-0.1957,-0.1958,-0.1957,-0.1959,-0.1958,-0.1958,-0.1959,-0.1956,-0.1958,-0.2201,-0.2307,-0.2015,-0.2117,-0.2347,0.722,0.0,0.7207,0.7204,0.0,0.7693,0.7746,0.7513,0.7451,0.7391,0.7334,0.722,0.722,0.7334,0.7336,0.7334,0.7217,0.7217,0.722,0.7217,0.7334,0.7334,0.7334,0.7331,0.7334,0.7336,0.7276,0.7308,0.7429,0.7541,0.7423,0.719,0.7247,0.7217,0.7331,0.7274,0.7214,0.7154,0.7154,0.7238,0.7183,0.7125,0.6929,0.6804,0.6575,0.0,0.0,0.0,0.0,0.0,0.0,0.0,0.0,0.0,0.0,0.5903,0.6005,0.5815,0.5349,0.4528,0.3821,0.3333,0.312,0.274,0.2092,0.1907,0.1823,0.1737,0.1125,0.0619,-0.0,-0.0,-0.0,-0.0,-0.0,-0.0,-0.0,-0.0,-0.0,-0.0955,-0.1561,-0.1937,-0.1952,-0.1954,-0.1959,-0.1975,-0.199,-0.1997,-0.1995,-0.1972,-0.1954,-0.1954,-0.1964,-0.1976,-0.1977,-0.1977,-0.1977,-0.1977,-0.1977,-0.1977,-0.1977,-0.1977,-0.1977,-0.1977,-0.1977,-0.1977,-0.1977,-0.2099,-0.2222,-0.2221,-0.2467,-0.2704,-0.2538,-0.2517,-0.2622,0.7755,0.7508,0.775,0.7872,0.7872,0.7872,0.7939,0.7845,0.0,0.0,0.0,0.7399,0.7399,0.7519,0.7519,0.7402,0.728,0.728,0.728,0.7282,0.7519,0.7519,0.7399,0.7519,0.7519,0.7399,0.7304,0.7311,0.7551,0.7791,0.7671,0.7311,0.729,0.7399,0.7513,0.7418,0.7317,0.722,0.7176,0.7154,0.7152,0.7062,0.7005,0.6986,0.6685,0.6567,0.6649,0.6556,0.6499,0.6499,0.6412,0.6366,0.6361,0.6276,0.6029,0.5734,0.6031,0.5935,0.5347,0.4604,0.3972,0.3462,0.3256,0.2869,0.2296,0.2218,0.203,0.172,0.172,0.1294,0.0434,-0.0,-0.0,-0.0,-0.0,-0.0,-0.0,-0.0,-0.0,-0.0,-0.0984,-0.1738,-0.1992,-0.1993,-0.1992,-0.1995,-0.2014,-0.2026,-0.2024,-0.2008,-0.1995,-0.1995,-0.1999,-0.1995,-0.1993,-0.1995,-0.1992,-0.1997,-0.1995,-0.1992,-0.1992,-0.1992,-0.1992,-0.1997,-0.1989,-0.1986,-0.2108,-0.235,-0.2467,-0.259,-0.2837,-0.3085,-0.3203,-0.3176,-0.3148,0.7875,0.7872,0.7872,0.7872,0.7872,0.7872,0.7864,0.7828,0.7614,0.7519,0.7519,0.7755,0.7638,0.7519,0.7758,0.7638,0.7519,0.7519,0.7638,0.7758,0.7874,0.7758,0.7638,0.7519,0.7519,0.7407,0.7501,0.7554,0.7554,0.7795,0.7917,0.7784,0.757,0.7524,0.7758,0.7621,0.7367,0.7227,0.7148,0.7154,0.7154,0.7138,0.7084,0.6989,0.7061,0.6992,0.6782,0.6757,0.6749,0.6749,0.6736,0.6623,0.6419,0.6396,0.6185,0.5867,0.5661,0.5559,0.5557,0.4639,0.3912,0.3495,0.3447,0.3135,0.2552,0.2341,0.2049,0.1775,0.1782,0.1692,0.1505,0.0583,-0.0,-0.0,-0.0,-0.0,-0.0,-0.0,-0.0,-0.0,-0.0126,-0.0759,-0.1787,-0.2048,-0.2046,-0.205,-0.2052,-0.2058,-0.2059,-0.2054,-0.2052,-0.2052,-0.2052,-0.2051,-0.2046,-0.2051,-0.2047,-0.2051,-0.2048,-0.2045,-0.2044,-0.2044,-0.2044,-0.205,-0.2028,-0.214,-0.2389,-0.2489,-0.2725,-0.297,-0.3218,-0.346,-0.3704,-0.3939,-0.4053,0.8122,0.8119,0.7989,0.7864,0.7986,0.8236,0.8485,0.8352,0.8122,0.7948,0.7712,0.7834,0.7834,0.7709,0.7831,0.7831,0.7709,0.7712,0.7831,0.7954,0.7954,0.7831,0.7712,0.7712,0.7709,0.7712,0.7645,0.7669,0.779,0.7793,0.7917,0.7914,0.7736,0.7831,0.7829,0.7649,0.7616,0.7611,0.7442,0.7317,0.7252,0.7252,0.7198,0.7081,0.7133,0.7072,0.6904,0.6948,0.6912,0.6595,0.6595,0.6489,0.6169,0.6174,0.5963,0.553,0.4786,0.4682,0.5329,0.4405,0.3703,0.3328,0.3356,0.3037,0.2479,0.2459,0.2359,0.1955,0.1844,0.1855,0.1884,0.1306,0.0716,-0.0,-0.0,-0.0,-0.0,-0.0,-0.0,-0.0,-0.0,-0.0,-0.1935,-0.2065,-0.2064,-0.2065,-0.2076,-0.2093,-0.211,-0.2112,-0.21,-0.2071,-0.2064,-0.2064,-0.2065,-0.2065,-0.2065,-0.2065,-0.2065,-0.2065,-0.2065,-0.2065,-0.2065,-0.2064,-0.218,-0.2428,-0.2554,-0.2921,-0.3161,-0.3537,-0.3888,-0.4125,-0.4488,-0.4713,-0.4808,0.8488,0.8491,0.8233,0.823,0.8355,0.8854,0.8983,0.8854,0.8607,0.8238,0.7872,0.7869,0.7991,0.8119,0.8116,0.7991,0.7867,0.7869,0.7867,0.7872,0.7872,0.7872,0.7872,0.7872,0.7872,0.7872,0.7872,0.7869,0.775,0.7747,0.775,0.7877,0.7752,0.7627,0.7627,0.7546,0.7621,0.7862,0.753,0.741,0.7383,0.7375,0.7317,0.7198,0.7224,0.7163,0.6912,0.6934,0.6781,0.6463,0.6353,0.6243,0.581,0.5924,0.571,0.4953,0.4087,0.3988,0.4665,0.3951,0.3358,0.3227,0.3119,0.2909,0.2361,0.2578,0.2455,0.201,0.1894,0.1898,0.191,0.1807,0.1336,-0.0,-0.0,-0.0,-0.0,-0.0,-0.0,-0.0,-0.0,-0.039,-0.1302,-0.1825,-0.1957,-0.2092,-0.2106,-0.2129,-0.215,-0.2155,-0.2133,-0.2101,-0.2084,-0.2088,-0.2084,-0.2087,-0.2088,-0.2084,-0.2086,-0.2091,-0.209,-0.2086,-0.2215,-0.2218,-0.247,-0.2724,-0.2852,-0.3355,-0.3862,-0.4239,-0.4464,-0.4816,-0.5064,-0.5532,-0.5586,0.8854,0.8854,0.8854,0.9108,0.9605,0.9609,0.9361,0.8867,0.8616,0.8244,0.7994,0.7861,0.8233,0.8732,0.8732,0.848,0.798,0.7861,0.7986,0.7994,0.7872,0.7872,0.7872,0.7872,0.7872,0.7872,0.7872,0.775,0.7383,0.7136,0.7266,0.7768,0.7271,0.7021,0.7018,0.7011,0.7255,0.788,0.7248,0.7255,0.7758,0.7621,0.7445,0.7323,0.7193,0.7024,0.671,0.6465,0.6349,0.6357,0.6243,0.6019,0.5567,0.5906,0.5686,0.4679,0.401,0.3813,0.4101,0.3429,0.2995,0.328,0.3054,0.272,0.2401,0.2404,0.2404,0.2047,0.1927,0.1938,0.1964,0.1971,0.1363,-0.0,-0.0,-0.0,-0.0,-0.0,-0.0,-0.0,-0.0,-0.0,-0.0,-0.0802,-0.1338,-0.1869,-0.2006,-0.2146,-0.2153,-0.2155,-0.2154,-0.2145,-0.2145,-0.2143,-0.2141,-0.2146,-0.2138,-0.214,-0.2144,-0.214,-0.2136,-0.2138,-0.2278,-0.2525,-0.265,-0.2895,-0.3409,-0.3908,-0.4264,-0.4668,-0.5038,-0.5272,-0.5659,-0.6151,-0.6345,0.8613,0.861,0.923,0.9605,0.9734,0.948,0.9108,0.8861,0.8735,0.861,0.8488,0.848,0.848,0.836,0.8735,0.8738,0.8488,0.8488,0.8738,0.887,0.8244,0.7872,0.7872,0.7872,0.7872,0.7872,0.7872,0.7869,0.7627,0.7383,0.7266,0.7273,0.7028,0.6655,0.6405,0.6655,0.7028,0.7276,0.7028,0.6855,0.6769,0.6943,0.6977,0.6877,0.6864,0.6844,0.6572,0.6448,0.6194,0.5801,0.5795,0.5543,0.5043,0.5201,0.5002,0.4438,0.3904,0.3588,0.3614,0.3148,0.2816,0.2743,0.2747,0.2526,0.2198,0.2202,0.208,0.1958,0.1958,0.1971,0.1872,0.1252,0.063,-0.0,-0.0,-0.0,-0.0,-0.0,-0.0,-0.0,-0.0,-0.0,-0.0,-0.0269,-0.0539,-0.0943,-0.1212,-0.1616,-0.202,-0.2155,-0.2155,-0.2155,-0.2155,-0.2155,-0.2155,-0.2155,-0.2155,-0.2155,-0.2155,-0.2155,-0.2155,-0.2155,-0.2289,-0.2694,-0.2811,-0.32,-0.387,-0.4388,-0.4758,-0.5274,-0.5891,-0.6253,-0.6327,-0.6699,-0.6905,0.8491,0.8616,0.9233,0.948,0.923,0.8854,0.8604,0.8607,0.8732,0.8735,0.8607,0.8607,0.8363,0.7994,0.8369,0.8741,0.8867,0.8867,0.8995,0.912,0.8119,0.7625,0.7627,0.763,0.763,0.763,0.7877,0.7755,0.7627,0.7141,0.6898,0.6655,0.653,0.6158,0.5786,0.6158,0.641,0.666,0.6412,0.6162,0.5778,0.597,0.6255,0.6516,0.6624,0.6612,0.6347,0.6109,0.5845,0.5434,0.5315,0.5058,0.4664,0.4594,0.4279,0.3938,0.3744,0.354,0.3198,0.2845,0.2626,0.242,0.2428,0.2197,0.1848,0.1853,0.1981,0.1989,0.1988,0.1874,0.1386,0.0634,-0.0,-0.0,-0.0,-0.0,-0.0,-0.0,-0.0,-0.0,-0.0,-0.0,-0.0,-0.0,-0.0,-0.0,-0.0539,-0.0943,-0.1481,-0.1751,-0.1885,-0.1885,-0.202,-0.2155,-0.2155,-0.2155,-0.2155,-0.2155,-0.2155,-0.2155,-0.229,-0.229,-0.2424,-0.2828,-0.3096,-0.3631,-0.4293,-0.4698,-0.5235,-0.59,-0.6527,-0.6861,-0.6688,-0.7175,-0.7413,0.8857,0.8854,0.8857,0.8604,0.7983,0.7983,0.7983,0.7994,0.8247,0.8244,0.7994,0.7997,0.7994,0.7872,0.7864,0.8233,0.8854,0.8857,0.861,0.8119,0.7248,0.7008,0.6898,0.6898,0.69,0.7023,0.7521,0.7521,0.6898,0.6285,0.5916,0.5919,0.5669,0.5297,0.5049,0.5054,0.5306,0.5802,0.5429,0.5058,0.4933,0.5051,0.5618,0.6504,0.6612,0.6334,0.6022,0.5528,0.5174,0.5174,0.4938,0.4579,0.434,0.4462,0.3998,0.3296,0.3536,0.356,0.3005,0.2409,0.2183,0.2456,0.2216,0.1727,0.1358,0.1608,0.1867,0.2016,0.1894,0.1392,-0.0,-0.0,-0.0,-0.0,-0.0,-0.0,-0.0,-0.0,-0.0,-0.0,-0.0,-0.0,-0.0,-0.0,-0.0,-0.0,-0.0,-0.0,-0.0404,-0.0808,-0.1077,-0.1346,-0.1751,-0.2155,-0.2155,-0.2155,-0.2155,-0.2155,-0.2155,-0.2155,-0.229,-0.2425,-0.2828,-0.3096,-0.3498,-0.4035,-0.4572,-0.5243,-0.5646,-0.6313,-0.6713,-0.6938,-0.7169,-0.7619,-0.7857,0.8119,0.8241,0.8238,0.8113,0.7867,0.7867,0.7867,0.7872,0.7997,0.7875,0.763,0.7755,0.7633,0.7263,0.7261,0.7627,0.8241,0.8244,0.8127,0.7758,0.6766,0.6274,0.628,0.6655,0.6778,0.6653,0.7028,0.6655,0.5665,0.5544,0.5671,0.58,0.5304,0.4807,0.4436,0.4685,0.5058,0.5183,0.5058,0.4687,0.4315,0.4685,0.5165,0.5504,0.5502,0.5489,0.5339,0.5092,0.4829,0.4661,0.4538,0.4282,0.4012,0.3685,0.3241,0.2544,0.2912,0.3163,0.2689,0.2205,0.1841,0.1603,0.1853,0.1854,0.1609,0.1121,0.1005,0.1646,0.1158,0.0389,-0.0,-0.0,-0.0,-0.0,-0.0,-0.0,-0.0,-0.0,-0.0,-0.0,-0.0,-0.0,-0.0,-0.0,-0.0,-0.0,-0.0,-0.0,-0.0,-0.0,-0.0,-0.0,-0.1346,-0.202,-0.1481,-0.202,-0.2155,-0.2155,-0.2155,-0.2155,-0.229,-0.2558,-0.2828,-0.3229,-0.3632,-0.4305,-0.4977,-0.5647,-0.6185,-0.6585,-0.6987,-0.7257,-0.7655,-0.8058,-0.8171,0.7596,0.7934,0.7934,0.791,0.7877,0.788,0.7758,0.763,0.763,0.7508,0.7266,0.7513,0.7268,0.6775,0.6405,0.6771,0.7508,0.7763,0.7638,0.7143,0.6276,0.5908,0.591,0.6405,0.6405,0.6283,0.6405,0.5665,0.4556,0.4805,0.5302,0.5554,0.4933,0.4315,0.4067,0.4318,0.4564,0.4566,0.4566,0.4316,0.3946,0.4318,0.4566,0.4564,0.4566,0.4689,0.4933,0.481,0.4666,0.4378,0.4127,0.3868,0.3596,0.3019,0.2439,0.2094,0.2466,0.2469,0.2098,0.1605,0.1359,0.1359,0.1236,0.136,0.1244,0.0502,0.0507,0.0898,-0.0,-0.0,-0.0,-0.0,-0.0,-0.0,-0.0,-0.0,-0.0,-0.0,-0.0,-0.0,-0.0,-0.0,-0.0,-0.0,-0.0,-0.0,-0.0,-0.0,-0.0,-0.0,-0.0,-0.0,-0.0,-0.1212,-0.1212,-0.1481,-0.202,-0.202,-0.2155,-0.2155,-0.2289,-0.2558,-0.2827,-0.3229,-0.3767,-0.4575,-0.5247,-0.6051,-0.6453,-0.6851,-0.7121,-0.7393,-0.7791,-0.8189,-0.8307,0.7399,0.782,0.7937,0.7873,0.7662,0.7662,0.7403,0.69,0.7025,0.69,0.6775,0.69,0.6775,0.6158,0.5414,0.5659,0.6778,0.7278,0.7028,0.6156,0.5908,0.579,0.5794,0.5916,0.5916,0.5916,0.5546,0.4558,0.3325,0.3944,0.4564,0.4687,0.4192,0.3821,0.3821,0.3825,0.395,0.395,0.395,0.395,0.395,0.395,0.395,0.395,0.395,0.4195,0.481,0.4562,0.4313,0.431,0.3819,0.333,0.3073,0.2461,0.2096,0.1973,0.1975,0.173,0.1112,0.0494,0.0741,0.1239,0.0742,-0.0,-0.0,-0.0,-0.0,-0.0,-0.0,-0.0,-0.0,-0.0,-0.0,-0.0,-0.0,-0.0,-0.0,-0.0,-0.0,-0.0,-0.0,-0.0,-0.0,-0.0,-0.0,-0.0,-0.0,-0.0,-0.0,-0.0,-0.0,-0.0,-0.0,-0.0539,-0.0808,-0.1077,-0.1481,-0.1885,-0.1885,-0.202,-0.2289,-0.2558,-0.2827,-0.3228,-0.4035,-0.4844,-0.5379,-0.6051,-0.6453,-0.6853,-0.7125,-0.7526,-0.7791,-0.8058,-0.8189,0.7065,0.7419,0.7803,0.735,0.6625,0.6498,0.6087,0.5536,0.5659,0.5661,0.5914,0.6537,0.6414,0.5425,0.4558,0.4681,0.5548,0.5796,0.5794,0.5792,0.5423,0.5177,0.5179,0.5179,0.5427,0.5677,0.4812,0.3947,0.3207,0.3577,0.3702,0.3577,0.3453,0.333,0.333,0.3331,0.3455,0.3826,0.3579,0.3455,0.3331,0.3455,0.3455,0.3331,0.3331,0.3331,0.3577,0.3702,0.3825,0.3825,0.3331,0.3085,0.2961,0.2345,0.1976,0.1976,0.1977,0.1977,0.1606,-0.0,-0.0,-0.0,-0.0,-0.0,-0.0,-0.0,-0.0,-0.0,-0.0,-0.0,-0.0,-0.0,-0.0,-0.0,-0.0,-0.0,-0.0,-0.0,-0.0,-0.0,-0.0,-0.0,-0.0,-0.0,-0.0,-0.0,-0.0,-0.0,-0.0,-0.0,-0.0,-0.0,-0.0,-0.0,-0.0,-0.0,-0.0943,-0.1346,-0.1616,-0.1751,-0.2019,-0.2424,-0.2826,-0.3363,-0.4305,-0.4977,-0.5513,-0.6049,-0.6317,-0.6719,-0.6987,-0.7257,-0.7524,-0.7658,-0.7925,0.6526,0.7013,0.7276,0.6954,0.609,0.5932,0.5507,0.496,0.4685,0.4802,0.53,0.5923,0.555,0.4562,0.382,0.3946,0.4441,0.4566,0.4689,0.5056,0.4808,0.4562,0.4562,0.481,0.5058,0.5306,0.4442,0.3577,0.3083,0.3085,0.2962,0.2716,0.2715,0.2714,0.2714,0.2837,0.3208,0.3455,0.3455,0.3085,0.2837,0.2837,0.3083,0.296,0.296,0.296,0.296,0.3085,0.3208,0.3208,0.3085,0.2961,0.2592,0.1729,0.1235,0.1359,0.173,0.1853,0.1236,-0.0,-0.0,-0.0,-0.0,-0.0,-0.0,-0.0,-0.0,-0.0,-0.0,-0.0,-0.0,-0.0,-0.0,-0.0,-0.0,-0.0,-0.0,-0.0,-0.0,-0.0,-0.0,-0.0,-0.0,-0.0,-0.0,-0.0,-0.0,-0.0,-0.0,-0.0,-0.0,-0.0,-0.0,-0.0,-0.0,-0.0,-0.0,-0.0808,-0.1212,-0.1346,-0.1616,-0.2289,-0.2693,-0.3498,-0.4305,-0.4977,-0.5513,-0.5914,-0.6317,-0.6583,-0.6853,-0.7121,-0.7254,-0.7526,-0.766,0.5872,0.6471,0.6466,0.6412,0.619,0.5849,0.5299,0.4646,0.4091,0.4192,0.4687,0.4935,0.4564,0.3821,0.3203,0.3329,0.3826,0.3826,0.3825,0.3825,0.3699,0.3698,0.3946,0.4316,0.4687,0.4687,0.4069,0.3453,0.2837,0.2714,0.2345,0.2099,0.2345,0.2343,0.2221,0.259,0.2838,0.2961,0.3085,0.2715,0.2097,0.2344,0.2714,0.2838,0.2838,0.2838,0.2838,0.2591,0.259,0.2837,0.2838,0.2592,0.1976,0.0741,-0.0,-0.0,0.1235,0.1114,-0.0,-0.0,-0.0,-0.0,-0.0,-0.0,-0.0,-0.0,-0.0,-0.0,-0.0,-0.0,-0.0,-0.0,-0.0,-0.0,-0.0,-0.0,-0.0,-0.0,-0.0,-0.0,-0.0,-0.0,-0.0,-0.0,-0.0,-0.0,-0.0,-0.0,-0.0,-0.0,-0.0,-0.0,-0.0,-0.0,-0.0,-0.0,-0.0943,-0.1212,-0.1481,-0.1481,-0.1616,-0.2155,-0.2693,-0.3499,-0.417,-0.4841,-0.5379,-0.5781,-0.6183,-0.6451,-0.6719,-0.6853,-0.6987,-0.7125,-0.7259,0.5505,0.5754,0.5754,0.544,0.4968,0.4767,0.4326,0.3525,0.3348,0.3329,0.3577,0.395,0.3825,0.3206,0.2589,0.259,0.3085,0.3209,0.296,0.259,0.2466,0.2836,0.3207,0.3453,0.3701,0.4071,0.3577,0.296,0.2343,0.2466,0.2346,0.1977,0.2099,0.2099,0.2099,0.2099,0.2223,0.2222,0.2346,0.2223,0.1976,0.2099,0.2222,0.2223,0.2223,0.2223,0.2223,0.1729,0.1729,0.2222,0.2223,0.2223,0.1853,-0.0,-0.0,-0.0,-0.0,-0.0,-0.0,-0.0,-0.0,-0.0,-0.0,-0.0,-0.0,-0.0,-0.0,-0.0,-0.0,-0.0,-0.0,-0.0,-0.0,-0.0,-0.0,-0.0,-0.0,-0.0,-0.0,-0.0,-0.0,-0.0,-0.0,-0.0,-0.0,-0.0,-0.0,-0.0,-0.0,-0.0,-0.0,-0.0,-0.0,-0.0,-0.0,-0.0,-0.1751,-0.1885,-0.202,-0.202,-0.202,-0.2425,-0.2828,-0.3229,-0.3901,-0.4574,-0.5111,-0.5647,-0.6051,-0.6319,-0.6453,-0.6585,-0.6587,-0.6721,-0.6721,0.4708,0.4978,0.4978,0.4686,0.4374,0.4291,0.3848,0.3045,0.2737,0.2712,0.3083,0.3331,0.3208,0.2714,0.222,0.2221,0.2591,0.2592,0.2345,0.2098,0.2098,0.2468,0.2838,0.296,0.3208,0.3455,0.296,0.259,0.2098,0.2221,0.2223,0.21,0.1977,0.173,0.1112,0.1483,0.173,0.1977,0.1977,0.173,0.1235,0.1482,0.1606,0.1606,0.1606,0.173,0.1853,0.1606,0.1606,0.1977,0.1977,0.173,0.1112,0.0494,-0.0,-0.0,-0.0,-0.0,-0.0,-0.0,-0.0,-0.0,-0.0,-0.0,-0.0,-0.0,-0.0,-0.0,-0.0,-0.0,-0.0,-0.0,-0.0,-0.0,-0.0,-0.0,-0.0,-0.0,-0.0,-0.0,-0.0,-0.0,-0.0,-0.0,-0.0,-0.0,-0.0,-0.0,-0.0,-0.0,-0.0,-0.0,-0.0,-0.0,-0.0,-0.0,-0.1481,-0.1885,-0.2155,-0.2155,-0.229,-0.2425,-0.2827,-0.3229,-0.3768,-0.4305,-0.4977,-0.5379,-0.5513,-0.5647,-0.5917,-0.6185,-0.6185,-0.6319,-0.6319,0.3632,0.4171,0.4166,0.4164,0.4007,0.4044,0.3469,0.2815,0.2247,0.2343,0.2715,0.2839,0.2715,0.2468,0.2097,0.1975,0.1976,0.21,0.21,0.1977,0.21,0.2346,0.2715,0.2716,0.2838,0.2838,0.259,0.2346,0.2099,0.1976,0.1977,0.1977,0.1977,0.1235,0.0494,0.0618,0.1235,0.1483,0.1606,0.1112,0.0494,0.0618,0.0865,0.0865,0.0865,0.1359,0.1853,0.1977,0.1853,0.173,0.1853,0.1112,-0.0,-0.0,-0.0,-0.0,-0.0,-0.0,-0.0,-0.0,-0.0,-0.0,-0.0,-0.0,-0.0,-0.0,-0.0,-0.0,-0.0,-0.0,-0.0,-0.0,-0.0,-0.0,-0.0,-0.0,-0.0,-0.0,-0.0,-0.0,-0.0,-0.0,-0.0,-0.0,-0.0,-0.0,-0.0,-0.0,-0.0,-0.0,-0.0,-0.0,-0.0,-0.0,-0.0,-0.0,-0.1077,-0.1481,-0.202,-0.2155,-0.229,-0.2424,-0.2828,-0.3096,-0.3498,-0.4035,-0.4707,-0.4975,-0.5109,-0.5379,-0.5649,-0.5781,-0.578,-0.5781,-0.5915,0.3228,0.3495,0.346,0.3179,0.2636,0.2697,0.2536,0.2279,0.2114,0.2098,0.2222,0.2223,0.2223,0.2099,0.2099,0.1976,0.1977,0.1977,0.1977,0.1977,0.1977,0.21,0.2223,0.2224,0.2223,0.2223,0.2223,0.2099,0.1977,0.1977,0.1977,0.1977,0.1483,0.0865,0.0247,-0.0,-0.0,-0.0,-0.0,-0.0,-0.0,-0.0,-0.0,-0.0,-0.0,0.0865,0.173,0.1977,0.1483,-0.0,-0.0,-0.0,-0.0,-0.0,-0.0,-0.0,-0.0,-0.0,-0.0,-0.0,-0.0,-0.0,-0.0,-0.0,-0.0,-0.0,-0.0,-0.0,-0.0,-0.0,-0.0,-0.0,-0.0,-0.0,-0.0,-0.0,-0.0,-0.0,-0.0,-0.0,-0.0,-0.0,-0.0,-0.0,-0.0,-0.0,-0.0,-0.0,-0.0,-0.0,-0.0,-0.0,-0.0,-0.0,-0.0,-0.0673,-0.1212,-0.1616,-0.202,-0.2155,-0.229,-0.2289,-0.2692,-0.296,-0.3228,-0.39,-0.4571,-0.4707,-0.4841,-0.5111,-0.5381,-0.5379,-0.5379,-0.5513,-0.5647,0.2638,0.2768,0.275,0.248,0.2081,0.2167,0.2018,0.2012,0.1988,0.1975,0.1976,0.1977,0.1977,0.1977,0.1977,0.1977,0.1977,0.1977,0.1977,0.1977,0.1977,0.1977,0.1977,0.1977,0.1977,0.1977,0.1977,0.1977,0.1977,0.1977,0.1977,0.1977,0.1359,0.0741,-0.0,-0.0,-0.0,-0.0,-0.0,-0.0,-0.0,-0.0,-0.0,-0.0,-0.0,0.0371,0.0988,0.0988,0.0618,-0.0,-0.0,-0.0,-0.0,-0.0,-0.0,-0.0,-0.0,-0.0,-0.0,-0.0,-0.0,-0.0,-0.0,-0.0,-0.0,-0.0,-0.0,-0.0,-0.0,-0.0,-0.0,-0.0,-0.0,-0.0,-0.0,-0.0,-0.0,-0.0,-0.0,-0.0,-0.0,-0.0,-0.0,-0.0,-0.0,-0.0,-0.0,-0.0,-0.0,-0.0,-0.0,-0.0,-0.0,-0.0,-0.0,-0.0673,-0.1346,-0.1751,-0.202,-0.2155,-0.2155,-0.2289,-0.2423,-0.2826,-0.3228,-0.3632,-0.417,-0.4438,-0.4572,-0.4708,-0.4844,-0.4978,-0.5111,-0.5111,-0.5377,0.2065,0.2192,0.2188,0.2057,0.2052,0.2024,0.201,0.2007,0.1987,0.1977,0.1977,0.1977,0.1977,0.1977,0.1977,0.1977,0.1977,0.1977,0.1977,0.1977,0.1977,0.1977,0.1977,0.1977,0.1977,0.1977,0.1977,0.1977,0.1977,0.1977,0.1977,0.1853,0.1359,0.0618,-0.0,-0.0,-0.0,-0.0,-0.0,-0.0,-0.0,-0.0,-0.0,-0.0,-0.0,-0.0,-0.0,-0.0,-0.0,-0.0,-0.0,-0.0,-0.0,-0.0,-0.0,-0.0,-0.0,-0.0,-0.0,-0.0,-0.0,-0.0,-0.0,-0.0,-0.0,-0.0,-0.0,-0.0,-0.0,-0.0,-0.0,-0.0,-0.0,-0.0,-0.0,-0.0,-0.0,-0.0,-0.0,-0.0,-0.0,-0.0,-0.0,-0.0,-0.0,-0.0,-0.0,-0.0,-0.0,-0.0,-0.0,-0.0,-0.0,-0.0,-0.0,-0.0269,-0.1077,-0.1751,-0.2155,-0.2155,-0.2155,-0.2289,-0.2424,-0.2826,-0.3229,-0.3633,-0.3902,-0.4035,-0.4035,-0.4171,-0.4305,-0.444,-0.4574,-0.4707,-0.5109,0.2065,0.2062,0.2037,0.2026,0.2022,0.1996,0.1986,0.1984,0.1979,0.1977,0.1977,0.1977,0.1977,0.1977,0.1977,0.1977,0.1977,0.1977,0.1977,0.1977,0.1977,0.1977,0.1977,0.1977,0.1977,0.1977,0.1977,0.1977,0.1977,0.1977,0.1977,0.1853,0.1359,0.0741,-0.0,-0.0,-0.0,-0.0,-0.0,-0.0,-0.0,-0.0,-0.0,-0.0,-0.0,-0.0,-0.0,-0.0,-0.0,-0.0,-0.0,-0.0,-0.0,-0.0,-0.0,-0.0,-0.0,-0.0,-0.0,-0.0,-0.0,-0.0,-0.0,-0.0,-0.0,-0.0,-0.0,-0.0,-0.0,-0.0,-0.0,-0.0,-0.0,-0.0,-0.0,-0.0,-0.0,-0.0,-0.0,-0.0,-0.0,-0.0,-0.0,-0.0,-0.0,-0.0,-0.0,-0.0,-0.0,-0.0,-0.0,-0.0,-0.0,-0.0,-0.0,-0.0,-0.0539,-0.1481,-0.1885,-0.2155,-0.2155,-0.2155,-0.2424,-0.2692,-0.2961,-0.3231,-0.3365,-0.3632,-0.3632,-0.3632,-0.3767,-0.3902,-0.4171,-0.4438,-0.4842,0.2018,0.2018,0.2003,0.1997,0.1994,0.1983,0.1977,0.1977,0.1977,0.1977,0.1977,0.1977,0.1977,0.1977,0.1977,0.1977,0.1977,0.1977,0.1977,0.1977,0.1977,0.1977,0.1977,0.1977,0.1977,0.1977,0.1977,0.1977,0.1977,0.1977,0.1977,0.1977,0.1606,0.0988,-0.0,-0.0,-0.0,-0.0,-0.0,-0.0,-0.0,-0.0,-0.0,-0.0,-0.0,-0.0,-0.0,-0.0,-0.0,-0.0,-0.0,-0.0,-0.0,-0.0,-0.0,-0.0,-0.0,-0.0,-0.0,-0.0,-0.0,-0.0,-0.0,-0.0,-0.0,-0.0,-0.0,-0.0,-0.0,-0.0,-0.0,-0.0,-0.0,-0.0,-0.0,-0.0,-0.0,-0.0,-0.0,-0.0,-0.0,-0.0,-0.0,-0.0,-0.0,-0.0,-0.0,-0.0,-0.0,-0.0,-0.0,-0.0,-0.0,-0.0,-0.0,-0.0,-0.0,-0.0,-0.1481,-0.1751,-0.202,-0.202,-0.2155,-0.2423,-0.2693,-0.2828,-0.3096,-0.3363,-0.3228,-0.3228,-0.3498,-0.3768,-0.3902,-0.4171,-0.4708,0.1977,0.1977,0.1977,0.1977,0.1977,0.1977,0.1977,0.1977,0.1977,0.1977,0.1977,0.1977,0.1977,0.1977,0.1977,0.1977,0.1977,0.1977,0.1977,0.1977,0.1977,0.1977,0.1977,0.1977,0.1977,0.1977,0.1977,0.1977,0.1977,0.1977,0.1977,0.1853,0.1853,0.1359,-0.0,-0.0,-0.0,-0.0,-0.0,-0.0,-0.0,-0.0,-0.0,-0.0,-0.0,-0.0,-0.0,-0.0,-0.0,-0.0,-0.0,-0.0,-0.0,-0.0,-0.0,-0.0,-0.0,-0.0,-0.0,-0.0,-0.0,-0.0,-0.0,-0.0,-0.0,-0.0,-0.0,-0.0,-0.0,-0.0,-0.0,-0.0,-0.0,-0.0,-0.0,-0.0,-0.0,-0.0,-0.0,-0.0,-0.0,-0.0,-0.0,-0.0,-0.0,-0.0,-0.0,-0.0,-0.0,-0.0,-0.0,-0.0,-0.0,-0.0,-0.0,-0.0,-0.0,-0.0,-0.0,-0.0943,-0.1346,-0.1751,-0.1885,-0.2154,-0.2424,-0.2693,-0.2961,-0.3095,-0.2826,-0.296,-0.3365,-0.3633,-0.3632,-0.4037,-0.4575,0.1977,0.1977,0.1977,0.1977,0.1977,0.1977,0.1977,0.1977,0.1977,0.1977,0.1977,0.1977,0.1977,0.1977,0.1977,0.1977,0.1977,0.1977,0.1977,0.1977,0.1977,0.1977,0.1977,0.1977,0.1977,0.1977,0.1977,0.1977,0.1977,0.1977,0.173,0.1482,0.1606,0.1359,-0.0,-0.0,-0.0,-0.0,-0.0,-0.0,-0.0,-0.0,-0.0,-0.0,-0.0,-0.0,-0.0,-0.0,-0.0,-0.0,-0.0,-0.0,-0.0,-0.0,-0.0,-0.0,-0.0,-0.0,-0.0,-0.0,-0.0,-0.0,-0.0,-0.0,-0.0,-0.0,-0.0,-0.0,-0.0,-0.0,-0.0,-0.0,-0.0,-0.0,-0.0,-0.0,-0.0,-0.0,-0.0,-0.0,-0.0,-0.0,-0.0,-0.0,-0.0,-0.0,-0.0,-0.0,-0.0,-0.0,-0.0,-0.0,-0.0,-0.0,-0.0,-0.0,-0.0,-0.0,-0.0,-0.0,-0.0673,-0.1077,-0.1616,-0.1885,-0.2155,-0.2425,-0.2693,-0.2693,-0.2423,-0.2692,-0.3096,-0.3229,-0.3228,-0.3767,-0.4577,0.1977,0.1977,0.1977,0.1977,0.1977,0.1977,0.1977,0.1977,0.1977,0.1977,0.1977,0.1977,0.1977,0.1977,0.1977,0.1977,0.1977,0.1977,0.1977,0.1977,0.1977,0.1977,0.1977,0.1977,0.1977,0.1977,0.1977,0.1977,0.1977,0.1977,0.1853,0.1606,0.1112,0.0618,-0.0,-0.0,-0.0,-0.0,-0.0,-0.0,-0.0,-0.0,-0.0,-0.0,-0.0,-0.0,-0.0,-0.0,-0.0,-0.0,-0.0,-0.0,-0.0,-0.0,-0.0,-0.0,-0.0,-0.0,-0.0,-0.0,-0.0,-0.0,-0.0,-0.0,-0.0,-0.0,-0.0,-0.0,-0.0,-0.0,-0.0,-0.0,-0.0,-0.0,-0.0,-0.0,-0.0,-0.0,-0.0,-0.0,-0.0,-0.0,-0.0,-0.0,-0.0,-0.0,-0.0,-0.0,-0.0,-0.0,-0.0,-0.0,-0.0,-0.0,-0.0,-0.0,-0.0,-0.0,-0.0,-0.0,-0.0,-0.0539,-0.0943,-0.1481,-0.1885,-0.2155,-0.2559,-0.2559,-0.2424,-0.2558,-0.2827,-0.3095,-0.3362,-0.3901,-0.4575,0.1977,0.1977,0.1977,0.1977,0.1977,0.1977,0.1977,0.1977,0.1977,0.1977,0.1977,0.1977,0.1977,0.1977,0.1977,0.1977,0.1977,0.1977,0.1977,0.1977,0.1977,0.1977,0.1977,0.1977,0.1977,0.1977,0.1977,0.1977,0.1977,0.1977,0.1977,0.1977,0.0741,-0.0,-0.0,-0.0,-0.0,-0.0,-0.0,-0.0,-0.0,-0.0,-0.0,-0.0,-0.0,-0.0,-0.0,-0.0,-0.0,-0.0,-0.0,-0.0,-0.0,-0.0,-0.0,-0.0,-0.0,-0.0,-0.0,-0.0,-0.0,-0.0,-0.0,-0.0,-0.0,-0.0,-0.0,-0.0,-0.0,-0.0,-0.0,-0.0,-0.0,-0.0,-0.0,-0.0,-0.0,-0.0,-0.0,-0.0,-0.0,-0.0,-0.0,-0.0,-0.0,-0.0,-0.0,-0.0,-0.0,-0.0,-0.0,-0.0,-0.0,-0.0,-0.0,-0.0,-0.0,-0.0,-0.0,-0.0,-0.0,-0.0,-0.0404,-0.0943,-0.1616,-0.229,-0.2694,-0.2559,-0.2425,-0.2827,-0.3095,-0.3363,-0.3767,-0.4171,-0.444,0.1977,0.1977,0.1977,0.1977,0.1977,0.1977,0.1977,0.1977,0.1977,0.1977,0.1977,0.1977,0.1977,0.1977,0.1977,0.1977,0.1977,0.1977,0.1977,0.1977,0.1977,0.1977,0.1977,0.1977,0.1977,0.1977,0.1977,0.1977,0.1977,0.1977,0.1977,0.1853,0.0618,-0.0,-0.0,-0.0,-0.0,-0.0,-0.0,-0.0,-0.0,-0.0,-0.0,-0.0,-0.0,-0.0,-0.0,-0.0,-0.0,-0.0,-0.0,-0.0,-0.0,-0.0,-0.0,-0.0,-0.0,-0.0,-0.0,-0.0,-0.0,-0.0,-0.0,-0.0,-0.0,-0.0,-0.0,-0.0,-0.0,-0.0,-0.0,-0.0,-0.0,-0.0,-0.0,-0.0,-0.0,-0.0,-0.0,-0.0,-0.0,-0.0,-0.0,-0.0,-0.0,-0.0,-0.0,-0.0,-0.0,-0.0,-0.0,-0.0,-0.0,-0.0,-0.0,-0.0,-0.0,-0.0,-0.0,-0.0,-0.0,-0.0,-0.0,-0.0539,-0.1212,-0.202,-0.2694,-0.2693,-0.2827,-0.3095,-0.3362,-0.3632,-0.3901,-0.417,-0.4438,0.1977,0.1977,0.1977,0.1977,0.1977,0.1977,0.1977,0.1977,0.1977,0.1977,0.1977,0.1977,0.1977,0.1977,0.1977,0.1977,0.1977,0.1977,0.1977,0.1977,0.1977,0.1977,0.1977,0.1977,0.1977,0.1977,0.1977,0.1977,0.1977,0.1853,0.1359,0.0865,-0.0,-0.0,-0.0,-0.0,-0.0,-0.0,-0.0,-0.0,-0.0,-0.0,-0.0,-0.0,-0.0,-0.0,-0.0,-0.0,-0.0,-0.0,-0.0,-0.0,-0.0,-0.0,-0.0,-0.0,-0.0,-0.0,-0.0,-0.0,-0.0,-0.0,-0.0,-0.0,-0.0,-0.0,-0.0,-0.0,-0.0,-0.0,-0.0,-0.0,-0.0,-0.0,-0.0,-0.0,-0.0,-0.0,-0.0,-0.0,-0.0,-0.0,-0.0,-0.0,-0.0,-0.0,-0.0,-0.0,-0.0,-0.0,-0.0,-0.0,-0.0,-0.0,-0.0,-0.0,-0.0,-0.0,-0.0,-0.0,-0.0,-0.0,-0.0,-0.0,-0.0808,-0.175,-0.2424,-0.2827,-0.3096,-0.3498,-0.3632,-0.3901,-0.4035,-0.417,-0.4304,0.1977,0.1977,0.1977,0.1977,0.1977,0.1977,0.1977,0.1977,0.1977,0.1977,0.1977,0.1977,0.1977,0.1977,0.1977,0.1977,0.1977,0.1977,0.1977,0.1977,0.1977,0.1977,0.1977,0.1977,0.1977,0.1977,0.1977,0.1977,0.1235,0.1359,0.0865,-0.0,-0.0,-0.0,-0.0,-0.0,-0.0,-0.0,-0.0,-0.0,-0.0,-0.0,-0.0,-0.0,-0.0,-0.0,-0.0,-0.0,-0.0,-0.0,-0.0,-0.0,-0.0,-0.0,-0.0,-0.0,-0.0,-0.0,-0.0,-0.0,-0.0,-0.0,-0.0,-0.0,-0.0,-0.0,-0.0,-0.0,-0.0,-0.0,-0.0,-0.0,-0.0,-0.0,-0.0,-0.0,-0.0,-0.0,-0.0,-0.0,-0.0,-0.0,-0.0,-0.0,-0.0,-0.0,-0.0,-0.0,-0.0,-0.0,-0.0,-0.0,-0.0,-0.0,-0.0,-0.0,-0.0,-0.0,-0.0,-0.0,-0.0,-0.0,-0.0,-0.0,-0.0673,-0.1481,-0.2153,-0.2692,-0.3365,-0.3902,-0.3902,-0.3901,-0.3632,-0.3765,-0.3767,0.1977,0.1977,0.1977,0.1977,0.1977,0.1977,0.1977,0.1977,0.1977,0.1977,0.1977,0.1977,0.1977,0.1977,0.1977,0.1977,0.1977,0.1977,0.1977,0.1977,0.1977,0.1977,0.1977,0.1977,0.1977,0.1977,0.1853,0.1235,0.0371,0.0371,0.0124,-0.0,-0.0,-0.0,-0.0,-0.0,-0.0,-0.0,-0.0,-0.0,-0.0,-0.0,-0.0,-0.0,-0.0,-0.0,-0.0,-0.0,-0.0,-0.0,-0.0,-0.0,-0.0,-0.0,-0.0,-0.0,-0.0,-0.0,-0.0,-0.0,-0.0,-0.0,-0.0,-0.0,-0.0,-0.0,-0.0,-0.0,-0.0,-0.0,-0.0,-0.0,-0.0,-0.0,-0.0,-0.0,-0.0,-0.0,-0.0,-0.0,-0.0,-0.0,-0.0,-0.0,-0.0,-0.0,-0.0,-0.0,-0.0,-0.0,-0.0,-0.0,-0.0,-0.0,-0.0,-0.0,-0.0,-0.0,-0.0,-0.0,-0.0,-0.0,-0.0,-0.0,-0.0808,-0.175,-0.2289,-0.2691,-0.3229,-0.3767,-0.3767,-0.3632,-0.3362,-0.3228,-0.3363,0.1977,0.1977,0.1977,0.1977,0.1977,0.1977,0.1977,0.1977,0.1977,0.1977,0.1977,0.1977,0.1977,0.1977,0.1977,0.1977,0.1977,0.1977,0.1977,0.1977,0.1977,0.1977,0.1977,0.1977,0.1977,0.1853,0.1606,0.1606,0.1482,0.0494,-0.0,-0.0,-0.0,-0.0,-0.0,-0.0,-0.0,-0.0,-0.0,-0.0,-0.0,-0.0,-0.0,-0.0,-0.0,-0.0,-0.0,-0.0,-0.0,-0.0,-0.0,-0.0,-0.0,-0.0,-0.0,-0.0,-0.0,-0.0,-0.0,-0.0,-0.0,-0.0,-0.0,-0.0,-0.0,-0.0,-0.0,-0.0,-0.0,-0.0,-0.0,-0.0,-0.0,-0.0,-0.0,-0.0,-0.0,-0.0,-0.0,-0.0,-0.0,-0.0,-0.0,-0.0,-0.0,-0.0,-0.0,-0.0,-0.0,-0.0,-0.0,-0.0,-0.0,-0.0,-0.0,-0.0,-0.0,-0.0,-0.0,-0.0,-0.0,-0.0,-0.0,-0.0,-0.0,-0.1885,-0.2289,-0.2692,-0.3229,-0.3497,-0.3498,-0.3363,-0.3228,-0.3095,-0.3096,0.1977,0.1977,0.1977,0.1977,0.1977,0.1977,0.1977,0.1977,0.1977,0.1977,0.1977,0.1977,0.1977,0.1977,0.1977,0.1977,0.1977,0.1977,0.1977,0.1977,0.1977,0.1977,0.1977,0.1977,0.1977,0.1853,0.1606,0.1482,0.0988,0.0371,-0.0,-0.0,-0.0,-0.0,-0.0,-0.0,-0.0,-0.0,-0.0,-0.0,-0.0,-0.0,-0.0,-0.0,-0.0,-0.0,-0.0,-0.0,-0.0,-0.0,-0.0,-0.0,-0.0,-0.0,-0.0,-0.0,-0.0,-0.0,-0.0,-0.0,-0.0,-0.0,-0.0,-0.0,-0.0,-0.0,-0.0,-0.0,-0.0,-0.0,-0.0,-0.0,-0.0,-0.0,-0.0,-0.0,-0.0,-0.0,-0.0,-0.0,-0.0,-0.0,-0.0,-0.0,-0.0,-0.0,-0.0,-0.0,-0.0,-0.0,-0.0,-0.0,-0.0,-0.0,-0.0,-0.0,-0.0,-0.0,-0.0,-0.0,-0.0,-0.0,-0.0,-0.0,-0.0,-0.1616,-0.2154,-0.2692,-0.3096,-0.3096,-0.3096,-0.2961,-0.2826,-0.2827,-0.2693,0.1973,0.1974,0.1974,0.1971,0.1972,0.1971,0.1974,0.1977,0.1977,0.1977,0.1977,0.1977,0.1977,0.1977,0.1977,0.1977,0.1977,0.1977,0.1977,0.1977,0.1977,0.1977,0.1977,0.1977,0.1977,0.1977,0.1853,0.1235,-0.0,-0.0,-0.0,-0.0,-0.0,-0.0,-0.0,-0.0,-0.0,-0.0,-0.0,-0.0,-0.0,-0.0,-0.0,-0.0,-0.0,-0.0,-0.0,-0.0,-0.0,-0.0,-0.0,-0.0,-0.0,-0.0,-0.0,-0.0,-0.0,-0.0,-0.0,-0.0,-0.0,-0.0,-0.0,-0.0,-0.0,-0.0,-0.0,-0.0,-0.0,-0.0,-0.0,-0.0,-0.0,-0.0,-0.0,-0.0,-0.0,-0.0,-0.0,-0.0,-0.0,-0.0,-0.0,-0.0,-0.0,-0.0,-0.0,-0.0,-0.0,-0.0,-0.0,-0.0,-0.0,-0.0,-0.0,-0.0,-0.0,-0.0,-0.0,-0.0,-0.0,-0.0,-0.0,-0.0,-0.0,-0.1346,-0.202,-0.2424,-0.2694,-0.2694,-0.2828,-0.2693,-0.2558,-0.2423,-0.2424,0.1913,0.1911,0.2031,0.2031,0.2035,0.2056,0.1956,0.1975,0.1977,0.1977,0.1977,0.1977,0.1977,0.1977,0.1977,0.1977,0.1977,0.1977,0.1977,0.1977,0.1977,0.1977,0.1977,0.1977,0.1977,0.1977,0.173,-0.0,-0.0,-0.0,-0.0,-0.0,-0.0,-0.0,-0.0,-0.0,-0.0,-0.0,-0.0,-0.0,-0.0,-0.0,-0.0,-0.0,-0.0,-0.0,-0.0,-0.0,-0.0,-0.0,-0.0,-0.0,-0.0,-0.0,-0.0,-0.0,-0.0,-0.0,-0.0,-0.0,-0.0,-0.0,-0.0,-0.0,-0.0,-0.0,-0.0,-0.0,-0.0,-0.0,-0.0,-0.0,-0.0,-0.0,-0.0,-0.0,-0.0,-0.0,-0.0,-0.0,-0.0,-0.0,-0.0,-0.0,-0.0,-0.0,-0.0,-0.0,-0.0,-0.0,-0.0,-0.0,-0.0,-0.0,-0.0,-0.0,-0.0,-0.0,-0.0,-0.0,-0.0,-0.0,-0.0,-0.0,-0.0,-0.1212,-0.202,-0.2425,-0.2559,-0.2694,-0.2694,-0.2559,-0.229,-0.229,-0.2155,0.1885,0.1885,0.1885,0.1885,0.1889,0.1905,0.1925,0.1943,0.1965,0.1977,0.1977,0.1977,0.1977,0.1977,0.1977,0.1977,0.1977,0.1977,0.1977,0.1977,0.1977,0.1977,0.1977,0.1977,0.1977,0.1853,0.1359,-0.0,-0.0,-0.0,-0.0,-0.0,-0.0,-0.0,-0.0,-0.0,-0.0,-0.0,-0.0,-0.0,-0.0,-0.0,-0.0,-0.0,-0.0,-0.0,-0.0,-0.0,-0.0,-0.0,-0.0,-0.0,-0.0,-0.0,-0.0,-0.0,-0.0,-0.0,-0.0,-0.0,-0.0,-0.0,-0.0,-0.0,-0.0,-0.0,-0.0,-0.0,-0.0,-0.0,-0.0,-0.0,-0.0,-0.0,-0.0,-0.0,-0.0,-0.0,-0.0,-0.0,-0.0,-0.0,-0.0,-0.0,-0.0,-0.0,-0.0,-0.0,-0.0,-0.0,-0.0,-0.0,-0.0,-0.0,-0.0,-0.0,-0.0,-0.0,-0.0,-0.0,-0.0,-0.0,-0.0,-0.0,-0.0,-0.1077,-0.1751,-0.2155,-0.2425,-0.2559,-0.2559,-0.2425,-0.229,-0.229,-0.2155,0.1877,0.1876,0.1879,0.1876,0.1764,0.1882,0.1885,0.1892,0.1942,0.197,0.197,0.1972,0.1972,0.1975,0.1977,0.1977,0.1977,0.1977,0.1977,0.1977,0.1977,0.1977,0.1606,0.1977,0.173,0.1359,-0.0,-0.0,-0.0,-0.0,-0.0,-0.0,-0.0,-0.0,-0.0,-0.0,-0.0,-0.0,-0.0,-0.0,-0.0,-0.0,-0.0,-0.0,-0.0,-0.0,-0.0,-0.0,-0.0,-0.0,-0.0,-0.0,-0.0,-0.0,-0.0,-0.0,-0.0,-0.0,-0.0,-0.0,-0.0,-0.0,-0.0,-0.0,-0.0,-0.0,-0.0,-0.0,-0.0,-0.0,-0.0,-0.0,-0.0,-0.0,-0.0,-0.0,-0.0,-0.0,-0.0,-0.0,-0.0,-0.0,-0.0,-0.0,-0.0,-0.0,-0.0,-0.0,-0.0,-0.0,-0.0,-0.0,-0.0,-0.0,-0.0,-0.0,-0.0,-0.0,-0.0,-0.0,-0.0,-0.0,-0.0,-0.0,-0.0,-0.0,-0.1346,-0.1885,-0.2155,-0.229,-0.229,-0.229,-0.2155,-0.2155,-0.2155,0.1817,0.1817,0.1817,0.1829,0.185,0.1851,0.1864,0.1885,0.1899,0.192,0.1939,0.1943,0.1954,0.1968,0.1969,0.1969,0.1974,0.1971,0.1976,0.1853,0.1853,0.1359,0.0988,0.1359,0.1359,0.0618,-0.0,-0.0,-0.0,-0.0,-0.0,-0.0,-0.0,-0.0,-0.0,-0.0,-0.0,-0.0,-0.0,-0.0,-0.0,-0.0,-0.0,-0.0,-0.0,-0.0,-0.0,-0.0,-0.0,-0.0,-0.0,-0.0,-0.0,-0.0,-0.0,-0.0,-0.0,-0.0,-0.0,-0.0,-0.0,-0.0,-0.0,-0.0,-0.0,-0.0,-0.0,-0.0,-0.0,-0.0,-0.0,-0.0,-0.0,-0.0,-0.0,-0.0,-0.0,-0.0,-0.0,-0.0,-0.0,-0.0,-0.0,-0.0,-0.0,-0.0,-0.0,-0.0,-0.0,-0.0,-0.0,-0.0,-0.0,-0.0,-0.0,-0.0,-0.0,-0.0,-0.0,-0.0,-0.0,-0.0,-0.0,-0.0,-0.0,-0.0,-0.0,-0.1616,-0.1885,-0.202,-0.2155,-0.2155,-0.2155,-0.2155,-0.2155,0.1795,0.1795,0.1795,0.1804,0.1819,0.182,0.183,0.1844,0.1845,0.1863,0.1892,0.1905,0.1922,0.1937,0.1937,0.1949,0.1954,0.1956,0.1473,0.1233,-0.0,0.0618,-0.0,-0.0,0.0618,-0.0,-0.0,-0.0,-0.0,-0.0,-0.0,-0.0,-0.0,-0.0,-0.0,-0.0,-0.0,-0.0,-0.0,-0.0,-0.0,-0.0,-0.0,-0.0,-0.0,-0.0,-0.0,-0.0,-0.0,-0.0,-0.0,-0.0,-0.0,-0.0,-0.0,-0.0,-0.0,-0.0,-0.0,-0.0,-0.0,-0.0,-0.0,-0.0,-0.0,-0.0,-0.0,-0.0,-0.0,-0.0,-0.0,-0.0,-0.0,-0.0,-0.0,-0.0,-0.0,-0.0,-0.0,-0.0,-0.0,-0.0,-0.0,-0.0,-0.0,-0.0,-0.0,-0.0,-0.0,-0.0,-0.0,-0.0,-0.0,-0.0,-0.0,-0.0,-0.0,-0.0,-0.0,-0.0,-0.0,-0.0,-0.0,-0.0,-0.0,-0.0,-0.0,-0.0,-0.0,-0.202,-0.2155,-0.2155,-0.2155,-0.2155,-0.2155,0.1795,0.1795,0.1795,0.1795,0.1795,0.1795,0.1797,0.1797,0.1796,0.1811,0.1838,0.1979,0.1875,0.1885,0.1887,0.1905,0.1919,0.2044,0.1213,-0.0,-0.0,-0.0,-0.0,-0.0,-0.0,-0.0,-0.0,-0.0,-0.0,-0.0,-0.0,-0.0,-0.0,-0.0,-0.0,-0.0,-0.0,-0.0,-0.0,-0.0,-0.0,-0.0,-0.0,-0.0,-0.0,-0.0,-0.0,-0.0,-0.0,-0.0,-0.0,-0.0,-0.0,-0.0,-0.0,-0.0,-0.0,-0.0,-0.0,-0.0,-0.0,-0.0,-0.0,-0.0,-0.0,-0.0,-0.0,-0.0,-0.0,-0.0,-0.0,-0.0,-0.0,-0.0,-0.0,-0.0,-0.0,-0.0,-0.0,-0.0,-0.0,-0.0,-0.0,-0.0,-0.0,-0.0,-0.0,-0.0,-0.0,-0.0,-0.0,-0.0,-0.0,-0.0,-0.0,-0.0,-0.0,-0.0,-0.0,-0.0,-0.0,-0.0,-0.0,-0.0,-0.0,-0.0,-0.0,-0.0,-0.0,-0.0,-0.2155,-0.2155,-0.2155,-0.2155,-0.2155,0.1795,0.1795,0.1795,0.1795,0.1795,0.1795,0.1795,0.1795,0.1795,0.18,0.1806,0.1812,0.1835,0.1885,0.1885,0.1892,0.1891,0.1894,0.1184,-0.0,-0.0,-0.0,-0.0,-0.0,-0.0,-0.0,-0.0,-0.0,-0.0,-0.0,-0.0,-0.0,-0.0,-0.0,-0.0,-0.0,-0.0,-0.0,-0.0,-0.0,-0.0,-0.0,-0.0,-0.0,-0.0,-0.0,-0.0,-0.0,-0.0,-0.0,-0.0,-0.0,-0.0,-0.0,-0.0,-0.0,-0.0,-0.0,-0.0,-0.0,-0.0,-0.0,-0.0,-0.0,-0.0,-0.0,-0.0,-0.0,-0.0,-0.0,-0.0,-0.0,-0.0,-0.0,-0.0,-0.0,-0.0,-0.0,-0.0,-0.0,-0.0,-0.0,-0.0,-0.0,-0.0,-0.0,-0.0,-0.0,-0.0,-0.0,-0.0,-0.0,-0.0,-0.0,-0.0,-0.0,-0.0,-0.0,-0.0,-0.0,-0.0,-0.0,-0.0,-0.0,-0.0,-0.0,-0.0,-0.0,-0.0,-0.0943,-0.1751,-0.2155,-0.2155,-0.229,-0.229]},{"header":{"parameterUnit":"m.s-1","parameterCategory":1,"la1":31.0,"la2":29.5877,"lo1":-88.7671,"lo2":-86.6584,"dy":0.0162,"dx":0.0185,"nx":115,"ny":88,"refTime":"2024-06-25T06:00:00:Z","depth":0,"parameterNumber":3,"parameterNumberName":"V-component_of_WINDS"},"data":[0.0,0.0,0.0,0.0,0.0,0.0,0.0,0.0,0.0,0.0,0.0,0.0,0.0,0.0,0.0,0.0,0.0,0.0,0.0,0.0,0.0,0.0,0.0,0.0,0.0,0.0,0.0,0.0,0.0,0.0,0.0,0.0,0.0,0.0,0.0,0.0,0.0,0.0,0.0,0.0,0.0,0.0,0.0,0.0,0.0,0.0,0.0,0.0,0.0,0.0,0.0,0.0,0.0,0.0,0.0,0.0,0.0,0.0,0.0,0.0,0.0,0.0,0.0,0.0,0.0,0.0,0.0,0.0,0.0,0.0,0.0,0.0,0.0,0.0,0.0,0.0,0.0,0.0,0.0,0.0,0.0,0.0,0.0,0.0,0.0,0.0,0.0,0.0,0.0,0.0,0.0,0.0,0.0,0.0,0.0,0.0,0.0,0.0,0.0,0.0,0.0,0.0,0.0,0.0,0.0,0.0,0.0,0.0,0.0,0.0,0.0,0.0,0.0,0.0,0.0,0.0,0.0,0.0,0.0,0.0,0.0,0.0,0.0,0.0,0.0,0.0,0.0,0.0,0.0,0.0,0.0,0.0,0.0,0.0,0.0,0.0,0.0,0.0,0.0,0.0,0.0,0.0,0.0,0.0,0.0,0.0,0.0,0.0,0.0,0.0,0.0,0.0,0.0,0.0,0.0,0.0,0.0,0.0,0.0,0.0,0.0,0.0,0.0,0.0,0.0,0.0,0.0,0.0,0.0,0.0,0.0,0.0,0.0,0.0,0.0,0.0,0.0,0.0,0.0,0.0,0.0,0.0,0.0,0.0,0.0,0.0,0.0,0.0,0.0,0.0,0.0,0.0,0.0,0.0,0.0,0.0,0.0,0.0,0.0,0.0,0.0,0.0,0.0,0.0,0.0,0.0,0.0,0.0,0.0,0.0,0.0,0.0,0.0,0.0,0.0,0.0,0.0,0.0,0.0,0.0,0.0,0.0,0.0,0.0,0.0,0.0,0.0,0.0,0.0,0.0,0.0,0.0,0.0,0.0,0.0,0.0,0.0,0.0,0.0,0.0,0.0,0.0,0.0,0.0,0.0,0.0,0.0,0.0,0.0,0.0,0.0,0.0,0.0,0.0,0.0,0.0,0.0,0.0,0.0,0.0,0.0,0.0,0.0,0.0,0.0,0.0,0.0,0.0,0.0,0.0,0.0,0.0,0.0,0.0,0.0,0.0,0.0,0.0,0.0,0.0,0.0,0.0,0.0,0.0,0.0,0.0,0.0,0.0,0.0,0.0,0.0,0.0,0.0,0.0,0.0,0.0,0.0,0.0,0.0,0.0,0.0,0.0,0.0,0.0,0.0,0.0,0.0,0.0,0.0,0.0,0.0,0.0,0.0,0.0,0.0,0.0,0.0,0.0,0.0,0.0,0.0,0.0,0.0,0.0,0.0,0.0,0.0,0.0,0.0,0.0,0.0,0.0,0.0,0.0,0.0,0.0,0.0,0.0,0.0,0.0,0.0,0.0,0.0,0.0,0.0,0.0,0.0,0.0,0.0,0.0,0.0,0.0,0.0,0.0,0.0,0.0,0.0,0.0,0.0,0.0,0.0,0.0,0.0,0.0,0.0,0.0,0.0,0.0,0.0,0.0,0.0,0.0,0.0,0.0,0.0,0.0,0.0,0.0,0.0,0.0,0.0,0.0,0.0,0.0,0.0,0.0,0.0,0.0,0.0,0.0,0.0,0.0,0.0,0.0,0.0,0.0,0.0,0.0,0.0,0.0,0.0,0.0,0.0,0.0,0.0,0.0,0.0,0.0,0.0,0.0,0.0,0.0,0.0,0.0,0.0,0.0,0.0,0.0,0.0,0.0,0.0,0.0,0.0,0.0,0.0,0.0,0.0,0.0,0.0,0.0,0.0,0.0,0.0,0.0,0.0,0.0,0.0,0.0,0.0,0.0,0.0,0.0,0.0,0.0,0.0,0.0,0.0,0.0,0.0,0.0,0.0,0.0,0.0,0.0,0.0,0.0,0.0,0.0,0.0,0.0,0.0,0.0,0.0,0.0,0.0,0.0,0.0,0.0,0.0,0.0,0.0,0.0,0.0,0.0,0.0,0.0,0.0,0.0,0.0,0.0,0.0,0.0,0.0,0.0,0.0,0.0,0.0,0.0,0.0,0.0,0.0,0.0,0.0,0.0,0.0,0.0,0.0,0.0,0.0,0.0,0.0,0.0,0.0,0.0,0.0,0.0,0.0,0.0,0.0,0.0,0.0,0.0,0.0,0.0,0.0,0.0,0.0,0.0,0.0,0.0,0.0,0.0,0.0,0.0,0.0,0.0,0.0,0.0,0.0,0.0,0.0,0.0,0.0,0.0,0.0,0.0,0.0,0.0,0.0,0.0,0.0,0.0,0.0,0.0,0.0,0.0,0.0,0.0,0.0,0.0,0.0,0.0,0.0,0.0,0.0,0.0,0.0,0.0,0.0,0.0,0.0,0.0,0.0,0.0,0.0,0.0,0.0,0.0,0.0,0.0,0.0,0.0,0.0,0.0,0.0,0.0,0.0,0.0,0.0,0.0,0.0,0.0,0.0,0.0,0.0,0.0,0.0,0.0,0.0,0.0,0.0,0.0,0.0,0.0,0.0,0.0,0.0,0.0,0.0,0.0,0.0,0.0,0.0,0.0,0.0,0.0,0.0,0.0,0.0,0.0,0.0,0.0,0.0,0.0,0.0,0.0,0.0,0.0,0.0,0.0,0.0,0.0,0.0,0.0,0.0,0.0,0.0,0.0,0.0,0.0,0.0,0.0,0.0,0.0,0.0,0.0,0.0,0.0,0.0,0.0,0.0,0.0,0.0,0.0,0.0,0.0,0.0,0.0,0.0,0.0,0.0,0.0,0.0,0.0,0.0,0.0,0.0,0.0,0.0,0.0,0.0,0.0,0.0,0.0,0.0,0.0,0.0,0.0,0.0,0.0,0.0,0.0,0.0,0.0,0.0,0.0,0.0,0.0,0.0,0.0,0.0,0.0,0.0,0.0,0.0,0.0,0.0,0.0,0.0,0.0,0.0,0.0,0.0,0.0,0.0,0.0,0.0,0.0,0.0,0.0,0.0,0.0,0.0,0.0,0.0,0.0,0.0,0.0,0.0,0.0,0.0,0.0,0.0,0.0,0.0,0.0,0.0,0.0,0.0,0.0,0.0,0.0,0.0,0.0,0.0,0.0,0.0,0.0,0.0,0.0,0.0,0.0,0.0,0.0,0.0,0.0,0.0,0.0,0.0,0.0,0.0,0.0,0.0,0.0,0.0,0.0,0.0,0.0,0.0,0.0,0.0,0.0,0.0,0.0,0.0,0.0,0.0,0.0,0.0,0.0,0.0,0.0,0.0,0.0,0.0,0.0,0.0,0.0,0.0,0.0,0.0,0.0,0.0,0.0,0.0,0.0,0.0,0.0,0.0,0.0,0.0,0.0,0.0,0.0,0.0,0.0,0.0,0.0,0.0,0.0,0.0,0.0,0.0,0.0,0.0,0.0,0.0,0.0,0.0,0.0,0.0,0.0,0.0,0.0,0.0,0.0,0.0,0.0,0.0,0.0,0.0,0.0,0.0,0.0,0.0,0.0,0.0,0.0,0.0,0.0,0.0,0.0,0.0,0.0,0.0,0.0,0.0,0.0,0.0,0.0,0.0,0.0,0.0,0.0,0.0,0.0,0.0,0.0,0.0,0.0,0.0,0.0,0.0,0.0,0.0,0.0,0.0,0.0,0.0,0.0,0.0,0.0,0.0,0.0,0.0,0.0,0.0,0.0,0.0,0.0,0.0,0.0,0.0,0.0,0.0,0.0,0.0,0.0,0.0,0.0,0.0,0.0,0.0,0.0,0.0,0.0,0.0,0.0,0.0,0.0,0.0,0.0,0.0,0.0,0.0,0.0,0.0,0.0,0.0,0.0,0.0,0.0,0.0,0.0,0.0,0.0,0.0,0.0,0.0,0.0,0.0,0.0,0.0,0.0,0.0,0.0,0.0,0.0,0.0,0.0,0.0,0.0,0.0,0.0,0.0,0.0,0.0,0.0,0.0,0.0,0.0,0.0,0.0,0.0,0.0,0.0,0.0,0.0,0.0,0.0,0.0,0.0,0.0,0.0,0.0,0.0,0.0,0.0,0.0,0.0,0.0,0.0,0.0,0.0,0.0,0.0,0.0,0.0,0.0,0.0,0.0,0.0,0.0,0.0,0.0,0.0,0.0,0.0,0.0,0.0,0.0,0.0,0.0,0.0,0.0,0.0,-2.3504,0.0,0.0,0.0,0.0,0.0,0.0,0.0,0.0,0.0,0.0,0.0,0.0,0.0,0.0,0.0,0.0,0.0,0.0,0.0,0.0,0.0,0.0,0.0,0.0,0.0,0.0,0.0,0.0,0.0,0.0,0.0,0.0,0.0,0.0,0.0,0.0,0.0,0.0,0.0,0.0,0.0,0.0,0.0,0.0,0.0,0.0,0.0,0.0,0.0,0.0,0.0,0.0,0.0,0.0,0.0,0.0,0.0,0.0,0.0,0.0,0.0,0.0,0.0,0.0,0.0,0.0,0.0,0.0,0.0,0.0,0.0,0.0,0.0,0.0,0.0,0.0,0.0,0.0,0.0,0.0,0.0,0.0,0.0,0.0,0.0,0.0,0.0,0.0,0.0,0.0,0.0,0.0,0.0,0.0,0.0,0.0,0.0,0.0,0.0,0.0,0.0,0.0,0.0,0.0,0.0,0.0,0.0,0.0,0.0,0.0,-2.5168,-2.512,-2.4689,-2.4461,-2.4448,0.0,0.0,0.0,0.0,0.0,0.0,0.0,0.0,0.0,0.0,0.0,0.0,0.0,0.0,0.0,0.0,0.0,0.0,0.0,0.0,0.0,0.0,0.0,0.0,0.0,0.0,0.0,0.0,0.0,0.0,0.0,0.0,0.0,0.0,0.0,0.0,0.0,0.0,0.0,0.0,0.0,0.0,0.0,0.0,0.0,0.0,0.0,0.0,0.0,0.0,0.0,0.0,0.0,0.0,0.0,0.0,0.0,0.0,0.0,0.0,0.0,0.0,0.0,0.0,0.0,0.0,0.0,0.0,0.0,0.0,0.0,0.0,0.0,0.0,0.0,0.0,0.0,0.0,0.0,0.0,0.0,0.0,0.0,0.0,0.0,0.0,0.0,0.0,0.0,0.0,0.0,0.0,0.0,0.0,0.0,0.0,0.0,0.0,0.0,0.0,0.0,0.0,0.0,0.0,0.0,0.0,0.0,0.0,0.0,0.0,0.0,0.0,-2.5144,-2.512,-2.512,0.0,0.0,0.0,0.0,0.0,0.0,0.0,0.0,0.0,0.0,0.0,0.0,0.0,0.0,0.0,0.0,0.0,0.0,0.0,0.0,0.0,0.0,0.0,0.0,0.0,0.0,0.0,0.0,0.0,0.0,0.0,0.0,0.0,0.0,0.0,0.0,0.0,0.0,0.0,0.0,0.0,0.0,0.0,0.0,0.0,0.0,0.0,0.0,0.0,0.0,0.0,0.0,0.0,0.0,0.0,0.0,0.0,0.0,0.0,0.0,0.0,0.0,0.0,0.0,0.0,0.0,0.0,0.0,0.0,0.0,0.0,0.0,0.0,0.0,0.0,0.0,0.0,0.0,0.0,0.0,0.0,0.0,0.0,0.0,0.0,0.0,0.0,0.0,0.0,0.0,0.0,0.0,0.0,0.0,0.0,0.0,0.0,0.0,0.0,0.0,0.0,0.0,0.0,0.0,0.0,0.0,0.0,0.0,0.0,0.0,-2.5273,-2.5212,-2.5198,0.0,-2.5195,0.0,0.0,0.0,0.0,0.0,0.0,0.0,0.0,0.0,0.0,0.0,0.0,0.0,0.0,0.0,0.0,0.0,0.0,0.0,0.0,0.0,0.0,0.0,0.0,0.0,0.0,0.0,0.0,0.0,0.0,0.0,0.0,0.0,0.0,0.0,0.0,0.0,0.0,0.0,0.0,0.0,0.0,0.0,0.0,0.0,0.0,0.0,0.0,0.0,0.0,0.0,0.0,0.0,0.0,0.0,0.0,0.0,0.0,0.0,0.0,0.0,0.0,0.0,0.0,0.0,0.0,0.0,0.0,0.0,0.0,0.0,0.0,0.0,0.0,0.0,0.0,0.0,0.0,0.0,0.0,0.0,0.0,0.0,0.0,0.0,0.0,0.0,0.0,0.0,0.0,0.0,0.0,0.0,0.0,0.0,0.0,0.0,0.0,0.0,0.0,0.0,0.0,0.0,0.0,0.0,0.0,0.0,0.0,0.0,0.0,0.0,-2.5252,-2.5209,-2.5198,0.0,0.0,0.0,0.0,0.0,0.0,0.0,0.0,0.0,0.0,0.0,0.0,0.0,0.0,0.0,0.0,0.0,0.0,0.0,0.0,0.0,0.0,0.0,0.0,0.0,0.0,0.0,0.0,0.0,0.0,0.0,0.0,0.0,0.0,0.0,0.0,0.0,0.0,0.0,0.0,0.0,0.0,0.0,0.0,0.0,0.0,0.0,0.0,0.0,0.0,0.0,0.0,0.0,0.0,0.0,0.0,0.0,0.0,0.0,0.0,0.0,0.0,0.0,0.0,0.0,0.0,0.0,0.0,0.0,0.0,0.0,0.0,0.0,0.0,0.0,0.0,0.0,0.0,0.0,0.0,0.0,0.0,0.0,0.0,0.0,0.0,0.0,0.0,0.0,0.0,0.0,0.0,0.0,0.0,0.0,0.0,0.0,0.0,0.0,0.0,0.0,0.0,0.0,0.0,0.0,0.0,0.0,0.0,0.0,0.0,-2.5415,0.0,-2.5341,-2.5271,-2.5241,-2.5243,0.0,0.0,0.0,0.0,0.0,0.0,0.0,0.0,0.0,0.0,0.0,0.0,0.0,0.0,0.0,0.0,0.0,0.0,0.0,0.0,0.0,0.0,0.0,0.0,0.0,0.0,0.0,0.0,0.0,0.0,0.0,0.0,0.0,0.0,0.0,0.0,0.0,0.0,0.0,0.0,0.0,0.0,0.0,0.0,0.0,0.0,0.0,0.0,0.0,0.0,0.0,0.0,0.0,0.0,0.0,0.0,0.0,0.0,0.0,0.0,0.0,0.0,0.0,0.0,0.0,0.0,0.0,0.0,0.0,0.0,0.0,0.0,0.0,0.0,0.0,0.0,0.0,0.0,0.0,0.0,0.0,0.0,0.0,0.0,0.0,0.0,0.0,0.0,0.0,0.0,0.0,0.0,0.0,0.0,0.0,0.0,0.0,0.0,0.0,0.0,0.0,0.0,0.0,0.0,0.0,0.0,0.0,0.0,0.0,-2.544,-2.5397,-2.5389,-2.5341,-2.5332,0.0,0.0,0.0,0.0,0.0,0.0,0.0,0.0,0.0,0.0,0.0,0.0,0.0,0.0,0.0,0.0,0.0,0.0,0.0,0.0,0.0,0.0,0.0,0.0,0.0,0.0,0.0,0.0,0.0,0.0,0.0,0.0,0.0,0.0,0.0,0.0,0.0,0.0,0.0,0.0,0.0,0.0,0.0,0.0,0.0,0.0,0.0,0.0,0.0,0.0,0.0,0.0,0.0,0.0,0.0,0.0,0.0,0.0,0.0,0.0,0.0,0.0,0.0,0.0,0.0,0.0,0.0,0.0,0.0,0.0,0.0,0.0,0.0,0.0,0.0,0.0,0.0,0.0,0.0,0.0,0.0,0.0,0.0,0.0,0.0,0.0,0.0,0.0,0.0,0.0,0.0,0.0,0.0,0.0,0.0,0.0,0.0,0.0,0.0,0.0,0.0,0.0,0.0,0.0,0.0,0.0,0.0,0.0,0.0,-2.5498,-2.5445,-2.5385,-2.5395,-2.538,-2.537,0.0,0.0,0.0,0.0,0.0,0.0,0.0,0.0,0.0,0.0,0.0,0.0,0.0,0.0,0.0,0.0,0.0,0.0,0.0,0.0,0.0,0.0,0.0,0.0,0.0,0.0,0.0,0.0,0.0,0.0,0.0,0.0,0.0,0.0,0.0,0.0,0.0,0.0,0.0,0.0,0.0,0.0,0.0,0.0,0.0,0.0,0.0,0.0,0.0,0.0,0.0,0.0,0.0,0.0,0.0,0.0,0.0,0.0,0.0,0.0,0.0,0.0,0.0,0.0,0.0,0.0,0.0,0.0,0.0,0.0,0.0,0.0,0.0,0.0,0.0,0.0,0.0,0.0,0.0,0.0,0.0,0.0,0.0,0.0,0.0,0.0,0.0,0.0,0.0,0.0,0.0,0.0,0.0,0.0,0.0,0.0,0.0,0.0,0.0,0.0,0.0,0.0,0.0,0.0,0.0,0.0,0.0,0.0,0.0,-2.5912,0.0,-2.6241,0.0,-2.5956,-2.5822,0.0,0.0,0.0,0.0,0.0,0.0,0.0,0.0,0.0,0.0,0.0,0.0,0.0,0.0,0.0,0.0,0.0,0.0,0.0,0.0,0.0,0.0,0.0,0.0,0.0,0.0,0.0,0.0,0.0,0.0,0.0,0.0,0.0,0.0,0.0,0.0,0.0,0.0,0.0,0.0,0.0,0.0,0.0,0.0,0.0,0.0,0.0,0.0,0.0,0.0,0.0,0.0,0.0,0.0,0.0,0.0,0.0,0.0,0.0,0.0,0.0,0.0,0.0,0.0,0.0,0.0,0.0,0.0,0.0,0.0,0.0,0.0,0.0,0.0,0.0,0.0,0.0,0.0,0.0,0.0,0.0,0.0,0.0,0.0,0.0,0.0,0.0,0.0,0.0,0.0,0.0,0.0,0.0,0.0,0.0,0.0,0.0,0.0,0.0,0.0,0.0,0.0,0.0,0.0,0.0,0.0,0.0,0.0,-2.6079,-2.6808,-2.7558,-2.789,-2.7971,-2.714,-2.6715,0.0,0.0,0.0,0.0,0.0,0.0,0.0,0.0,0.0,0.0,0.0,0.0,0.0,0.0,0.0,0.0,0.0,0.0,0.0,0.0,0.0,0.0,0.0,0.0,0.0,0.0,0.0,0.0,0.0,0.0,0.0,0.0,0.0,0.0,0.0,0.0,0.0,0.0,0.0,0.0,0.0,0.0,0.0,0.0,0.0,0.0,0.0,0.0,0.0,0.0,0.0,0.0,0.0,0.0,0.0,0.0,0.0,0.0,0.0,0.0,0.0,0.0,0.0,0.0,0.0,0.0,0.0,0.0,0.0,0.0,0.0,0.0,0.0,0.0,0.0,0.0,0.0,0.0,0.0,0.0,0.0,0.0,0.0,0.0,0.0,0.0,0.0,0.0,0.0,0.0,0.0,0.0,0.0,0.0,0.0,0.0,0.0,0.0,0.0,0.0,0.0,0.0,0.0,0.0,0.0,0.0,0.0,0.0,0.0,-2.7794,-2.7957,-2.8078,-2.8067,-2.7802,-2.7368,0.0,0.0,0.0,0.0,0.0,0.0,0.0,0.0,0.0,0.0,0.0,0.0,0.0,0.0,0.0,0.0,0.0,0.0,0.0,0.0,0.0,0.0,0.0,0.0,0.0,0.0,0.0,0.0,0.0,0.0,0.0,0.0,0.0,0.0,0.0,0.0,0.0,0.0,0.0,0.0,0.0,0.0,0.0,0.0,0.0,0.0,0.0,0.0,0.0,0.0,0.0,0.0,0.0,0.0,0.0,0.0,0.0,0.0,0.0,0.0,0.0,0.0,0.0,0.0,0.0,0.0,0.0,0.0,0.0,0.0,0.0,0.0,0.0,0.0,0.0,0.0,0.0,0.0,0.0,0.0,0.0,0.0,0.0,0.0,0.0,0.0,0.0,0.0,0.0,0.0,0.0,0.0,0.0,0.0,0.0,0.0,0.0,0.0,0.0,0.0,0.0,0.0,0.0,0.0,0.0,0.0,0.0,0.0,0.0,-3.0152,-3.0062,-3.0024,-3.0009,-2.9422,-2.8833,-2.826,0.0,0.0,0.0,0.0,0.0,0.0,0.0,0.0,0.0,0.0,0.0,0.0,0.0,0.0,0.0,0.0,0.0,0.0,0.0,0.0,0.0,0.0,0.0,0.0,0.0,0.0,0.0,0.0,0.0,0.0,0.0,0.0,0.0,0.0,0.0,0.0,0.0,0.0,0.0,0.0,0.0,0.0,0.0,0.0,0.0,0.0,0.0,0.0,0.0,0.0,0.0,0.0,0.0,0.0,0.0,0.0,0.0,0.0,0.0,0.0,0.0,0.0,0.0,0.0,0.0,0.0,0.0,0.0,0.0,0.0,0.0,0.0,0.0,0.0,0.0,0.0,0.0,0.0,0.0,0.0,0.0,0.0,0.0,0.0,0.0,0.0,0.0,0.0,0.0,0.0,0.0,0.0,0.0,0.0,0.0,0.0,0.0,0.0,0.0,0.0,0.0,0.0,0.0,0.0,0.0,0.0,0.0,0.0,-3.3364,-3.3423,-3.333,-3.3106,-3.1657,-3.0815,0.0,0.0,0.0,0.0,0.0,0.0,0.0,0.0,0.0,0.0,0.0,0.0,0.0,0.0,0.0,0.0,0.0,0.0,0.0,0.0,0.0,0.0,0.0,0.0,0.0,0.0,0.0,0.0,0.0,0.0,0.0,0.0,0.0,0.0,0.0,0.0,0.0,0.0,0.0,0.0,0.0,0.0,0.0,0.0,0.0,0.0,0.0,0.0,0.0,0.0,0.0,0.0,0.0,0.0,0.0,0.0,0.0,0.0,0.0,0.0,0.0,0.0,0.0,0.0,0.0,0.0,0.0,0.0,0.0,0.0,0.0,0.0,0.0,0.0,0.0,0.0,0.0,0.0,0.0,0.0,0.0,0.0,0.0,0.0,0.0,0.0,0.0,0.0,0.0,0.0,0.0,0.0,0.0,0.0,0.0,0.0,0.0,0.0,0.0,0.0,0.0,0.0,0.0,0.0,0.0,0.0,0.0,0.0,0.0,-3.4343,-3.4967,-3.4647,-3.3329,-3.2836,-3.2013,0.0,0.0,0.0,0.0,0.0,0.0,0.0,0.0,0.0,0.0,0.0,0.0,0.0,0.0,0.0,0.0,0.0,0.0,0.0,0.0,0.0,0.0,0.0,0.0,0.0,0.0,0.0,0.0,0.0,0.0,0.0,0.0,0.0,0.0,0.0,0.0,0.0,0.0,0.0,0.0,0.0,0.0,0.0,0.0,0.0,0.0,0.0,0.0,0.0,0.0,0.0,0.0,0.0,0.0,0.0,0.0,0.0,0.0,0.0,0.0,0.0,0.0,0.0,0.0,0.0,0.0,0.0,0.0,0.0,0.0,0.0,0.0,0.0,0.0,0.0,0.0,0.0,0.0,0.0,0.0,0.0,0.0,0.0,0.0,0.0,0.0,0.0,0.0,0.0,0.0,0.0,0.0,0.0,0.0,0.0,0.0,0.0,0.0,0.0,0.0,0.0,0.0,0.0,0.0,0.0,0.0,0.0,0.0,-3.5611,-3.629,-3.6778,-3.6387,-3.4982,-3.4255,-3.3256,0.0,0.0,0.0,0.0,0.0,0.0,0.0,0.0,0.0,0.0,0.0,0.0,0.0,0.0,0.0,0.0,0.0,0.0,0.0,0.0,0.0,0.0,0.0,0.0,0.0,0.0,0.0,0.0,0.0,0.0,0.0,0.0,0.0,0.0,0.0,0.0,0.0,0.0,0.0,0.0,0.0,0.0,0.0,0.0,0.0,0.0,0.0,0.0,0.0,0.0,0.0,0.0,0.0,0.0,0.0,0.0,0.0,0.0,0.0,0.0,0.0,0.0,0.0,0.0,0.0,0.0,0.0,0.0,0.0,0.0,0.0,0.0,0.0,0.0,0.0,0.0,0.0,0.0,0.0,0.0,0.0,0.0,0.0,0.0,0.0,0.0,0.0,0.0,0.0,0.0,0.0,0.0,0.0,0.0,0.0,0.0,0.0,0.0,0.0,0.0,0.0,0.0,0.0,0.0,0.0,0.0,0.0,0.0,-3.6886,-3.8453,-3.8518,-3.8135,-3.7336,-3.5885,-3.4608,0.0,0.0,0.0,0.0,0.0,0.0,0.0,0.0,0.0,0.0,0.0,0.0,0.0,0.0,0.0,0.0,0.0,0.0,0.0,0.0,0.0,0.0,0.0,0.0,0.0,0.0,0.0,0.0,0.0,0.0,0.0,0.0,0.0,0.0,0.0,0.0,0.0,0.0,0.0,0.0,0.0,0.0,0.0,0.0,0.0,0.0,0.0,0.0,0.0,0.0,0.0,0.0,0.0,0.0,0.0,0.0,0.0,0.0,0.0,0.0,0.0,0.0,0.0,0.0,0.0,0.0,0.0,0.0,0.0,0.0,0.0,0.0,0.0,0.0,0.0,0.0,0.0,0.0,0.0,0.0,0.0,0.0,0.0,0.0,0.0,0.0,0.0,0.0,0.0,0.0,0.0,0.0,0.0,0.0,0.0,0.0,0.0,0.0,0.0,0.0,0.0,0.0,0.0,0.0,0.0,0.0,0.0,0.0,-3.7533,-3.8531,-3.8587,-3.8466,-3.8241,-3.7878,-3.6664,0.0,0.0,0.0,0.0,0.0,0.0,0.0,0.0,0.0,0.0,0.0,0.0,0.0,0.0,0.0,0.0,0.0,0.0,0.0,0.0,0.0,0.0,0.0,0.0,0.0,0.0,0.0,0.0,0.0,0.0,0.0,0.0,0.0,0.0,0.0,0.0,0.0,0.0,0.0,0.0,0.0,0.0,0.0,0.0,0.0,0.0,0.0,0.0,-2.7129,0.0,0.0,0.0,0.0,0.0,0.0,0.0,0.0,0.0,0.0,0.0,0.0,0.0,0.0,0.0,0.0,0.0,0.0,0.0,0.0,0.0,0.0,0.0,0.0,0.0,0.0,0.0,0.0,0.0,0.0,0.0,0.0,0.0,0.0,0.0,0.0,0.0,0.0,0.0,0.0,0.0,0.0,0.0,0.0,0.0,0.0,0.0,0.0,0.0,0.0,0.0,0.0,0.0,0.0,0.0,0.0,0.0,0.0,0.0,-3.8921,-3.9741,-3.978,-3.9588,-3.9178,-3.9149,-3.7948,0.0,0.0,0.0,0.0,0.0,0.0,0.0,0.0,0.0,0.0,0.0,0.0,0.0,0.0,0.0,0.0,0.0,0.0,0.0,0.0,0.0,0.0,0.0,0.0,0.0,0.0,0.0,0.0,0.0,0.0,0.0,0.0,0.0,0.0,0.0,0.0,0.0,0.0,0.0,0.0,0.0,0.0,0.0,0.0,0.0,0.0,0.0,0.0,0.0,0.0,0.0,0.0,0.0,0.0,0.0,0.0,0.0,0.0,0.0,0.0,0.0,0.0,0.0,0.0,0.0,0.0,0.0,0.0,0.0,0.0,0.0,0.0,0.0,0.0,0.0,0.0,0.0,0.0,0.0,0.0,0.0,0.0,0.0,0.0,0.0,0.0,0.0,0.0,0.0,0.0,0.0,0.0,0.0,0.0,0.0,0.0,0.0,0.0,0.0,0.0,0.0,0.0,0.0,0.0,0.0,0.0,0.0,-3.9005,-4.0296,-4.1058,-4.1111,-4.0784,-4.0111,-3.9964,-3.8801,-3.6495,0.0,0.0,0.0,0.0,0.0,0.0,0.0,0.0,0.0,0.0,0.0,0.0,0.0,0.0,0.0,0.0,0.0,0.0,0.0,0.0,0.0,0.0,0.0,0.0,0.0,0.0,0.0,0.0,0.0,0.0,0.0,0.0,0.0,0.0,0.0,0.0,0.0,0.0,-2.5587,-2.6435,0.0,0.0,0.0,0.0,0.0,0.0,0.0,0.0,-2.8253,0.0,0.0,0.0,0.0,0.0,0.0,0.0,0.0,0.0,0.0,0.0,0.0,0.0,0.0,0.0,0.0,0.0,0.0,0.0,0.0,0.0,0.0,0.0,0.0,0.0,0.0,0.0,0.0,0.0,0.0,0.0,0.0,0.0,0.0,0.0,0.0,0.0,0.0,0.0,0.0,0.0,0.0,0.0,0.0,0.0,0.0,0.0,0.0,0.0,0.0,0.0,0.0,0.0,0.0,0.0,0.0,-3.727,-3.9014,-4.0289,-4.1073,-4.1101,-4.1038,-4.0892,-4.0257,-3.9357,-3.8153,0.0,0.0,0.0,0.0,0.0,0.0,0.0,0.0,0.0,0.0,0.0,0.0,0.0,0.0,0.0,0.0,0.0,0.0,0.0,0.0,0.0,0.0,0.0,0.0,0.0,0.0,0.0,0.0,0.0,0.0,0.0,0.0,0.0,0.0,0.0,0.0,0.0,0.0,0.0,-2.733,-2.7938,0.0,0.0,0.0,0.0,0.0,0.0,0.0,0.0,-2.9753,0.0,0.0,0.0,0.0,0.0,0.0,0.0,0.0,0.0,0.0,0.0,0.0,0.0,0.0,0.0,0.0,0.0,0.0,0.0,0.0,0.0,0.0,0.0,0.0,0.0,0.0,0.0,0.0,0.0,0.0,0.0,0.0,0.0,0.0,0.0,0.0,0.0,0.0,0.0,0.0,0.0,0.0,0.0,0.0,0.0,0.0,0.0,0.0,0.0,0.0,0.0,0.0,0.0,0.0,0.0,-3.7946,-3.9705,-4.0781,-4.1133,-4.115,-4.1149,-4.1131,-4.0328,-3.947,0.0,0.0,0.0,0.0,0.0,0.0,0.0,0.0,0.0,0.0,0.0,0.0,0.0,0.0,0.0,0.0,0.0,0.0,0.0,0.0,0.0,0.0,0.0,0.0,0.0,0.0,0.0,0.0,0.0,0.0,0.0,0.0,0.0,0.0,0.0,0.0,0.0,0.0,0.0,0.0,-2.8895,-2.9601,-3.0001,0.0,0.0,0.0,0.0,0.0,0.0,-3.1862,-3.1543,0.0,0.0,0.0,0.0,0.0,0.0,0.0,0.0,0.0,0.0,0.0,0.0,0.0,0.0,0.0,0.0,0.0,0.0,0.0,0.0,0.0,0.0,0.0,0.0,0.0,0.0,0.0,0.0,0.0,0.0,0.0,0.0,0.0,0.0,0.0,0.0,0.0,0.0,0.0,0.0,0.0,0.0,0.0,0.0,0.0,0.0,0.0,0.0,0.0,0.0,0.0,0.0,0.0,0.0,0.0,-3.8594,-4.0312,-4.1191,-4.1191,-4.1191,-4.1191,-4.1191,-4.0371,-3.9491,0.0,0.0,0.0,0.0,0.0,0.0,0.0,0.0,0.0,0.0,0.0,0.0,0.0,0.0,0.0,0.0,0.0,0.0,0.0,0.0,0.0,0.0,0.0,0.0,0.0,0.0,0.0,0.0,0.0,0.0,0.0,0.0,0.0,0.0,0.0,0.0,0.0,0.0,0.0,0.0,0.0,-3.1251,-3.2039,-3.2784,0.0,0.0,0.0,0.0,-3.3353,-3.3237,0.0,0.0,0.0,0.0,0.0,0.0,0.0,0.0,0.0,0.0,0.0,0.0,0.0,0.0,0.0,0.0,0.0,0.0,0.0,0.0,0.0,0.0,0.0,0.0,0.0,0.0,0.0,0.0,0.0,0.0,0.0,0.0,0.0,0.0,0.0,0.0,0.0,0.0,0.0,0.0,0.0,0.0,0.0,0.0,0.0,0.0,0.0,0.0,0.0,0.0,0.0,0.0,0.0,0.0,0.0,0.0,-3.8594,-4.0332,-4.1191,-4.1191,-4.1191,-4.1191,-4.1191,-4.0351,-3.9491,0.0,0.0,0.0,0.0,0.0,0.0,0.0,0.0,0.0,0.0,0.0,0.0,0.0,0.0,0.0,0.0,0.0,0.0,0.0,0.0,0.0,0.0,0.0,0.0,0.0,0.0,0.0,0.0,0.0,0.0,0.0,0.0,0.0,0.0,0.0,0.0,0.0,0.0,0.0,0.0,0.0,-3.2132,-3.2931,-3.318,-3.3541,0.0,0.0,-3.343,-3.4139,-3.3654,0.0,0.0,0.0,0.0,0.0,0.0,0.0,0.0,0.0,0.0,0.0,0.0,0.0,0.0,0.0,0.0,0.0,0.0,0.0,0.0,0.0,0.0,0.0,0.0,0.0,0.0,0.0,0.0,0.0,0.0,0.0,0.0,0.0,0.0,0.0,0.0,0.0,0.0,0.0,0.0,0.0,0.0,0.0,0.0,0.0,0.0,0.0,0.0,0.0,0.0,0.0,0.0,0.0,0.0,0.0,-3.6855,-3.8574,-4.0312,-4.1191,-4.1191,-4.1168,-4.1144,-4.1144,-4.0328,-3.9253,0.0,0.0,0.0,0.0,0.0,0.0,0.0,0.0,0.0,0.0,0.0,0.0,0.0,0.0,0.0,0.0,0.0,0.0,0.0,0.0,0.0,0.0,0.0,0.0,0.0,0.0,0.0,0.0,0.0,0.0,0.0,0.0,0.0,0.0,0.0,0.0,0.0,0.0,0.0,0.0,0.0,0.0,-3.4583,-3.5519,0.0,0.0,0.0,-3.6284,-3.6627,0.0,0.0,0.0,0.0,0.0,0.0,0.0,0.0,0.0,0.0,0.0,0.0,0.0,0.0,0.0,0.0,0.0,0.0,0.0,0.0,0.0,0.0,0.0,0.0,0.0,0.0,0.0,0.0,0.0,0.0,0.0,0.0,0.0,0.0,0.0,0.0,0.0,0.0,0.0,0.0,0.0,0.0,0.0,0.0,0.0,0.0,0.0,0.0,0.0,0.0,0.0,0.0,0.0,0.0,0.0,0.0,0.0,-3.8594,-4.0293,-4.1172,-4.117,-4.1121,-4.1108,-4.1088,-4.0101,0.0,0.0,0.0,0.0,0.0,0.0,0.0,0.0,0.0,0.0,0.0,0.0,0.0,0.0,0.0,0.0,0.0,0.0,0.0,0.0,0.0,0.0,0.0,0.0,0.0,0.0,0.0,-2.2063,0.0,0.0,0.0,0.0,0.0,0.0,0.0,0.0,0.0,0.0,0.0,0.0,0.0,0.0,-3.5948,-3.6318,-3.7711,-3.8727,0.0,0.0,-3.8735,-3.8719,-3.7991,-3.7222,0.0,0.0,0.0,0.0,0.0,0.0,0.0,0.0,0.0,0.0,0.0,0.0,0.0,0.0,0.0,0.0,0.0,0.0,0.0,0.0,0.0,0.0,0.0,0.0,0.0,0.0,0.0,0.0,0.0,0.0,0.0,0.0,0.0,0.0,0.0,0.0,0.0,0.0,0.0,0.0,0.0,0.0,0.0,0.0,0.0,0.0,0.0,0.0,0.0,0.0,0.0,0.0,0.0,0.0,0.0,-3.8613,-4.0254,-4.1111,-4.1114,-4.1111,-4.1108,-4.1069,-3.9533,-3.8608,0.0,0.0,0.0,0.0,0.0,0.0,0.0,0.0,0.0,0.0,0.0,0.0,0.0,0.0,0.0,0.0,0.0,0.0,0.0,0.0,0.0,0.0,0.0,0.0,0.0,0.0,0.0,0.0,0.0,0.0,0.0,0.0,0.0,0.0,0.0,0.0,0.0,0.0,0.0,0.0,0.0,-3.6393,-3.7994,-3.9027,-3.9626,0.0,0.0,-3.9617,-3.961,-3.8899,-3.8318,-3.8312,0.0,0.0,0.0,0.0,0.0,0.0,0.0,0.0,0.0,0.0,0.0,0.0,0.0,0.0,0.0,0.0,0.0,0.0,0.0,0.0,0.0,0.0,0.0,0.0,0.0,0.0,0.0,0.0,0.0,0.0,0.0,0.0,0.0,0.0,0.0,0.0,0.0,0.0,0.0,0.0,0.0,0.0,0.0,0.0,0.0,0.0,0.0,0.0,0.0,0.0,0.0,0.0,0.0,-3.7992,-3.9405,-4.1045,-4.19,-4.1908,-4.1908,-4.1905,-4.1897,-4.0251,-3.8822,0.0,0.0,0.0,0.0,0.0,0.0,0.0,0.0,0.0,0.0,0.0,0.0,0.0,0.0,0.0,0.0,0.0,0.0,0.0,0.0,0.0,0.0,0.0,0.0,0.0,0.0,0.0,0.0,-2.4878,-2.5558,-2.64,0.0,0.0,0.0,0.0,0.0,0.0,0.0,0.0,0.0,0.0,-3.8633,-3.979,-4.0704,0.0,0.0,-4.2098,-4.2117,-4.2149,-4.098,-4.0064,-4.0101,-3.8653,0.0,0.0,0.0,0.0,0.0,0.0,0.0,0.0,0.0,0.0,0.0,0.0,0.0,0.0,0.0,0.0,0.0,0.0,0.0,0.0,0.0,0.0,0.0,0.0,0.0,0.0,0.0,0.0,0.0,0.0,0.0,0.0,0.0,0.0,0.0,0.0,0.0,0.0,0.0,0.0,0.0,0.0,0.0,0.0,0.0,0.0,0.0,0.0,0.0,0.0,0.0,0.0,-3.8521,-4.0239,-4.1674,-4.2529,-4.2772,-4.2776,-4.2655,-4.2373,-4.0964,-3.936,0.0,0.0,0.0,0.0,0.0,0.0,0.0,0.0,0.0,0.0,0.0,0.0,0.0,0.0,0.0,0.0,0.0,0.0,0.0,0.0,0.0,0.0,0.0,0.0,0.0,0.0,0.0,0.0,-2.5563,-2.6419,-2.7301,0.0,0.0,0.0,0.0,0.0,0.0,0.0,0.0,0.0,0.0,-4.0493,-4.1544,-4.2493,-4.3208,-4.3584,-4.3849,-4.3938,-4.3734,-4.2671,-4.1871,-4.1881,0.0,0.0,0.0,0.0,0.0,0.0,0.0,0.0,0.0,0.0,0.0,0.0,0.0,0.0,0.0,0.0,0.0,0.0,0.0,0.0,0.0,0.0,0.0,0.0,0.0,0.0,0.0,0.0,0.0,0.0,-3.0678,0.0,0.0,0.0,0.0,0.0,0.0,0.0,0.0,0.0,0.0,0.0,0.0,0.0,0.0,0.0,0.0,0.0,0.0,0.0,0.0,0.0,0.0,-3.936,-4.1052,-4.1995,-4.2854,-4.3635,-4.368,-4.3295,-4.2461,-4.1554,-4.0262,-3.8488,0.0,0.0,0.0,0.0,0.0,0.0,0.0,0.0,0.0,0.0,0.0,0.0,0.0,0.0,0.0,0.0,0.0,0.0,0.0,0.0,0.0,0.0,0.0,0.0,0.0,0.0,-2.5605,-2.6465,-2.7363,0.0,0.0,0.0,0.0,0.0,0.0,0.0,0.0,0.0,0.0,-4.0933,-4.1602,-4.3286,-4.4267,-4.4538,-4.3865,-4.4426,-4.4684,-4.387,-4.3695,-4.3656,0.0,0.0,0.0,0.0,0.0,0.0,0.0,0.0,0.0,0.0,0.0,0.0,0.0,0.0,0.0,0.0,0.0,0.0,0.0,0.0,0.0,0.0,0.0,0.0,0.0,0.0,0.0,-3.4144,-3.416,0.0,0.0,0.0,0.0,0.0,0.0,0.0,0.0,0.0,0.0,0.0,-3.9226,-3.9799,0.0,0.0,0.0,0.0,0.0,0.0,0.0,0.0,0.0,0.0,0.0,0.0,-4.0817,-4.1964,-4.3358,-4.4217,-4.4493,-4.4493,-4.4362,-4.405,-4.2719,-4.0616,-3.7722,0.0,0.0,0.0,0.0,0.0,0.0,0.0,0.0,0.0,0.0,0.0,0.0,0.0,0.0,0.0,0.0,0.0,0.0,0.0,0.0,0.0,0.0,0.0,0.0,0.0,-2.5625,0.0,0.0,0.0,0.0,0.0,0.0,0.0,0.0,0.0,0.0,0.0,-3.9783,-4.0908,-4.2013,-4.3143,-4.4306,-4.4757,-4.5085,0.0,0.0,0.0,0.0,0.0,0.0,0.0,0.0,0.0,0.0,0.0,0.0,0.0,0.0,-4.0725,-3.9558,-3.9337,-3.9286,-3.9292,0.0,0.0,0.0,0.0,0.0,0.0,0.0,0.0,0.0,0.0,0.0,0.0,0.0,0.0,-3.7655,0.0,-3.7654,0.0,0.0,0.0,0.0,0.0,0.0,0.0,0.0,-4.1962,-4.2324,-4.1791,-4.2354,-4.2335,0.0,-4.1266,-3.9684,0.0,0.0,0.0,0.0,0.0,0.0,0.0,0.0,-4.1792,-4.3227,-4.4325,-4.5046,-4.5339,-4.5339,-4.5202,-4.4884,-4.2948,-4.0708,-3.8148,-3.6596,-3.4766,0.0,0.0,0.0,0.0,0.0,0.0,0.0,0.0,0.0,0.0,0.0,0.0,0.0,0.0,0.0,0.0,0.0,0.0,0.0,0.0,0.0,0.0,0.0,-2.707,0.0,0.0,0.0,0.0,0.0,0.0,0.0,0.0,0.0,-3.7913,-3.9969,-4.1774,-4.2354,-4.3368,-4.4382,-4.5265,0.0,0.0,0.0,0.0,0.0,0.0,0.0,-4.6319,-4.6319,-4.63,-4.612,-4.557,-4.5488,-4.5464,-4.5484,0.0,0.0,-4.2417,-4.1978,-4.1947,-4.1935,-4.1929,-4.1942,-4.1942,-4.1916,-4.1909,0.0,0.0,0.0,0.0,0.0,0.0,0.0,0.0,-4.0975,-4.0927,0.0,-4.0917,0.0,0.0,0.0,0.0,0.0,-4.1402,0.0,0.0,-4.3157,-4.3536,-4.3586,-4.3625,-4.3582,-4.3578,-4.3518,-4.302,-4.2063,-3.9732,0.0,0.0,0.0,0.0,0.0,0.0,-4.2369,-4.4744,-4.4922,-4.5358,-4.6157,-4.6196,-4.5779,-4.4861,-4.2439,-4.0684,-3.9707,-3.7316,-3.5893,-3.5745,-3.3392,0.0,0.0,0.0,0.0,0.0,0.0,0.0,0.0,0.0,0.0,0.0,0.0,0.0,0.0,0.0,0.0,0.0,0.0,0.0,0.0,-2.7871,0.0,0.0,0.0,0.0,0.0,0.0,0.0,0.0,0.0,0.0,-4.1269,-4.203,-4.3123,-4.4709,0.0,0.0,0.0,0.0,-4.7557,-4.7604,-4.8291,-4.8779,-4.8779,-4.8759,-4.874,-4.874,0.0,0.0,-4.8798,-4.8779,-4.8701,-4.8779,-4.8623,-4.776,-4.4499,-4.3948,-4.3948,-4.3929,-4.3983,-4.387,-4.3831,-4.3855,-4.3772,-4.5364,0.0,0.0,0.0,0.0,-4.281,-4.2791,-4.2781,-4.2718,-4.2698,-4.2682,-4.2682,0.0,0.0,0.0,0.0,0.0,0.0,-4.4208,-4.4834,-4.5708,-4.646,-4.7017,-4.7036,-4.7049,-4.6984,-4.5794,-4.5045,-4.4724,-4.29,-4.1364,-4.0213,0.0,0.0,0.0,0.0,-4.4093,-4.4818,-4.5437,-4.5866,-4.6119,-4.6127,-4.571,-4.4837,-4.3497,-4.2099,-4.0606,-3.9219,-3.7628,-3.5824,-3.502,0.0,0.0,0.0,0.0,0.0,0.0,0.0,0.0,0.0,0.0,0.0,0.0,0.0,0.0,0.0,0.0,0.0,0.0,0.0,-2.7949,-2.9824,-3.1289,0.0,0.0,0.0,0.0,0.0,0.0,0.0,0.0,0.0,-4.4813,-4.5028,-4.5359,0.0,0.0,-4.7756,-4.8053,-4.8267,-4.8443,-4.8447,-4.8642,0.0,-4.8798,-4.8798,-4.8798,-4.8798,-4.8798,-4.8993,-4.9638,-4.9208,-4.8798,-4.8818,-4.8798,-4.8447,-4.7639,-4.7342,-4.7313,-4.7343,-4.7343,-4.7128,-4.6557,-4.6396,-4.6181,-4.7528,-4.5618,-4.5636,-4.5598,-4.5569,-4.5511,-4.549,-4.5475,-4.5072,-4.4916,-4.4878,-4.4529,-4.4083,-4.3579,-4.3931,0.0,0.0,0.0,-4.6399,-4.6912,-4.7453,-4.7947,-4.843,-4.8463,-4.8449,-4.841,-4.7378,-4.6894,-4.6872,-4.5866,-4.4873,-4.3857,0.0,0.0,-4.323,-4.4552,-4.5412,-4.5784,-4.6299,-4.6581,-4.6599,-4.6268,-4.5676,-4.4821,-4.4258,-4.3151,-4.1441,-4.0535,-3.9185,-3.7295,-3.657,-3.5359,0.0,0.0,0.0,0.0,0.0,0.0,0.0,0.0,0.0,0.0,0.0,-3.0162,0.0,0.0,0.0,0.0,-3.0137,-3.0117,-3.0762,-3.2266,0.0,0.0,0.0,0.0,0.0,0.0,0.0,-4.3798,-4.5636,-4.6944,-4.7256,-4.7588,-4.7666,-4.7334,-4.8174,-4.8798,-4.8798,0.0,-4.9306,-4.9325,-4.9618,-4.9833,-4.9833,-4.9833,-4.9833,-4.9833,-4.9833,-4.9989,-5.0477,-5.0165,-4.9852,-4.9833,-4.9833,-4.9833,-4.9833,-4.9829,-4.9547,-4.8938,-4.8801,-4.8601,-4.8094,-4.8011,-4.7855,-4.888,-4.8896,-4.8892,-4.8747,-4.8593,-4.8524,-4.848,-4.8432,-4.763,-4.7288,-4.7229,-4.6455,-4.6074,-4.606,-4.6853,0.0,-4.7262,-4.8042,-4.8421,-4.8508,-4.8516,-4.8555,-4.8604,-4.8624,-4.8604,-4.8589,-4.8527,-4.8508,-4.8493,-4.8411,-4.8406,-4.8333,-4.5318,-4.4189,-4.4993,-4.5731,-4.6525,-4.7365,-4.7384,-4.7386,-4.7359,-4.6601,-4.5784,-4.4928,-4.4782,-4.3934,-4.2366,-4.1408,-4.0505,-3.9619,-3.8089,-3.677,-3.585,0.0,0.0,0.0,0.0,0.0,0.0,0.0,0.0,0.0,0.0,0.0,0.0,0.0,0.0,0.0,-3.2617,0.0,-3.4766,-3.5039,0.0,0.0,0.0,-3.998,-4.2436,-4.3495,-4.4657,-4.6319,0.0,0.0,-4.8915,-4.9774,-5.0028,-4.9306,-4.9091,-4.9013,-4.9013,-4.9794,-5.0301,-5.036,-5.1063,-5.159,-5.1609,-5.1609,-5.1609,-5.1629,-5.1609,-5.1629,-5.1648,-5.1648,-5.1609,-5.1609,-5.1609,-5.159,-5.1609,-5.1609,-5.1121,-4.9657,-4.9189,-4.9032,-4.8915,-4.8907,-4.8845,-5.0617,-5.0588,-5.0539,-4.979,-4.8608,-4.853,-4.8496,-4.8473,-4.8222,-4.8116,-4.81,-4.7912,-4.7801,-4.7792,-4.7994,-4.8087,-4.8097,-4.829,-4.8759,-4.9382,-4.9386,-4.9714,-5.0287,-5.0326,-5.0326,-5.0287,-4.9691,-4.9386,-4.9366,-4.8729,-4.8415,-4.8368,-4.7594,-4.7323,-4.7521,-4.7729,-4.7946,-4.8205,-4.8208,-4.7889,-4.7284,-4.7059,-4.6542,-4.5658,-4.5025,-4.449,-4.4008,-4.2569,-4.1376,-4.0513,-3.9468,-3.8191,-3.6712,-3.5831,0.0,0.0,0.0,0.0,0.0,0.0,0.0,0.0,0.0,-3.4752,-3.625,0.0,-3.5351,0.0,-3.6094,-3.625,-3.666,-3.7871,0.0,0.0,-4.1719,-4.3262,-4.5156,-4.6139,-4.7096,-4.8154,-4.9013,-4.9813,-5.0672,-5.155,-5.2253,-5.2663,-5.1609,-5.0789,-5.0809,-5.1531,-5.2078,-5.2136,-5.2761,-5.3366,-5.3327,-5.3385,-5.3327,-5.3366,-5.3346,-5.3385,-5.3366,-5.3385,-5.3385,-5.3385,-5.3385,-5.3385,-5.3327,-5.3385,-5.3249,-5.2761,-5.1726,-5.0575,-4.995,-4.9809,-4.9595,-5.2294,-5.2321,-5.2239,-5.1668,-5.0732,-4.9943,-4.9611,-4.9579,-4.9158,-4.8976,-4.8982,-4.8982,-4.8972,-4.9015,-4.9347,-4.9517,-4.9513,-4.9513,-4.9769,-5.0233,-5.0233,-5.0465,-5.0906,-5.0906,-5.0906,-5.0887,-5.0445,-5.0233,-5.0213,-4.9753,-4.9502,-4.9513,-4.9513,-4.9513,-4.9494,-4.915,-4.9006,-4.9038,-4.9071,-4.8664,-4.7791,-4.7404,-4.6959,-4.6494,-4.568,-4.5028,-4.4608,-4.3705,-4.2815,-4.1932,-4.0732,-3.9642,-3.8675,-3.7475,-3.6613,0.0,0.0,0.0,0.0,0.0,0.0,0.0,0.0,0.0,0.0,0.0,-3.8473,-3.8945,-3.8984,-3.916,-3.9531,-4.0781,-4.2109,-4.334,-4.4648,-4.5976,-4.7324,-4.8547,-4.9469,-4.995,-5.1082,-5.2019,-5.2507,-5.2975,-5.3444,-5.3951,-5.3171,-5.2546,-5.2605,-5.3014,-5.3268,-5.3288,-5.3678,-5.399,-5.399,-5.399,-5.399,-5.399,-5.399,-5.399,-5.399,-5.399,-5.399,-5.399,-5.399,-5.399,-5.399,-5.399,-5.399,-5.3873,-5.3229,-5.2448,-5.1941,-5.1531,-5.1082,-5.367,-5.3682,-5.3618,-5.356,-5.3391,-5.1927,-5.1273,-5.1099,-5.0349,-4.9943,-4.9861,-4.9857,-4.9861,-4.9908,-5.0581,-5.0906,-5.0906,-5.0906,-5.0906,-5.0906,-5.0906,-5.0906,-5.0906,-5.0906,-5.0906,-5.0906,-5.1022,-5.1061,-5.108,-5.108,-5.1061,-5.1061,-5.0964,-5.0906,-5.0887,-5.0213,-4.9861,-4.9843,-4.991,-4.9533,-4.8674,-4.7912,-4.743,-4.719,-4.6442,-4.5654,-4.4794,-4.4645,-4.4239,-4.346,-4.197,-4.1119,-4.1081,-3.9572,-3.8682,0.0,-3.8686,0.0,0.0,0.0,0.0,0.0,0.0,0.0,0.0,-4.0977,-4.1476,-4.1601,-4.1601,-4.1992,-4.2969,-4.375,-4.4863,-4.6445,-4.75,-4.8398,-4.918,-5.07,-5.1726,-5.1726,-5.3073,-5.4029,-5.4127,-5.4166,-5.4186,-5.44,-5.442,-5.4322,-5.4322,-5.4244,-5.4166,-5.4166,-5.4283,-5.4537,-5.4498,-5.4439,-5.442,-5.4381,-5.4459,-5.4322,-5.442,-5.442,-5.4381,-5.44,-5.4459,-5.442,-5.4322,-5.4381,-5.4361,-5.4459,-5.4381,-5.4201,-5.3834,-5.3284,-5.2897,-5.3621,-5.3635,-5.3538,-5.3519,-5.3475,-5.3149,-5.263,-5.1966,-5.1792,-5.1331,-5.0693,-5.0674,-5.0674,-5.0677,-5.0813,-5.0906,-5.0906,-5.0906,-5.0906,-5.0906,-5.0906,-5.0906,-5.0906,-5.0906,-5.0906,-5.0945,-5.1602,-5.195,-5.1954,-5.195,-5.1966,-5.1947,-5.1254,-5.0906,-5.0906,0.0,0.0,0.0,-5.067,-5.0306,-4.9521,-4.9301,-4.8542,-4.7187,-4.695,0.0,-4.5606,-4.4954,-4.4529,-4.433,-4.3382,0.0,0.0,0.0,0.0,0.0,0.0,0.0,0.0,0.0,0.0,0.0,-4.3598,-4.3668,-4.3021,-4.3115,-4.3492,-4.4198,-4.4254,-4.4902,-4.6445,-4.6758,-4.7285,-4.8301,-4.9766,-5.0742,-5.0976,-5.2461,-5.3512,-5.3502,-5.3815,-5.4283,-5.4927,-5.5044,-5.5318,-5.5884,-5.6118,-5.6098,-5.6079,-5.5474,-5.5064,-5.5103,-5.5552,-5.604,-5.6098,-5.604,-5.5942,-5.6098,-5.6098,-5.6059,-5.602,-5.604,-5.6079,-5.604,-5.6098,-5.6059,-5.6059,-5.6098,-5.6001,-5.6079,-5.6031,-5.5616,-5.4298,-5.3884,-5.3757,-5.4839,0.0,-5.4742,-5.4723,0.0,-5.4735,-5.4254,-5.3459,-5.3014,-5.2589,-5.2182,-5.2198,-5.2198,-5.2182,-5.2202,-5.2182,-5.2179,-5.2179,-5.2198,-5.2179,-5.2182,-5.2182,-5.2182,-5.2163,-5.2182,-5.2202,-5.2605,-5.2837,-5.2859,-5.2824,-5.2821,-5.2833,-5.2392,-5.2179,-5.2163,-5.1757,-5.1331,-5.0906,-5.0906,-5.0697,-5.031,-4.9904,-4.9301,-4.8411,-4.7536,0.0,0.0,0.0,0.0,0.0,0.0,0.0,0.0,0.0,0.0,-4.268,-4.2725,-4.2731,-4.2792,-4.4006,-4.4798,-4.4857,-4.6066,-4.6462,-4.5636,-4.5976,-4.639,-4.6823,-4.6881,-4.7261,-4.8125,-4.8965,-4.9668,-5.0156,-5.166,-5.2676,-5.2812,-5.3828,-5.4629,-5.4699,-5.5017,-5.5474,-5.5884,-5.5942,-5.6098,-5.6547,-5.6977,-5.7192,-5.7133,-5.6469,-5.5942,-5.5942,-5.6255,-5.6586,-5.6606,-5.6606,-5.6626,-5.6606,-5.6606,-5.6606,-5.6606,-5.6606,-5.6606,-5.6606,-5.6606,-5.6606,-5.6606,-5.6582,-5.6558,-5.6538,-5.6509,-5.6302,-5.5352,-5.4903,-5.4585,-5.6068,-5.6082,-5.6029,-5.6012,-5.6012,-5.6012,-5.5608,-5.4951,0.0,0.0,0.0,-5.3494,-5.3494,-5.3498,-5.3498,-5.3514,-5.3491,-5.3491,-5.3491,-5.3511,-5.3498,-5.3498,-5.3494,-5.3498,-5.3498,-5.3494,-5.3665,-5.3723,-5.373,-5.3735,-5.3732,-5.3723,-5.3569,-5.3494,-5.3459,-5.2782,-5.2066,-5.137,-5.1061,-5.0906,-5.0887,-5.0248,-4.9842,-4.9707,-4.8329,-4.7478,-4.7308,-4.6651,-4.6245,-4.6245,-4.5626,-4.5297,-4.5258,-4.4659,-4.4299,-4.4298,-4.4318,-4.4331,-4.4347,-4.5726,-4.6569,-4.659,-4.8073,-4.8646,-4.7796,-4.8387,-4.8942,-4.9247,-4.9247,-4.9417,-4.9764,-5.1016,-5.1855,-5.1875,-5.3281,-5.4219,-5.4277,-5.5,-5.5586,-5.5801,-5.6398,-5.6887,-5.7055,-5.7074,-5.7035,-5.7133,-5.768,-5.8031,-5.7953,-5.7504,-5.7133,-5.7133,-5.725,-5.7133,-5.7074,-5.7133,-5.7035,-5.7192,-5.7133,-5.7035,-5.7035,-5.7035,-5.7035,-5.7192,-5.6957,-5.686,-5.6816,-5.665,-5.6509,-5.6484,-5.6491,-5.6498,-5.6413,-5.5925,-5.5438,-5.6031,-5.6012,-5.6012,-5.6012,-5.6012,-5.6012,-5.5954,-5.5702,-5.4175,-5.3498,-5.3498,-5.3484,-5.35,-5.3498,-5.3503,-5.35,-5.3498,-5.3498,-5.35,-5.3503,-5.3486,-5.3503,-5.35,-5.3498,-5.3498,-5.3553,-5.423,-5.4617,-5.4617,-5.4602,-5.4605,-5.4525,-5.3865,-5.3536,-5.3503,-5.3384,-5.3262,-5.3104,-5.1676,-5.0906,-5.0906,-5.079,-5.0403,-4.9726,-4.9459,-4.8976,-4.8256,-4.8082,-4.8024,-4.8024,-4.7927,-4.7884,-4.7951,-4.7777,-4.7785,-4.7786,-4.783,-4.7862,-4.7842,-4.8176,-4.8358,-4.8468,-4.9294,-4.9491,-4.8703,-4.8733,-4.9411,-5.0828,-5.1023,-5.1671,-5.3045,-5.3434,-5.3574,-5.3672,-5.4512,-5.5117,-5.5176,-5.5879,-5.6699,-5.7383,-5.7617,-5.7983,-5.8488,-5.8636,-5.8597,-5.8695,-5.8753,-5.8929,-5.8968,-5.8831,-5.8753,-5.8753,-5.8753,-5.8734,-5.8577,-5.8734,-5.8616,-5.8734,-5.8656,-5.8558,-5.8538,-5.8538,-5.8538,-5.8695,-5.807,-5.7675,-5.7607,-5.6996,-5.6731,-5.668,-5.6666,-5.6574,-5.6519,-5.6327,-5.6202,-5.6016,-5.5996,-5.5956,-5.5954,-5.5937,-5.594,-5.5942,-5.5883,-5.5167,-5.4817,-5.4871,-5.4873,-5.4873,-5.4851,-5.4854,-5.4854,-5.4851,-5.4871,-5.4854,-5.4856,-5.4856,-5.4854,-5.4871,-5.4871,-5.4851,-5.4871,-5.5274,-5.5449,-5.5432,-5.5451,-5.5453,-5.5434,-5.5045,-5.4854,-5.4834,-5.4426,-5.4194,-5.4155,-5.2956,-5.2066,-5.1602,-5.1602,-5.1215,-5.0384,-4.9962,-4.9537,-4.9126,-4.8667,-4.8415,-4.8459,-4.8459,-4.8474,-4.8496,-4.8535,-4.8561,-4.8534,-4.8593,-4.8623,-4.8654,-4.9119,-4.9823,-5.077,-5.1199,-5.1492,-5.162,-5.1191,-5.145,-5.2678,-5.2819,-5.3112,-5.3951,-5.4418,-5.4702,-5.4707,-5.5488,-5.6191,-5.666,-5.7031,-5.7656,-5.8437,-5.8594,-5.873,-5.9109,-5.9124,-5.9104,-5.9143,-5.9456,-5.9924,-6.0412,-6.049,-6.0139,-5.9319,-5.9104,-5.9104,-5.9143,-5.9124,-5.9124,-5.9124,-5.9124,-5.9124,-5.9124,-5.9124,-5.9143,-5.9104,-5.8748,-5.8543,-5.8499,-5.8169,-5.7902,-5.7821,-5.7407,-5.7195,-5.7031,-5.6718,-5.6377,-5.5961,-5.5981,-5.5921,-5.5901,-5.5902,-5.5905,-5.5924,-5.5905,-5.5923,-5.5959,-5.6012,-5.5993,-5.5975,-5.5996,-5.5977,-5.5975,-5.5973,-5.5993,-5.5973,-5.6012,-5.6012,-5.6012,-5.6012,-5.6012,-5.6012,-5.6012,-5.6012,-5.5993,-5.6029,-5.601,-5.6029,-5.6051,-5.6048,-5.6046,-5.6046,-5.5446,-5.51,-5.5067,-5.4442,-5.3572,-5.2531,-5.2472,-5.2066,-5.1215,-5.06,-5.0175,-4.9973,-4.9339,-4.9025,-4.9088,-4.9083,-4.9077,-4.9091,-4.9136,-4.9162,-4.9185,-4.9186,-4.9292,-4.9586,-5.0196,-5.1238,-5.2753,-5.2896,-5.328,-5.4069,-5.3668,-5.3557,-5.4162,-5.4244,-5.4361,-5.4693,-5.5185,-5.5667,-5.5898,-5.6465,-5.7226,-5.8027,-5.8203,-5.8515,-5.9277,-5.9473,-5.953,-5.9693,-5.9718,-5.9773,-5.9905,-6.0295,-6.0959,-6.1564,-6.1701,-6.1076,-6.0178,-5.969,-5.9788,-5.969,-5.9768,-5.9788,-5.969,-5.9749,-5.9866,-5.9846,-5.9749,-5.9705,-5.9783,-5.9558,-5.941,-5.9365,-5.9084,-5.8916,-5.8773,-5.8345,-5.7964,-5.7884,-5.7449,-5.6718,-5.5905,-5.5905,-5.5905,-5.5923,-5.5899,-5.5919,-5.5941,-5.5982,-5.5981,-5.5998,-5.5995,-5.5935,-5.5921,-5.5924,-5.5924,-5.5903,-5.5898,-5.5935,-5.5937,-5.5995,-5.6012,-5.6012,-5.6012,-5.6012,-5.6012,-5.6012,-5.6012,-5.6029,-5.6078,-5.6091,-5.6133,-5.6164,-5.6172,-5.6164,-5.6145,-5.6087,-5.6056,-5.607,-5.5998,-5.511,-5.3503,-5.3384,-5.2975,-5.2105,-5.2005,-5.1614,-5.0966,-5.0821,-5.0796,-5.0854,-5.0848,-5.0856,-5.0829,-5.0849,-5.0894,-5.0918,-5.0956,-5.1304,-5.2104,-5.231,-5.2747,-5.363,-5.378,-5.417,-5.4987,-5.5065,-5.5065,-5.5177,-5.5181,-5.5493,-5.6255,-5.643,-5.678,-5.7461,-5.7676,-5.8105,-5.8887,-5.9062,-5.9394,-6.0195,-6.0293,-6.0566,-6.1133,-6.1245,-6.1333,-6.1182,-6.1276,-6.1466,-6.1642,-6.1701,-6.1681,-6.1427,-6.1427,-6.1369,-6.131,-6.1447,-6.1232,-6.1291,-6.1408,-6.1271,-6.1174,-6.1232,-6.1403,-6.0885,-6.0704,-6.0262,-6.004,-5.9618,-5.9124,-5.9309,-5.9063,-5.8787,-5.8771,-5.8525,-5.7935,-5.5962,-5.5943,-5.5903,-5.5899,-5.5917,-5.5901,-5.5923,-5.5943,-5.5943,-5.5943,-5.5961,-5.5903,-5.5903,-5.5941,-5.5943,-5.5962,-5.5961,-5.5961,-5.5962,-5.6001,-5.5998,-5.6012,-5.6012,-5.6012,-5.6012,-5.6012,-5.6012,-5.5993,-5.6046,-5.6078,-5.6133,-5.6191,-5.6222,-5.6228,-5.6218,-5.6228,-5.6222,-5.6211,-5.6222,-5.5831,-5.5133,-5.458,-5.3906,-5.3131,-5.3034,-5.2879,-5.2579,-5.2516,-5.233,-5.1923,-5.1865,-5.1656,-5.1197,-5.1653,-5.1947,-5.2038,-5.2531,-5.2964,-5.3354,-5.3384,-5.3735,-5.4619,-5.4697,-5.5098,-5.5933,-5.605,-5.6055,-5.6079,-5.6079,-5.643,-5.7196,-5.7369,-5.7731,-5.8476,-5.8672,-5.8984,-5.9805,-5.9922,-6.0234,-6.1015,-6.1172,-6.1269,-6.1601,-6.1698,-6.1716,-6.1711,-6.1707,-6.1717,-6.1705,-6.1701,-6.1701,-6.1701,-6.1701,-6.1701,-6.1701,-6.1701,-6.1701,-6.1701,-6.1701,-6.1701,-6.1701,-6.1701,-6.1696,-6.1699,-6.1322,-6.1068,-6.1088,-6.0838,-6.0457,-6.0277,-5.9808,-5.9496,-5.8958,-5.8799,-5.8343,-5.5981,-5.5981,-5.5923,-5.5901,-5.5903,-5.5905,-5.5904,-5.5923,-5.5924,-5.5943,-5.5923,-5.5923,-5.596,-5.5995,-5.5999,-5.5982,-5.5982,-5.5982,-5.6001,-5.6,-5.5996,-5.6026,-5.6046,-5.6065,-5.6065,-5.6065,-5.6051,-5.6068,-5.6046,-5.613,-5.618,-5.6228,-5.6223,-5.6226,-5.6226,-5.6226,-5.6257,-5.6267,-5.6276,-5.6265,-5.6149,-5.5637,-5.4899,-5.4042,-5.395,-5.3853,-5.3629,-5.3618,-5.3372,-5.2807,-5.278,-5.253,-5.1998,-5.2514,-5.2893,-5.2998,-5.3541,-5.4005,-5.4222,-5.4281,-5.4663,-5.5435,-5.5611,-5.5914,-5.6454,-5.661,-5.6723,-5.6957,-5.6938,-5.7254,-5.7757,-5.8121,-5.8613,-5.9394,-5.9512,-5.9863,-6.0644,-6.0762,-6.0976,-6.1582,-6.1621,-6.1699,-6.1699,-6.1699,-6.1699,-6.1699,-6.1716,-6.1711,-6.1701,-6.1713,-6.1709,-6.1709,-6.1705,-6.1701,-6.1701,-6.1701,-6.1701,-6.1701,-6.1701,-6.1701,-6.1715,-6.1715,-6.1691,-6.1673,-6.1641,-6.1573,-6.1393,-6.1402,-6.1379,-6.1279,-6.0823,-6.0216,-5.9862,-5.951,-5.9304,-5.5924,-5.5905,-5.5924,-5.5904,-5.5917,-5.5917,-5.5917,-5.5995,-5.6017,-5.5998,-5.5995,-5.6014,-5.5995,-5.6012,-5.5954,-5.5921,-5.5905,-5.5924,-5.5943,-5.5996,-5.5998,-5.6067,-5.618,-5.618,-5.6199,-5.6184,-5.6178,-5.6178,-5.618,-5.6251,-5.6291,-5.6311,-5.6297,-5.6294,-5.6297,-5.6356,-5.6391,-5.6382,-5.638,-5.6395,-5.6386,-5.6317,-5.5792,-5.4948,-5.4837,-5.4536,-5.3903,-5.372,-5.3736,-5.3736,-5.3738,-5.3692,-5.3653,-5.3702,-5.3797,-5.3884,-5.3947,-5.4317,-5.5035,-5.5182,-5.5562,-5.6255,-5.6402,-5.6536,-5.6566,-5.6696,-5.702,-5.7738,-5.7859,-5.7991,-5.8144,-5.8769,-5.9453,-6.0215,-6.0351,-6.0742,-6.1504,-6.1504,-6.164,-6.1699,-6.1699,-6.1699,-6.1699,-6.1699,-6.1699,-6.1699,-6.1699,-6.1699,-6.1698,-6.1713,-6.1709,-6.1704,-6.1713,-6.1701,-6.1701,-6.1701,-6.1701,-6.1701,-6.1701,-6.1701,-6.1715,-6.171,-6.1673,-6.1641,-6.16,-6.1567,-6.1529,-6.1476,-6.144,-6.1356,-6.1294,-6.0895,-6.0573,-6.0951,-6.0704,-5.5996,-5.5979,-5.5959,-5.5958,-5.5973,-5.5973,-5.5973,-5.6012,-5.6014,-5.6031,-5.6065,-5.6068,-5.6084,-5.6114,-5.6094,-5.6046,-5.5979,-5.5998,-5.6054,-5.6087,-5.6117,-5.6154,-5.6213,-5.6228,-5.6214,-5.6209,-5.6222,-5.6228,-5.6258,-5.629,-5.6317,-5.6362,-5.6372,-5.6358,-5.6369,-5.6388,-5.6395,-5.6403,-5.6395,-5.6407,-5.6398,-5.6388,-5.6208,-5.5882,-5.5862,-5.5726,-5.5447,-5.5411,-5.5199,-5.4645,-5.4616,-5.4402,-5.3992,-5.4406,-5.4963,-5.5488,-5.5568,-5.5711,-5.599,-5.6109,-5.6239,-5.652,-5.6591,-5.663,-5.6715,-5.7098,-5.7589,-5.8004,-5.8973,-5.9452,-5.9551,-5.9805,-6.0293,-6.1035,-6.123,-6.1308,-6.1621,-6.1699,-6.1699,-6.1699,-6.1699,-6.1699,-6.1699,-6.1699,-6.1699,-6.1699,-6.1699,-6.1699,-6.1699,-6.1699,-6.1699,-6.1699,-6.1704,-6.1705,-6.1701,-6.1705,-6.1701,-6.1701,-6.1701,-6.1701,-6.1715,-6.1685,-6.1673,-6.1615,-6.1592,-6.1568,-6.1518,-6.146,-6.1428,-6.1366,-6.1322,-6.131,-6.1242,-6.121,-6.1037,-5.674,-5.6457,-5.6457,-5.6283,-5.6051,-5.607,-5.6087,-5.6065,-5.6065,-5.6082,-5.6133,-5.612,-5.6153,-5.6194,-5.6218,-5.6156,-5.6082,-5.6126,-5.6123,-5.6149,-5.6174,-5.6214,-5.6233,-5.6218,-5.6218,-5.6232,-5.6218,-5.6258,-5.632,-5.6338,-5.6353,-5.6387,-5.6386,-5.6398,-5.6396,-5.6437,-5.6417,-5.6437,-5.6437,-5.6417,-5.6425,-5.6437,-5.6437,-5.6417,-5.6437,-5.6427,-5.6386,-5.6397,-5.6154,-5.5629,-5.553,-5.5314,-5.4863,-5.5289,-5.5865,-5.6426,-5.6489,-5.6548,-5.6543,-5.6579,-5.6605,-5.6605,-5.6627,-5.6663,-5.6998,-5.7556,-5.8084,-5.8782,-5.9629,-6.0469,-6.0742,-6.082,-6.1074,-6.1601,-6.1699,-6.1699,-6.1699,-6.1699,-6.1699,-6.1699,-6.1699,-6.1699,-6.1699,-6.1699,-6.1699,-6.1699,-6.1699,-6.1699,-6.1699,-6.1699,-6.1699,-6.1699,-6.1699,-6.1707,-6.1707,-6.1701,-6.1705,-6.1705,-6.1701,-6.1701,-6.1696,-6.1685,-6.1654,-6.1615,-6.1584,-6.1568,-6.1515,-6.1441,-6.14,-6.1318,-6.1306,-6.1314,-6.1245,-6.1173,-6.1039,-5.8164,-5.7458,-5.7383,-5.6919,-5.6297,-5.6297,-5.6233,-5.6199,-5.6203,-5.6199,-5.6194,-5.6199,-5.6194,-5.6226,-5.6224,-5.62,-5.6214,-5.623,-5.6222,-5.6207,-5.6214,-5.6265,-5.6304,-5.6291,-5.6291,-5.6291,-5.6309,-5.6339,-5.6386,-5.6405,-5.6417,-5.6407,-5.6407,-5.6414,-5.6414,-5.6472,-5.6483,-5.6483,-5.6483,-5.6483,-5.6483,-5.6483,-5.6483,-5.6483,-5.6483,-5.6446,-5.6397,-5.6398,-5.6378,-5.6339,-5.6375,-5.6464,-5.6283,-5.6372,-5.6484,-5.6489,-5.6567,-5.6614,-5.661,-5.6619,-5.6616,-5.6764,-5.6675,-5.709,-5.7773,-5.8066,-5.8711,-5.9844,-6.0371,-6.0762,-6.1465,-6.1582,-6.1601,-6.1699,-6.1699,-6.1699,-6.1699,-6.1699,-6.1699,-6.1699,-6.1699,-6.1699,-6.1699,-6.1699,-6.1699,-6.1699,-6.1699,-6.1699,-6.1699,-6.1699,-6.1699,-6.1699,-6.1699,-6.1716,-6.1713,-6.1709,-6.1701,-6.1709,-6.1709,-6.1705,-6.1696,-6.1666,-6.1654,-6.1595,-6.1567,-6.1548,-6.1484,-6.1441,-6.14,-6.1337,-6.1345,-6.1297,-6.1245,-6.121,-6.1173,-5.8599,-5.8319,-5.8288,-5.7776,-5.7038,-5.7033,-5.6725,-5.6212,-5.62,-5.6219,-5.6272,-5.6282,-5.6296,-5.6341,-5.6339,-5.6329,-5.6329,-5.6324,-5.6304,-5.6285,-5.6321,-5.6345,-5.6364,-5.6364,-5.636,-5.6375,-5.6416,-5.6444,-5.6471,-5.6469,-5.648,-5.6469,-5.6457,-5.6464,-5.6464,-5.6484,-5.6496,-5.6492,-5.6488,-5.6496,-5.6484,-5.6496,-5.6496,-5.6484,-5.6484,-5.6484,-5.6469,-5.648,-5.6472,-5.6472,-5.6484,-5.6498,-5.6504,-5.6533,-5.6586,-5.6586,-5.6606,-5.6606,-5.6618,-5.664,-5.6894,-5.7324,-5.748,-5.793,-5.873,-5.9277,-5.9785,-6.0449,-6.0918,-6.1445,-6.164,-6.1699,-6.1699,-6.1699,-6.1699,-6.1699,-6.1699,-6.1699,-6.1699,-6.1699,-6.1699,-6.1699,-6.1699,-6.1699,-6.1699,-6.1699,-6.1699,-6.1699,-6.1699,-6.1699,-6.1699,-6.1699,-6.1699,-6.1699,-6.1699,-6.1699,-6.1711,-6.1704,-6.1717,-6.1713,-6.1686,-6.1691,-6.1634,-6.1607,-6.1568,-6.1518,-6.1472,-6.1421,-6.1394,-6.1352,-6.1322,-6.131,-6.1278,-6.1261,-6.1227,-5.9585,-5.9254,-5.9262,-5.875,-5.7942,-5.7645,-5.7196,-5.6697,-5.6388,-5.6299,-5.6333,-5.635,-5.6348,-5.6398,-5.6394,-5.6425,-5.6427,-5.6437,-5.6427,-5.6375,-5.6377,-5.6398,-5.6398,-5.6397,-5.6395,-5.6391,-5.6446,-5.6469,-5.6478,-5.6498,-5.6524,-5.6536,-5.6517,-5.6497,-5.6497,-5.6491,-5.6491,-5.6496,-5.6496,-5.6498,-5.6491,-5.6491,-5.6478,-5.6485,-5.6485,-5.6485,-5.6485,-5.6498,-5.6491,-5.6491,-5.6498,-5.6504,-5.6542,-5.6595,-5.6607,-5.6605,-5.6614,-5.661,-5.6627,-5.6933,-5.7265,-5.7832,-5.8203,-5.875,-5.9512,-6.0195,-6.0449,-6.0937,-6.1348,-6.1699,-6.1699,-6.1699,-6.1699,-6.1699,-6.1699,-6.1699,-6.1699,-6.1699,-6.1699,-6.1699,-6.1699,-6.1699,-6.1699,-6.1699,-6.1699,-6.1699,-6.1699,-6.1699,-6.1699,-6.1699,-6.1699,-6.1699,-6.1699,-6.1699,-6.1699,-6.1699,-6.1699,-6.1713,-6.1707,-6.1704,-6.1697,-6.1696,-6.1679,-6.16,-6.1568,-6.1518,-6.1472,-6.1415,-6.1394,-6.1347,-6.1337,-6.1306,-6.1291,-6.1297,-6.1281,-6.0987,-6.0298,-6.0259,-5.9754,-5.8894,-5.8085,-5.7667,-5.7429,-5.6728,-5.6407,-5.6407,-5.6406,-5.6417,-5.6414,-5.6413,-5.6445,-5.6492,-5.6492,-5.6472,-5.6472,-5.6441,-5.6422,-5.6425,-5.6417,-5.6407,-5.6407,-5.6416,-5.6457,-5.6491,-5.6497,-5.6533,-5.6582,-5.6533,-5.6494,-5.6519,-5.6503,-5.6511,-5.6504,-5.6498,-5.6517,-5.6504,-5.6514,-5.6497,-5.6511,-5.6511,-5.6511,-5.6511,-5.6523,-5.6503,-5.6491,-5.6511,-5.6542,-5.6586,-5.6616,-5.6621,-5.6621,-5.6607,-5.6708,-5.6855,-5.7363,-5.7949,-5.8301,-5.8926,-5.9609,-6.0351,-6.0586,-6.0879,-6.1465,-6.166,-6.1699,-6.1699,-6.1699,-6.1699,-6.1699,-6.1699,-6.1699,-6.1699,-6.1699,-6.1699,-6.1699,-6.1699,-6.1699,-6.1699,-6.1699,-6.1699,-6.1699,-6.1699,-6.1699,-6.1699,-6.1699,-6.1699,-6.1699,-6.1699,-6.1699,-6.1699,-6.1699,-6.1711,-6.1707,-6.1701,-6.1701,-6.1717,-6.1701,-6.1679,-6.1619,-6.1558,-6.1509,-6.1484,-6.1447,-6.1408,-6.1381,-6.1352,-6.1337,-6.1322,-6.1345,-6.133,-6.1375,-6.1156,-6.1156,-6.0655,-5.9794,-5.8928,-5.8218,-5.7627,-5.6776,-5.6445,-5.6469,-5.6483,-5.6472,-5.6452,-5.6464,-5.6484,-5.6498,-5.651,-5.6485,-5.6484,-5.6489,-5.6472,-5.6471,-5.6457,-5.6461,-5.6455,-5.6469,-5.6485,-5.6494,-5.6489,-5.6553,-5.6606,-5.6582,-5.6563,-5.6563,-5.6563,-5.6577,-5.6558,-5.6572,-5.6577,-5.6586,-5.6582,-5.6558,-5.6577,-5.6577,-5.6577,-5.6577,-5.6595,-5.6575,-5.6558,-5.6577,-5.6577,-5.6591,-5.6621,-5.6621,-5.6621,-5.666,-5.6933,-5.7461,-5.7812,-5.8476,-5.9609,-5.9902,-6.0449,-6.125,-6.1348,-6.1484,-6.1699,-6.1699,-6.1699,-6.1699,-6.1699,-6.1699,-6.1699,-6.1699,-6.1699,-6.1699,-6.1699,-6.1699,-6.1699,-6.1699,-6.1699,-6.1699,-6.1699,-6.1699,-6.1699,-6.1699,-6.1699,-6.1699,-6.1699,-6.1699,-6.1699,-6.1699,-6.1699,-6.1699,-6.1699,-6.1713,-6.1709,-6.1705,-6.1705,-6.1705,-6.171,-6.1673,-6.1615,-6.1576,-6.1549,-6.1507,-6.146,-6.1441,-6.1414,-6.14,-6.1366,-6.1386,-6.1371,-6.1371,-6.1539,-6.1537,-6.1537,-6.1247,-6.0643,-5.9494,-5.8702,-5.8104,-5.6985,-5.6458,-5.6478,-5.6484,-5.6491,-5.6497,-5.6499,-5.6519,-5.6523,-5.6542,-5.6533,-5.6543,-5.6543,-5.6528,-5.6511,-5.6485,-5.6491,-5.6496,-5.6485,-5.6503,-5.6543,-5.6538,-5.6577,-5.6602,-5.6606,-5.6614,-5.661,-5.6621,-5.6614,-5.6606,-5.6606,-5.6614,-5.6607,-5.6602,-5.6598,-5.6618,-5.6618,-5.6614,-5.661,-5.6618,-5.6618,-5.6606,-5.6606,-5.6614,-5.661,-5.6619,-5.6621,-5.6621,-5.6914,-5.7402,-5.791,-5.8476,-5.9375,-6.0254,-6.0683,-6.1172,-6.1562,-6.1699,-6.1699,-6.1699,-6.1699,-6.1699,-6.1699,-6.1699,-6.1699,-6.1699,-6.1699,-6.1699,-6.1699,-6.1699,-6.1699,-6.1699,-6.1699,-6.1699,-6.1699,-6.1699,-6.1699,-6.1699,-6.1699,-6.1699,-6.1699,-6.1699,-6.1699,-6.1699,-6.1699,-6.1699,-6.1699,-6.1699,-6.1701,-6.1709,-6.1701,-6.1701,-6.1715,-6.171,-6.1654,-6.1615,-6.1603,-6.1568,-6.1518,-6.1484,-6.1472,-6.146,-6.1454,-6.1428,-6.1428,-6.1414,-6.1414,-6.1592,-6.1578,-6.15,-6.148,-6.1138,-5.9707,-5.8823,-5.8604,-5.7182,-5.6494,-5.6517,-5.653,-5.6517,-5.6528,-5.6523,-5.6547,-5.6586,-5.6602,-5.6602,-5.6606,-5.6602,-5.6572,-5.6517,-5.6536,-5.6511,-5.6511,-5.6503,-5.6553,-5.6582,-5.6586,-5.6606,-5.6606,-5.6606,-5.6607,-5.6619,-5.6618,-5.6607,-5.6621,-5.6618,-5.661,-5.6619,-5.6618,-5.6614,-5.6614,-5.6614,-5.6605,-5.661,-5.6606,-5.661,-5.6614,-5.661,-5.661,-5.6621,-5.6621,-5.6621,-5.6758,-5.7305,-5.7851,-5.8262,-5.9414,-6.0371,-6.0683,-6.1289,-6.1699,-6.1699,-6.1699,-6.1699,-6.1699,-6.1699,-6.1699,-6.1699,-6.1699,-6.1699,-6.1699,-6.1699,-6.1699,-6.1699,-6.1699,-6.1699,-6.1699,-6.1699,-6.1699,-6.1699,-6.1699,-6.1699,-6.1699,-6.1699,-6.1699,-6.1699,-6.1699,-6.1699,-6.1699,-6.1699,-6.1699,-6.1699,-6.1699,-6.1709,-6.1701,-6.1705,-6.1701,-6.1715,-6.1691,-6.1673,-6.1641,-6.16,-6.1567,-6.1519,-6.1498,-6.1487,-6.1484,-6.1479,-6.1447,-6.1428,-6.1447,-6.1434,-6.1595,-6.1541,-6.0937,-6.0659,-6.0372,-5.8825,-5.8089,-5.8002,-5.6972,-5.6543,-5.6558,-5.6577,-5.6577,-5.6582,-5.6582,-5.6586,-5.6606,-5.6606,-5.6606,-5.6606,-5.6606,-5.6602,-5.6577,-5.6597,-5.6577,-5.6577,-5.6577,-5.6582,-5.6606,-5.6606,-5.6606,-5.6606,-5.6621,-5.6614,-5.662,-5.6621,-5.6621,-5.6621,-5.6621,-5.6621,-5.6621,-5.6621,-5.6621,-5.6621,-5.6621,-5.6614,-5.6614,-5.6606,-5.6621,-5.6621,-5.6621,-5.6621,-5.6621,-5.6621,-5.664,-5.6894,-5.748,-5.8223,-5.8945,-5.9863,-6.0703,-6.1308,-6.1504,-6.1699,-6.1699,-6.1699,-6.1699,-6.1699,-6.1699,-6.1699,-6.1699,-6.1699,-6.1699,-6.1699,-6.1699,-6.1699,-6.1699,-6.1699,-6.1699,-6.1699,-6.1699,-6.1699,-6.1699,-6.1699,-6.1699,-6.1699,-6.1699,-6.1699,-6.1699,-6.1699,-6.1699,-6.1699,-6.1699,-6.1699,-6.1699,-6.1715,-6.1707,-6.1697,-6.1705,-6.1701,-6.1715,-6.1696,-6.166,-6.1628,-6.1595,-6.1556,-6.151,-6.1519,-6.1509,-6.1507,-6.1503,-6.1484,-6.1484,-6.1472,-6.146,-6.0431,-6.0386,-5.9976,-5.9792,-5.9592,-5.8397,-5.7797,-5.7621,-5.6918,-5.6567,-5.6586,-5.6606,-5.6606,-5.6606,-5.6606,-5.6606,-5.6606,-5.6606,-5.6606,-5.6606,-5.6606,-5.6606,-5.6606,-5.6606,-5.6606,-5.6606,-5.6606,-5.6606,-5.6606,-5.6606,-5.6606,-5.6606,-5.6605,-5.6616,-5.6621,-5.6621,-5.6621,-5.6621,-5.6621,-5.6621,-5.6621,-5.6621,-5.6621,-5.6621,-5.6621,-5.662,-5.6612,-5.6612,-5.6618,-5.6621,-5.6621,-5.6621,-5.6621,-5.664,-5.6797,-5.7285,-5.8027,-5.8867,-5.9707,-6.0527,-6.123,-6.164,-6.1699,-6.1699,-6.1699,-6.1699,-6.1699,-6.1699,-6.1699,-6.1699,-6.1699,-6.1699,-6.1699,-6.1699,-6.1699,-6.1699,-6.1699,-6.1699,-6.1699,-6.1699,-6.1699,-6.1699,-6.1699,-6.1699,-6.1699,-6.1699,-6.1699,-6.1699,-6.1699,-6.1699,-6.1699,-6.1699,-6.1699,-6.1699,-6.1699,-6.1715,-6.1704,-6.1713,-6.1705,-6.1701,-6.1701,-6.1696,-6.1671,-6.1634,-6.1595,-6.1592,-6.1558,-6.1539,-6.1529,-6.1539,-6.1548,-6.1537,-6.1507,-6.1507,-6.1464,-5.9124,-5.908,-5.8963,-5.8909,-5.8753,-5.7972,-5.7562,-5.7484,-5.6899,-5.6606,-5.6606,-5.6606,-5.6606,-5.6606,-5.6606,-5.6606,-5.6606,-5.6606,-5.6606,-5.6606,-5.6606,-5.6606,-5.6606,-5.6606,-5.6606,-5.6606,-5.6606,-5.6606,-5.6606,-5.6606,-5.6606,-5.661,-5.6605,-5.6618,-5.6621,-5.6621,-5.6621,-5.6621,-5.6621,-5.6621,-5.6621,-5.6621,-5.6621,-5.6621,-5.6621,-5.6621,-5.6621,-5.6621,-5.6621,-5.6621,-5.6621,-5.6621,-5.6621,-5.666,-5.6992,-5.7812,-5.8594,-5.9394,-6.0215,-6.1074,-6.164,-6.1699,-6.1699,-6.1699,-6.1699,-6.1699,-6.1699,-6.1699,-6.1699,-6.1699,-6.1699,-6.1699,-6.1699,-6.1699,-6.1699,-6.1699,-6.1699,-6.1699,-6.1699,-6.1699,-6.1699,-6.1699,-6.1699,-6.1699,-6.1699,-6.1699,-6.1699,-6.1699,-6.1699,-6.1699,-6.1699,-6.1699,-6.1699,-6.1699,-6.1699,-6.1698,-6.1709,-6.1713,-6.1701,-6.1701,-6.1701,-6.1696,-6.1691,-6.1634,-6.1615,-6.1612,-6.1595,-6.1567,-6.1567,-6.1578,-6.1568,-6.1559,-6.1549,-6.1519,-6.1487,-5.9124,-5.9046,-5.8324,-5.8011,-5.7894,-5.7153,-5.686,-5.6801,-5.6684,-5.6606,-5.6606,-5.6606,-5.6606,-5.6606,-5.6606,-5.6606,-5.6606,-5.6606,-5.6606,-5.6606,-5.6606,-5.6606,-5.6606,-5.6606,-5.6606,-5.6606,-5.6606,-5.6606,-5.6606,-5.6606,-5.6606,-5.661,-5.6605,-5.6616,-5.6621,-5.6621,-5.6621,-5.6621,-5.6621,-5.6621,-5.6621,-5.6621,-5.6621,-5.6621,-5.6621,-5.6621,-5.6621,-5.6621,-5.6621,-5.6621,-5.6621,-5.6621,-5.664,-5.664,-5.7148,-5.7969,-5.8828,-5.9707,-6.0527,-6.123,-6.164,-6.1699,-6.1699,-6.1699,-6.1699,-6.1699,-6.1699,-6.1699,-6.1699,-6.1699,-6.1699,-6.1699,-6.1699,-6.1699,-6.1699,-6.1699,-6.1699,-6.1699,-6.1699,-6.1699,-6.1699,-6.1699,-6.1699,-6.1699,-6.1699,-6.1699,-6.1699,-6.1699,-6.1699,-6.1699,-6.1699,-6.1699,-6.1699,-6.1699,-6.1699,-6.1699,-6.1716,-6.1701,-6.1709,-6.1701,-6.1701,-6.1701,-6.1691,-6.166,-6.1648,-6.1654,-6.1627,-6.1592,-6.1592,-6.1592,-6.1584,-6.1595,-6.1578,-6.1539,-6.1528,-5.7797,-5.7777,-5.7348,-5.7192,-5.7113,-5.6782,-5.6606,-5.6606,-5.6606,-5.6606,-5.6606,-5.6606,-5.6606,-5.6606,-5.6606,-5.6606,-5.6606,-5.6606,-5.6606,-5.6606,-5.6606,-5.6606,-5.6606,-5.6606,-5.6606,-5.6606,-5.6606,-5.6606,-5.6606,-5.6606,-5.6606,-5.6606,-5.6618,-5.6612,-5.6621,-5.6621,-5.6621,-5.6621,-5.6621,-5.6621,-5.6621,-5.6621,-5.6621,-5.6621,-5.6621,-5.6621,-5.6621,-5.6621,-5.6621,-5.6621,-5.6621,-5.6621,-5.6719,-5.7129,-5.7656,-5.8496,-5.9336,-6.0176,-6.0898,-6.1523,-6.168,-6.1699,-6.1699,-6.1699,-6.1699,-6.1699,-6.1699,-6.1699,-6.1699,-6.1699,-6.1699,-6.1699,-6.1699,-6.1699,-6.1699,-6.1699,-6.1699,-6.1699,-6.1699,-6.1699,-6.1699,-6.1699,-6.1699,-6.1699,-6.1699,-6.1699,-6.1699,-6.1699,-6.1699,-6.1699,-6.1699,-6.1699,-6.1699,-6.1699,-6.1699,-6.1699,-6.1699,-6.1699,-6.1701,-6.1713,-6.1705,-6.1705,-6.1701,-6.1671,-6.1679,-6.1693,-6.1641,-6.1607,-6.1595,-6.1595,-6.16,-6.1603,-6.1595,-6.1578,-6.1539,-5.6606,-5.6606,-5.6606,-5.6606,-5.6606,-5.6606,-5.6606,-5.6606,-5.6606,-5.6606,-5.6606,-5.6606,-5.6606,-5.6606,-5.6606,-5.6606,-5.6606,-5.6606,-5.6606,-5.6606,-5.6606,-5.6606,-5.6606,-5.6606,-5.6606,-5.6606,-5.6606,-5.6606,-5.6606,-5.6606,-5.6606,-5.661,-5.661,-5.6605,-5.6621,-5.6621,-5.6621,-5.6621,-5.6621,-5.6621,-5.6621,-5.6621,-5.6621,-5.6621,-5.6621,-5.6621,-5.6621,-5.6621,-5.6621,-5.6621,-5.6621,-5.6621,-5.6777,-5.7578,-5.8457,-5.918,-5.9941,-6.0801,-6.1426,-6.168,-6.1699,-6.1699,-6.1699,-6.1699,-6.1699,-6.1699,-6.1699,-6.1699,-6.1699,-6.1699,-6.1699,-6.1699,-6.1699,-6.1699,-6.1699,-6.1699,-6.1699,-6.1699,-6.1699,-6.1699,-6.1699,-6.1699,-6.1699,-6.1699,-6.1699,-6.1699,-6.1699,-6.1699,-6.1699,-6.1699,-6.1699,-6.1699,-6.1699,-6.1699,-6.1699,-6.1699,-6.1699,-6.1699,-6.1699,-6.1711,-6.1704,-6.1713,-6.169,-6.1681,-6.1691,-6.1679,-6.1648,-6.1621,-6.1634,-6.1628,-6.1627,-6.1612,-6.1592,-6.1586,-6.1568,-5.6606,-5.6606,-5.6606,-5.6606,-5.6606,-5.6606,-5.6606,-5.6606,-5.6606,-5.6606,-5.6606,-5.6606,-5.6606,-5.6606,-5.6606,-5.6606,-5.6606,-5.6606,-5.6606,-5.6606,-5.6606,-5.6606,-5.6606,-5.6606,-5.6606,-5.6606,-5.6606,-5.6606,-5.6606,-5.6606,-5.6614,-5.6602,-5.6618,-5.6605,-5.6621,-5.6621,-5.6621,-5.6621,-5.6621,-5.6621,-5.6621,-5.6621,-5.6621,-5.6621,-5.6621,-5.6621,-5.6621,-5.6621,-5.6621,-5.6621,-5.6621,-5.6621,-5.6855,-5.8183,-5.8887,-5.9394,-5.9961,-6.0762,-6.1523,-6.1699,-6.1699,-6.1699,-6.1699,-6.1699,-6.1699,-6.1699,-6.1699,-6.1699,-6.1699,-6.1699,-6.1699,-6.1699,-6.1699,-6.1699,-6.1699,-6.1699,-6.1699,-6.1699,-6.1699,-6.1699,-6.1699,-6.1699,-6.1699,-6.1699,-6.1699,-6.1699,-6.1699,-6.1699,-6.1699,-6.1699,-6.1699,-6.1699,-6.1699,-6.1699,-6.1699,-6.1699,-6.1699,-6.1699,-6.1699,-6.1699,-6.1715,-6.1709,-6.1697,-6.1709,-6.1701,-6.171,-6.1679,-6.1679,-6.1671,-6.166,-6.1641,-6.1615,-6.1595,-6.1584,-6.1588,-5.6606,-5.6606,-5.6606,-5.6606,-5.6606,-5.6606,-5.6606,-5.6606,-5.6606,-5.6606,-5.6606,-5.6606,-5.6606,-5.6606,-5.6606,-5.6606,-5.6606,-5.6606,-5.6606,-5.6606,-5.6606,-5.6606,-5.6606,-5.6606,-5.6606,-5.6606,-5.6606,-5.6606,-5.6606,-5.6606,-5.661,-5.6618,-5.661,-5.6618,-5.6621,-5.6621,-5.6621,-5.6621,-5.6621,-5.6621,-5.6621,-5.6621,-5.6621,-5.6621,-5.6621,-5.6621,-5.6621,-5.6621,-5.6621,-5.6621,-5.6621,-5.6621,-5.6855,-5.7734,-5.8613,-5.9258,-5.9961,-6.0781,-6.1523,-6.168,-6.1699,-6.1699,-6.1699,-6.1699,-6.1699,-6.1699,-6.1699,-6.1699,-6.1699,-6.1699,-6.1699,-6.1699,-6.1699,-6.1699,-6.1699,-6.1699,-6.1699,-6.1699,-6.1699,-6.1699,-6.1699,-6.1699,-6.1699,-6.1699,-6.1699,-6.1699,-6.1699,-6.1699,-6.1699,-6.1699,-6.1699,-6.1699,-6.1699,-6.1699,-6.1699,-6.1699,-6.1699,-6.1699,-6.1699,-6.1699,-6.1699,-6.1716,-6.1711,-6.1701,-6.1709,-6.1701,-6.1705,-6.1705,-6.1691,-6.1666,-6.1654,-6.1621,-6.1588,-6.1576,-6.1568,-5.6606,-5.6606,-5.6606,-5.6606,-5.6606,-5.6606,-5.6606,-5.6606,-5.6606,-5.6606,-5.6606,-5.6606,-5.6606,-5.6606,-5.6606,-5.6606,-5.6606,-5.6606,-5.6606,-5.6606,-5.6606,-5.6606,-5.6606,-5.6606,-5.6606,-5.6606,-5.6606,-5.6606,-5.6606,-5.6606,-5.6606,-5.6606,-5.6616,-5.6621,-5.6621,-5.6621,-5.6621,-5.6621,-5.6621,-5.6621,-5.6621,-5.6621,-5.6621,-5.6621,-5.6621,-5.6621,-5.6621,-5.6621,-5.6621,-5.6621,-5.6621,-5.6621,-5.6777,-5.75,-5.8398,-5.914,-5.9961,-6.0781,-6.1406,-6.1699,-6.1699,-6.1699,-6.1699,-6.1699,-6.1699,-6.1699,-6.1699,-6.1699,-6.1699,-6.1699,-6.1699,-6.1699,-6.1699,-6.1699,-6.1699,-6.1699,-6.1699,-6.1699,-6.1699,-6.1699,-6.1699,-6.1699,-6.1699,-6.1699,-6.1699,-6.1699,-6.1699,-6.1699,-6.1699,-6.1699,-6.1699,-6.1699,-6.1699,-6.1699,-6.1699,-6.1699,-6.1699,-6.1699,-6.1699,-6.1699,-6.1699,-6.1699,-6.1717,-6.1711,-6.1697,-6.1715,-6.1699,-6.1705,-6.171,-6.1654,-6.1621,-6.1607,-6.1584,-6.1578,-6.1559,-5.6606,-5.6606,-5.6606,-5.6606,-5.6606,-5.6606,-5.6606,-5.6606,-5.6606,-5.6606,-5.6606,-5.6606,-5.6606,-5.6606,-5.6606,-5.6606,-5.6606,-5.6606,-5.6606,-5.6606,-5.6606,-5.6606,-5.6606,-5.6606,-5.6606,-5.6606,-5.6606,-5.6606,-5.6606,-5.6606,-5.6606,-5.661,-5.6618,-5.6621,-5.6621,-5.6621,-5.6621,-5.6621,-5.6621,-5.6621,-5.6621,-5.6621,-5.6621,-5.6621,-5.6621,-5.6621,-5.6621,-5.6621,-5.6621,-5.6621,-5.6621,-5.6621,-5.6758,-5.7285,-5.8086,-5.9121,-5.9785,-6.0644,-6.1406,-6.1699,-6.1699,-6.1699,-6.1699,-6.1699,-6.1699,-6.1699,-6.1699,-6.1699,-6.1699,-6.1699,-6.1699,-6.1699,-6.1699,-6.1699,-6.1699,-6.1699,-6.1699,-6.1699,-6.1699,-6.1699,-6.1699,-6.1699,-6.1699,-6.1699,-6.1699,-6.1699,-6.1699,-6.1699,-6.1699,-6.1699,-6.1699,-6.1699,-6.1699,-6.1699,-6.1699,-6.1699,-6.1699,-6.1699,-6.1699,-6.1699,-6.1699,-6.1699,-6.1699,-6.1716,-6.1707,-6.1705,-6.1699,-6.1679,-6.1654,-6.1621,-6.1588,-6.1592,-6.1576,-6.1558,-6.1539,-5.6606,-5.6606,-5.6606,-5.6606,-5.6606,-5.6606,-5.6606,-5.6606,-5.6606,-5.6606,-5.6606,-5.6606,-5.6606,-5.6606,-5.6606,-5.6606,-5.6606,-5.6606,-5.6606,-5.6606,-5.6606,-5.6606,-5.6606,-5.6606,-5.6606,-5.6606,-5.6606,-5.6606,-5.6606,-5.661,-5.6605,-5.6614,-5.6621,-5.6621,-5.6621,-5.6621,-5.6621,-5.6621,-5.6621,-5.6621,-5.6621,-5.6621,-5.6621,-5.6621,-5.6621,-5.6621,-5.6621,-5.6621,-5.6621,-5.6621,-5.6621,-5.6621,-5.6621,-5.7012,-5.7812,-5.8926,-5.9531,-6.0351,-6.1387,-6.168,-6.1699,-6.1699,-6.1699,-6.1699,-6.1699,-6.1699,-6.1699,-6.1699,-6.1699,-6.1699,-6.1699,-6.1699,-6.1699,-6.1699,-6.1699,-6.1699,-6.1699,-6.1699,-6.1699,-6.1699,-6.1699,-6.1699,-6.1699,-6.1699,-6.1699,-6.1699,-6.1699,-6.1699,-6.1699,-6.1699,-6.1699,-6.1699,-6.1699,-6.1699,-6.1699,-6.1699,-6.1699,-6.1699,-6.1699,-6.1699,-6.1699,-6.1699,-6.1699,-6.1699,-6.1694,-6.1694,-6.1691,-6.1654,-6.1641,-6.16,-6.1592,-6.1576,-6.1567,-6.1558,-6.1549,-5.6606,-5.6606,-5.6606,-5.6606,-5.6606,-5.6606,-5.6606,-5.6606,-5.6606,-5.6606,-5.6606,-5.6606,-5.6606,-5.6606,-5.6606,-5.6606,-5.6606,-5.6606,-5.6606,-5.6606,-5.6606,-5.6606,-5.6606,-5.6606,-5.6606,-5.6606,-5.6606,-5.6606,-5.6607,-5.6605,-5.6614,-5.6621,-5.6621,-5.6621,-5.6621,-5.6621,-5.6621,-5.6621,-5.6621,-5.6621,-5.6621,-5.6621,-5.6621,-5.6621,-5.6621,-5.6621,-5.6621,-5.6621,-5.6621,-5.6621,-5.6621,-5.6621,-5.6621,-5.6797,-5.7422,-5.834,-5.9199,-5.9883,-6.0898,-6.1582,-6.168,-6.1699,-6.1699,-6.1699,-6.1699,-6.1699,-6.1699,-6.1699,-6.1699,-6.1699,-6.1699,-6.1699,-6.1699,-6.1699,-6.1699,-6.1699,-6.1699,-6.1699,-6.1699,-6.1699,-6.1699,-6.1699,-6.1699,-6.1699,-6.1699,-6.1699,-6.1699,-6.1699,-6.1699,-6.1699,-6.1699,-6.1699,-6.1699,-6.1699,-6.1699,-6.1699,-6.1699,-6.1699,-6.1699,-6.1699,-6.1699,-6.1699,-6.1699,-6.1699,-6.1695,-6.1681,-6.1661,-6.166,-6.1627,-6.1595,-6.1595,-6.1576,-6.1592,-6.1564,-6.1584,-5.6606,-5.6606,-5.6606,-5.6606,-5.6606,-5.6606,-5.6606,-5.6606,-5.6606,-5.6606,-5.6606,-5.6606,-5.6606,-5.6606,-5.6606,-5.6606,-5.6606,-5.6606,-5.6606,-5.6606,-5.6606,-5.6606,-5.6606,-5.6606,-5.6606,-5.6606,-5.661,-5.6607,-5.662,-5.662,-5.6621,-5.6621,-5.6621,-5.6621,-5.6621,-5.6621,-5.6621,-5.6621,-5.6621,-5.6621,-5.6621,-5.6621,-5.6621,-5.6621,-5.6621,-5.6621,-5.6621,-5.6621,-5.6621,-5.6621,-5.6621,-5.6621,-5.6621,-5.6621,-5.7129,-5.7969,-5.873,-5.9531,-6.041,-6.123,-6.1621,-6.1699,-6.1699,-6.1699,-6.1699,-6.1699,-6.1699,-6.1699,-6.1699,-6.1699,-6.1699,-6.1699,-6.1699,-6.1699,-6.1699,-6.1699,-6.1699,-6.1699,-6.1699,-6.1699,-6.1699,-6.1699,-6.1699,-6.1699,-6.1699,-6.1699,-6.1699,-6.1699,-6.1699,-6.1699,-6.1699,-6.1699,-6.1699,-6.1699,-6.1699,-6.1699,-6.1699,-6.1699,-6.1699,-6.1699,-6.1699,-6.1699,-6.1699,-6.1699,-6.1713,-6.1694,-6.1676,-6.164,-6.1615,-6.1584,-6.1584,-6.1592,-6.1588,-6.1595,-6.1607,-5.6606,-5.6606,-5.6606,-5.6606,-5.6606,-5.6606,-5.6606,-5.6606,-5.6606,-5.6606,-5.6606,-5.6606,-5.6606,-5.6606,-5.6606,-5.6606,-5.6606,-5.6606,-5.6606,-5.6606,-5.6606,-5.6606,-5.6606,-5.6606,-5.6606,-5.661,-5.6618,-5.6618,-5.6602,-5.6619,-5.6621,-5.6621,-5.6621,-5.6621,-5.6621,-5.6621,-5.6621,-5.6621,-5.6621,-5.6621,-5.6621,-5.6621,-5.6621,-5.6621,-5.6621,-5.6621,-5.6621,-5.6621,-5.6621,-5.6621,-5.6621,-5.6621,-5.6621,-5.6621,-5.6992,-5.7656,-5.834,-5.9004,-6.0137,-6.1152,-6.168,-6.168,-6.1699,-6.1699,-6.1699,-6.1699,-6.1699,-6.1699,-6.1699,-6.1699,-6.1699,-6.1699,-6.1699,-6.1699,-6.1699,-6.1699,-6.1699,-6.1699,-6.1699,-6.1699,-6.1699,-6.1699,-6.1699,-6.1699,-6.1699,-6.1699,-6.1699,-6.1699,-6.1699,-6.1699,-6.1699,-6.1699,-6.1699,-6.1699,-6.1699,-6.1699,-6.1699,-6.1699,-6.1699,-6.1699,-6.1699,-6.1699,-6.1699,-6.1699,-6.1699,-6.1709,-6.1676,-6.166,-6.1615,-6.158,-6.16,-6.1607,-6.1595,-6.1621,-6.1641,-5.6606,-5.6606,-5.6606,-5.6606,-5.6606,-5.6606,-5.6606,-5.6606,-5.6606,-5.6606,-5.6606,-5.6606,-5.6606,-5.6606,-5.6606,-5.6606,-5.6606,-5.6606,-5.6606,-5.6606,-5.6606,-5.6606,-5.6606,-5.6606,-5.6606,-5.661,-5.6618,-5.6602,-5.6612,-5.662,-5.6621,-5.6621,-5.6621,-5.6621,-5.6621,-5.6621,-5.6621,-5.6621,-5.6621,-5.6621,-5.6621,-5.6621,-5.6621,-5.6621,-5.6621,-5.6621,-5.6621,-5.6621,-5.6621,-5.6621,-5.6621,-5.6621,-5.6621,-5.6699,-5.6894,-5.7305,-5.789,-5.8594,-5.9746,-6.0703,-6.1074,-6.1152,-6.1484,-6.1699,-6.1699,-6.1699,-6.1699,-6.1699,-6.1699,-6.1699,-6.1699,-6.1699,-6.1699,-6.1699,-6.1699,-6.1699,-6.1699,-6.1699,-6.1699,-6.1699,-6.1699,-6.1699,-6.1699,-6.1699,-6.1699,-6.1699,-6.1699,-6.1699,-6.1699,-6.1699,-6.1699,-6.1699,-6.1699,-6.1699,-6.1699,-6.1699,-6.1699,-6.1699,-6.1699,-6.1699,-6.1699,-6.1699,-6.1699,-6.1699,-6.1699,-6.1697,-6.1681,-6.166,-6.1641,-6.1641,-6.1641,-6.1648,-6.1634,-6.1654,-6.1679,-5.6508,-5.6528,-5.6528,-5.643,-5.6469,-5.643,-5.6528,-5.6606,-5.6606,-5.6606,-5.6606,-5.6606,-5.6606,-5.6606,-5.6606,-5.6606,-5.6606,-5.6606,-5.6606,-5.6606,-5.6606,-5.6606,-5.6606,-5.6606,-5.6606,-5.6606,-5.661,-5.6607,-5.6621,-5.6621,-5.6621,-5.6621,-5.6621,-5.6621,-5.6621,-5.6621,-5.6621,-5.6621,-5.6621,-5.6621,-5.6621,-5.6621,-5.6621,-5.6621,-5.6621,-5.6621,-5.6621,-5.6621,-5.6621,-5.6621,-5.6621,-5.6621,-5.6621,-5.6621,-5.6621,-5.6836,-5.7461,-5.834,-5.9062,-5.9902,-6.0293,-6.0469,-6.1133,-6.1484,-6.1699,-6.1699,-6.1699,-6.1699,-6.1699,-6.1699,-6.1699,-6.1699,-6.1699,-6.1699,-6.1699,-6.1699,-6.1699,-6.1699,-6.1699,-6.1699,-6.1699,-6.1699,-6.1699,-6.1699,-6.1699,-6.1699,-6.1699,-6.1699,-6.1699,-6.1699,-6.1699,-6.1699,-6.1699,-6.1699,-6.1699,-6.1699,-6.1699,-6.1699,-6.1699,-6.1699,-6.1699,-6.1699,-6.1699,-6.1699,-6.1699,-6.1704,-6.1705,-6.1691,-6.1699,-6.1699,-6.1693,-6.1679,-6.1666,-6.1671,-6.1691,-5.4771,-5.4732,-5.4747,-5.4728,-5.4845,-5.5411,-5.602,-5.6567,-5.6606,-5.6606,-5.6606,-5.6606,-5.6606,-5.6606,-5.6606,-5.6606,-5.6606,-5.6606,-5.6606,-5.6606,-5.6606,-5.6606,-5.6606,-5.6606,-5.6606,-5.6606,-5.6614,-5.6621,-5.6621,-5.6621,-5.6621,-5.6621,-5.6621,-5.6621,-5.6621,-5.6621,-5.6621,-5.6621,-5.6621,-5.6621,-5.6621,-5.6621,-5.6621,-5.6621,-5.6621,-5.6621,-5.6621,-5.6621,-5.6621,-5.6621,-5.6621,-5.6621,-5.6621,-5.6621,-5.6621,-5.6699,-5.7363,-5.8086,-5.8379,-5.9082,-5.9551,-5.9687,-6.0332,-6.1094,-6.1445,-6.168,-6.168,-6.1699,-6.1699,-6.1699,-6.1699,-6.1699,-6.1699,-6.1699,-6.1699,-6.1699,-6.1699,-6.1699,-6.1699,-6.1699,-6.1699,-6.1699,-6.1699,-6.1699,-6.1699,-6.1699,-6.1699,-6.1699,-6.1699,-6.1699,-6.1699,-6.1699,-6.1699,-6.1699,-6.1699,-6.1699,-6.1699,-6.1699,-6.1699,-6.1699,-6.1699,-6.1699,-6.1699,-6.1699,-6.1699,-6.1707,-6.1705,-6.171,-6.1705,-6.1699,-6.1699,-6.1705,-6.1715,-6.1715,-6.1701,-5.399,-5.399,-5.399,-5.399,-5.4088,-5.4556,-5.5123,-5.565,-5.6274,-5.6606,-5.6606,-5.6606,-5.6606,-5.6606,-5.6606,-5.6606,-5.6606,-5.6606,-5.6606,-5.6606,-5.6606,-5.6606,-5.6606,-5.6606,-5.6606,-5.661,-5.6605,-5.6621,-5.6621,-5.6621,-5.6621,-5.6621,-5.6621,-5.6621,-5.6621,-5.6621,-5.6621,-5.6621,-5.6621,-5.6621,-5.6621,-5.6621,-5.6621,-5.6621,-5.6621,-5.6621,-5.6621,-5.6621,-5.6621,-5.6621,-5.6621,-5.6621,-5.6621,-5.6621,-5.6621,-5.6699,-5.6973,-5.7285,-5.7519,-5.8203,-5.8555,-5.8887,-5.9453,-6.0273,-6.0996,-6.1406,-6.1582,-6.1699,-6.1699,-6.1699,-6.1699,-6.1699,-6.1699,-6.1699,-6.1699,-6.1699,-6.1699,-6.1699,-6.1699,-6.1699,-6.1699,-6.1699,-6.1699,-6.1699,-6.1699,-6.1699,-6.1699,-6.1699,-6.1699,-6.1699,-6.1699,-6.1699,-6.1699,-6.1699,-6.1699,-6.1699,-6.1699,-6.1699,-6.1699,-6.1699,-6.1699,-6.1699,-6.1699,-6.1699,-6.1699,-6.1709,-6.1713,-6.1701,-6.171,-6.1705,-6.1705,-6.171,-6.1715,-6.1715,-6.1701,-5.3756,-5.3717,-5.3815,-5.3717,-5.3897,-5.3893,-5.3971,-5.4166,-5.5611,-5.6411,-5.6411,-5.6469,-5.6469,-5.6567,-5.6606,-5.6606,-5.6606,-5.6606,-5.6606,-5.6606,-5.6606,-5.6606,-5.6618,-5.6606,-5.6614,-5.6605,-5.6621,-5.6621,-5.6621,-5.6621,-5.6621,-5.6621,-5.6621,-5.6621,-5.6621,-5.6621,-5.6621,-5.6621,-5.6621,-5.6621,-5.6621,-5.6621,-5.6621,-5.6621,-5.6621,-5.6621,-5.6621,-5.6621,-5.6621,-5.6621,-5.6621,-5.6621,-5.6621,-5.6621,-5.6621,-5.6621,-5.6758,-5.6777,-5.6953,-5.7461,-5.7676,-5.8066,-5.8594,-5.9433,-6.0176,-6.0957,-6.123,-6.164,-6.1699,-6.1699,-6.1699,-6.1699,-6.1699,-6.1699,-6.1699,-6.1699,-6.1699,-6.1699,-6.1699,-6.1699,-6.1699,-6.1699,-6.1699,-6.1699,-6.1699,-6.1699,-6.1699,-6.1699,-6.1699,-6.1699,-6.1699,-6.1699,-6.1699,-6.1699,-6.1699,-6.1699,-6.1699,-6.1699,-6.1699,-6.1699,-6.1699,-6.1699,-6.1699,-6.1699,-6.1699,-6.1699,-6.1704,-6.1709,-6.1701,-6.1715,-6.1715,-6.1715,-6.1701,-6.1701,-6.1701,-5.2019,-5.2019,-5.2019,-5.239,-5.2975,-5.3014,-5.3385,-5.399,-5.4381,-5.4986,-5.5532,-5.563,-5.5942,-5.6352,-5.6372,-5.6391,-5.6528,-5.643,-5.6586,-5.661,-5.661,-5.6605,-5.6612,-5.6605,-5.6605,-5.6618,-5.6621,-5.6621,-5.6621,-5.6621,-5.6621,-5.6621,-5.6621,-5.6621,-5.6621,-5.6621,-5.6621,-5.6621,-5.6621,-5.6621,-5.6621,-5.6621,-5.6621,-5.6621,-5.6621,-5.6621,-5.6621,-5.6621,-5.6621,-5.6621,-5.6621,-5.6621,-5.6621,-5.6621,-5.6621,-5.6621,-5.6621,-5.6621,-5.668,-5.6875,-5.7012,-5.7246,-5.7754,-5.8574,-5.9394,-6.0234,-6.0918,-6.1406,-6.1699,-6.1699,-6.1699,-6.1699,-6.1699,-6.1699,-6.1699,-6.1699,-6.1699,-6.1699,-6.1699,-6.1699,-6.1699,-6.1699,-6.1699,-6.1699,-6.1699,-6.1699,-6.1699,-6.1699,-6.1699,-6.1699,-6.1699,-6.1699,-6.1699,-6.1699,-6.1699,-6.1699,-6.1699,-6.1699,-6.1699,-6.1699,-6.1699,-6.1699,-6.1699,-6.1699,-6.1699,-6.1699,-6.1699,-6.1717,-6.1709,-6.1705,-6.1701,-6.1701,-6.1701,-6.1701,-6.1701,-5.1394,-5.1394,-5.1394,-5.1668,-5.2078,-5.2117,-5.2409,-5.28,-5.2839,-5.3346,-5.4166,-5.4556,-5.5025,-5.5454,-5.5454,-5.5825,-5.5962,-5.602,-5.627,-5.649,-5.6484,-5.6618,-5.6601,-5.6543,-5.6618,-5.6621,-5.6621,-5.6621,-5.6621,-5.6621,-5.6621,-5.6621,-5.6621,-5.6621,-5.6621,-5.6621,-5.6621,-5.6621,-5.6621,-5.6621,-5.6621,-5.6621,-5.6621,-5.6621,-5.6621,-5.6621,-5.6621,-5.6621,-5.6621,-5.6621,-5.6621,-5.6621,-5.6621,-5.6621,-5.6621,-5.6621,-5.6621,-5.6621,-5.6621,-5.6621,-5.6621,-5.6836,-5.6933,-5.7754,-5.8535,-5.9414,-6.0605,-6.1133,-6.1621,-6.1699,-6.1699,-6.1699,-6.1699,-6.1699,-6.1699,-6.1699,-6.1699,-6.1699,-6.1699,-6.1699,-6.1699,-6.1699,-6.1699,-6.1699,-6.1699,-6.1699,-6.1699,-6.1699,-6.1699,-6.1699,-6.1699,-6.1699,-6.1699,-6.1699,-6.1699,-6.1699,-6.1699,-6.1699,-6.1699,-6.1699,-6.1699,-6.1699,-6.1699,-6.1699,-6.1699,-6.1699,-6.1699,-6.1699,-6.1699,-6.1705,-6.1701,-6.1701,-6.1701,-6.1701,-6.1701,-5.1394,-5.1394,-5.1394,-5.1394,-5.1394,-5.1414,-5.1453,-5.1472,-5.1433,-5.1863,-5.2624,-5.3342,-5.3698,-5.399,-5.4049,-5.4556,-5.4947,-5.5099,-5.5612,-5.5898,-5.6035,-5.6055,-5.6191,-5.6348,-5.6406,-5.6543,-5.6621,-5.6621,-5.6621,-5.6621,-5.6621,-5.6621,-5.6621,-5.6621,-5.6621,-5.6621,-5.6621,-5.6621,-5.6621,-5.6621,-5.6621,-5.6621,-5.6621,-5.6621,-5.6621,-5.6621,-5.6621,-5.6621,-5.6621,-5.6621,-5.6621,-5.6621,-5.6621,-5.6621,-5.6621,-5.6621,-5.6621,-5.6621,-5.6621,-5.6621,-5.6621,-5.664,-5.6621,-5.7031,-5.7871,-5.875,-5.9922,-6.0781,-6.1289,-6.168,-6.168,-6.1699,-6.1699,-6.1699,-6.1699,-6.1699,-6.1699,-6.1699,-6.1699,-6.1699,-6.1699,-6.1699,-6.1699,-6.1699,-6.1699,-6.1699,-6.1699,-6.1699,-6.1699,-6.1699,-6.1699,-6.1699,-6.1699,-6.1699,-6.1699,-6.1699,-6.1699,-6.1699,-6.1699,-6.1699,-6.1699,-6.1699,-6.1699,-6.1699,-6.1699,-6.1699,-6.1699,-6.1699,-6.1699,-6.1699,-6.1701,-6.1701,-6.1701,-6.1701,-6.1701,-5.1394,-5.1394,-5.1394,-5.1394,-5.1394,-5.1394,-5.1394,-5.1394,-5.1394,-5.1531,-5.1726,-5.1902,-5.2546,-5.3971,-5.399,-5.4166,-5.4147,-5.4244,-5.4264,-5.4473,-5.4844,-5.5117,-5.5449,-5.5742,-5.6055,-5.6308,-5.6523,-5.6621,-5.6621,-5.6621,-5.6621,-5.6621,-5.6621,-5.6621,-5.6621,-5.6621,-5.6621,-5.6621,-5.6621,-5.6621,-5.6621,-5.6621,-5.6621,-5.6621,-5.6621,-5.6621,-5.6621,-5.6621,-5.6621,-5.6621,-5.6621,-5.6621,-5.6621,-5.6621,-5.6621,-5.6621,-5.6621,-5.6621,-5.6621,-5.6621,-5.6621,-5.6621,-5.668,-5.6914,-5.7558,-5.7988,-5.9121,-6.0234,-6.082,-6.1445,-6.1582,-6.168,-6.1699,-6.1699,-6.1699,-6.1699,-6.1699,-6.1699,-6.1699,-6.1699,-6.1699,-6.1699,-6.1699,-6.1699,-6.1699,-6.1699,-6.1699,-6.1699,-6.1699,-6.1699,-6.1699,-6.1699,-6.1699,-6.1699,-6.1699,-6.1699,-6.1699,-6.1699,-6.1699,-6.1699,-6.1699,-6.1699,-6.1699,-6.1699,-6.1699,-6.1699,-6.1699,-6.1699,-6.1699,-6.1711,-6.1713,-6.1701,-6.1701,-6.1715,-6.1715]}]]